[[{"header":{"parameterUnit":"m.s-1","parameterCategory":1,"la1":30.6,"la2":29.2853,"lo1":-89.7004,"lo2":-87.6739,"dy":0.0162,"dx":0.0183,"nx":112,"ny":82,"refTime":"2025-08-07T12:00:00:Z","depth":0,"parameterNumber":2,"parameterNumberName":"U-component_of_WINDS"},"data":[0.0,0.0,0.0,0.0,0.0,0.0,0.0,0.0,0.0,0.0,0.0,0.0,0.0,0.0,0.0,0.0,0.0,0.0,0.0,0.0,0.0,0.0,0.0,0.0,0.0,0.0,0.0,0.0,0.0,0.0,0.0,0.0,0.0,0.0,0.0,0.0,0.0,0.0,0.0,0.0,0.0,0.0,0.0,0.0,0.0,0.0,0.0,0.0,0.0,0.0,0.0,0.0,0.0,0.0,0.0,0.0,0.0,0.0,0.0,0.0,0.0,0.0,0.0,0.0,0.0,0.0,0.0,0.0,0.0,0.0,0.0,0.0,0.0,0.0,0.0,0.0,0.0,0.0,0.0,0.0,0.0,0.0,0.0,0.0,0.0,0.0,0.0,0.0,0.0,0.0,0.9776,1.095,1.1864,1.2373,1.2373,1.23,1.1606,1.0063,0.0,0.0,0.0,0.0,0.0,0.0,0.0,0.0,0.0,0.0,0.0,0.0,0.0,0.0,0.0,0.0,0.0,0.0,0.0,0.0,0.0,0.0,0.0,0.0,0.0,0.0,0.0,0.0,0.0,0.0,0.0,0.0,0.0,0.0,0.0,0.0,0.0,0.0,0.0,0.0,0.0,0.0,0.0,0.0,0.0,0.0,0.0,0.0,0.0,0.0,0.0,0.0,0.0,0.0,0.0,0.0,0.0,0.0,0.0,0.0,0.0,0.0,0.0,0.0,0.0,0.0,0.0,0.0,0.0,0.0,0.0,0.0,0.0,0.0,0.0,0.0,0.0,0.0,0.0,0.0,0.0,0.0,0.0,0.0,0.0,0.0,0.0,0.0,0.0,0.0,0.0,0.0,0.0,0.0,0.0,0.0,0.0,0.0,0.0,0.0,0.0,0.0,0.0,0.0,1.0227,1.1315,1.2166,1.2644,1.2644,1.224,1.1453,1.031,0.0,0.0,0.0,0.0,0.0,0.0,0.0,0.0,0.0,0.0,0.0,0.0,0.0,0.0,0.0,0.0,0.0,0.0,0.0,0.0,0.0,0.0,0.0,0.0,0.0,0.0,0.0,0.0,0.0,0.0,0.0,0.0,0.0,0.0,0.0,0.0,0.0,0.0,0.0,0.0,0.0,0.0,0.0,0.0,0.0,0.0,0.0,0.0,0.0,0.0,0.0,0.0,0.0,0.0,0.0,0.0,0.0,0.0,0.0,0.0,0.0,0.0,0.0,0.0,0.0,0.0,0.0,0.0,0.0,0.0,0.0,0.0,0.0,0.0,0.0,0.0,0.0,0.0,0.0,0.0,0.0,0.0,0.0,0.0,0.0,0.0,0.0,0.0,0.0,0.0,0.0,0.0,0.0,0.0,0.0,0.0,0.0,0.0,0.0,0.0,0.0,0.0,0.0,1.0227,1.097,1.1645,1.2318,1.2705,1.2705,1.2228,1.1384,1.0149,0.9346,0.0,0.0,0.0,0.0,0.0,0.0,0.0,0.0,0.0,0.0,0.0,0.0,0.0,0.0,0.0,0.0,0.0,0.0,0.0,0.0,0.0,0.0,0.0,0.0,0.0,0.0,0.0,0.0,0.0,0.0,0.0,0.0,0.0,0.0,0.0,0.0,0.0,0.0,0.0,0.0,0.0,0.0,0.0,0.0,0.0,0.0,0.0,0.0,0.0,0.0,0.0,0.0,0.0,0.0,0.0,0.0,0.0,0.0,0.0,0.0,0.0,0.0,0.0,0.0,0.0,0.0,0.0,0.0,0.0,0.0,0.0,0.0,0.0,0.0,0.0,0.0,0.0,0.0,0.0,0.0,0.0,0.0,0.0,0.0,0.0,0.0,0.0,0.0,0.0,0.0,0.0,0.0,0.0,0.0,0.0,0.0,0.0,0.0,0.0,0.0,0.0,0.0,1.076,1.1477,1.1842,1.2391,1.2705,1.2705,1.2107,1.1176,0.9962,0.8807,0.0,0.0,0.0,0.0,0.0,0.0,0.0,0.0,0.0,0.0,0.0,0.0,0.0,0.0,0.0,0.0,0.0,0.0,0.0,0.0,0.0,0.0,0.0,0.0,0.0,0.0,0.0,0.0,0.0,0.0,0.0,0.0,0.0,0.0,0.0,0.0,0.0,0.0,0.0,0.0,0.0,0.0,0.0,0.0,0.0,0.0,0.0,0.0,0.0,0.0,0.0,0.0,0.0,0.0,0.0,0.0,0.0,0.0,0.0,0.0,0.0,0.0,0.0,0.0,0.0,0.0,0.0,0.0,0.0,0.0,0.0,0.0,0.0,0.0,0.0,0.0,0.0,0.0,0.0,0.0,0.0,0.0,0.0,0.0,0.0,0.0,0.0,0.0,0.0,0.0,0.0,0.0,0.0,0.0,0.0,0.0,0.0,0.0,0.0,0.0,0.0,0.0,1.0728,1.1336,1.182,1.2391,1.2705,1.2705,1.1763,1.0814,0.9939,0.8316,0.0,0.0,0.0,0.0,0.0,0.0,0.0,0.0,0.0,0.0,0.0,0.0,0.0,0.0,0.0,0.0,0.0,0.0,0.0,0.0,0.0,0.0,0.0,0.0,0.0,0.0,0.0,0.0,0.0,0.0,0.0,0.0,0.0,0.0,0.0,0.0,0.0,0.0,0.0,0.0,0.0,0.0,0.0,0.0,0.0,0.0,0.0,0.0,0.0,0.0,0.0,0.0,0.0,0.0,0.0,0.0,0.0,0.0,0.0,0.0,0.0,0.0,0.0,0.0,0.0,0.0,0.0,0.0,0.0,0.0,0.0,0.0,0.0,0.0,0.0,0.0,0.0,0.0,0.0,0.0,0.0,0.0,0.0,0.0,0.0,0.0,0.0,0.0,0.0,0.0,0.0,0.0,0.0,0.0,0.0,0.0,0.0,0.0,0.0,0.0,0.0,0.0,1.0985,1.1626,0.0,1.2391,1.2638,1.2475,1.1703,1.0689,0.9491,0.0,0.0,0.0,0.0,0.0,0.0,0.0,0.0,0.0,0.0,0.0,0.0,0.0,0.0,0.0,0.0,0.0,0.0,0.0,0.0,0.0,0.0,0.0,0.0,0.0,0.0,0.0,0.0,0.0,0.0,0.0,0.0,0.0,0.0,0.0,0.0,0.0,0.0,0.0,0.0,0.0,0.0,0.0,0.0,0.0,0.0,0.0,0.0,0.0,0.0,0.0,0.0,0.0,0.0,0.0,0.0,0.0,0.0,0.0,0.0,0.0,0.0,0.0,0.0,0.0,0.0,0.0,0.0,0.0,0.0,0.0,0.0,0.0,0.0,0.0,0.0,0.0,0.0,0.0,0.0,0.0,0.0,0.0,0.0,0.0,0.0,0.0,0.0,0.0,0.0,0.0,0.0,0.0,0.0,0.0,0.0,0.0,0.0,0.0,0.0,0.0,0.0,0.9907,1.0997,1.177,0.0,1.2391,1.2596,1.2337,1.1483,1.0409,0.9186,0.0,0.0,0.0,0.0,0.0,0.0,0.0,0.0,0.0,0.0,0.0,0.0,0.0,0.0,0.0,0.0,0.0,0.0,0.0,0.0,0.0,0.0,0.0,0.0,0.0,0.0,0.0,0.0,0.0,0.0,0.0,0.0,0.0,0.0,0.0,0.0,0.0,0.0,0.0,0.0,0.0,0.0,0.0,0.0,0.0,0.0,0.0,0.0,0.0,0.0,0.0,0.0,0.0,0.0,0.0,0.0,0.0,0.0,0.0,0.0,0.0,0.0,0.0,0.0,0.0,0.0,0.0,0.0,0.0,0.0,0.0,0.0,0.0,0.0,0.0,0.0,0.0,0.0,0.0,0.0,0.0,0.0,0.0,0.0,0.0,0.0,0.0,0.0,0.0,0.0,0.0,0.0,0.0,0.0,0.0,0.0,0.0,0.0,0.0,0.0,0.0,0.0,0.9503,1.0671,1.1591,1.185,1.2391,1.2596,1.2289,1.1003,0.9871,0.0,0.0,0.0,0.0,0.0,0.0,0.0,0.0,0.0,0.0,0.0,0.0,0.0,0.0,0.0,0.0,0.0,0.0,0.0,0.0,0.0,0.0,0.0,0.0,0.0,0.0,0.0,0.0,0.0,0.0,0.0,0.0,0.0,0.0,0.0,0.0,0.0,0.0,0.0,0.0,0.0,0.0,0.0,0.0,0.0,0.0,0.0,0.0,0.0,0.0,0.0,0.0,0.0,0.0,0.0,0.0,0.0,0.0,0.0,0.0,0.0,0.0,0.0,0.0,0.0,0.0,0.0,0.0,0.0,0.0,0.0,0.0,0.0,0.0,0.0,0.0,0.0,0.0,0.0,0.0,0.0,0.0,0.0,0.0,0.0,0.0,0.0,0.0,0.0,0.0,0.0,0.0,0.0,0.0,0.0,0.0,0.0,0.0,0.0,0.0,0.0,0.0,0.0,0.9933,1.088,1.1591,1.185,1.2228,1.22,1.1659,1.0835,0.9799,0.8475,0.0,0.0,0.0,0.0,0.0,0.0,0.0,0.0,0.0,0.0,0.0,0.0,0.0,0.0,0.0,0.0,0.0,0.0,0.0,0.0,0.0,0.0,0.0,0.0,0.0,0.0,0.0,0.0,0.0,0.0,0.0,0.0,0.0,0.0,0.0,0.0,0.0,0.0,0.0,0.0,0.0,0.0,0.0,0.0,0.0,0.0,0.0,0.0,0.0,0.0,0.0,0.0,0.0,0.0,0.0,0.0,0.0,0.0,0.0,0.0,0.0,0.0,0.0,0.0,0.0,0.0,0.0,0.0,0.0,0.0,0.0,0.0,0.0,0.0,0.0,0.0,0.0,0.0,0.0,0.0,0.0,0.0,0.0,0.0,0.0,0.0,0.0,0.0,0.0,0.0,0.0,0.0,0.0,0.0,0.0,0.0,0.0,0.0,0.0,0.0,0.0,0.0,0.9844,1.0851,1.1591,1.185,1.1903,1.1729,1.1335,1.0522,0.9448,0.8189,0.0,0.0,0.0,0.0,0.0,0.0,0.0,0.0,0.0,0.0,0.0,0.0,0.0,0.0,0.0,0.0,0.0,0.0,0.0,0.0,0.0,0.0,0.0,0.0,0.0,0.0,0.0,0.0,0.0,0.0,0.0,0.0,0.0,0.0,0.0,0.0,0.0,0.0,0.0,0.0,0.0,0.0,0.0,0.0,0.0,0.0,0.0,0.0,0.0,0.0,0.0,0.0,0.0,0.0,0.0,0.0,0.0,0.0,0.0,0.0,0.0,0.0,0.0,0.0,0.0,0.0,0.0,0.0,0.0,0.0,0.0,0.0,0.0,0.0,0.0,0.0,0.0,0.0,0.0,0.0,0.0,0.0,0.0,0.0,0.0,0.0,0.0,0.0,0.0,0.0,0.0,0.0,0.0,0.0,0.0,0.0,0.0,0.0,0.0,0.0,0.0,0.0,0.9412,1.0575,1.1483,1.173,1.1462,1.1215,1.1197,1.0075,0.901,0.8144,0.0,0.0,0.0,0.0,0.0,0.0,0.0,0.0,0.0,0.0,0.0,0.0,0.0,0.0,0.0,0.0,0.0,0.0,0.0,0.0,0.0,0.0,0.0,0.0,0.0,0.0,0.0,0.0,0.0,0.0,0.0,0.0,0.0,0.0,0.0,0.0,0.0,0.0,0.0,0.0,0.0,0.0,0.0,0.0,0.0,0.0,0.0,0.0,0.0,0.0,0.0,0.0,0.0,0.0,0.0,0.0,0.0,0.0,0.0,0.0,1.3145,0.0,0.0,0.0,0.0,0.0,0.0,0.0,0.0,0.0,0.0,0.0,0.0,0.0,0.0,0.0,0.0,0.0,0.0,0.0,0.0,0.0,0.0,0.0,0.0,0.0,0.0,0.0,0.0,0.0,0.0,0.0,0.0,0.0,0.0,0.0,0.0,0.0,0.0,0.0,0.0,0.0,0.9044,1.0013,1.0775,1.0871,1.0659,1.0462,1.0282,0.9759,0.8966,0.7923,0.7161,0.0,0.0,0.0,0.0,0.0,0.0,0.0,0.0,0.0,0.0,0.0,0.0,0.0,0.0,0.0,0.0,0.0,0.0,0.0,0.0,0.0,0.0,0.0,0.0,0.0,0.0,0.0,0.0,0.0,0.0,0.0,0.0,0.0,0.0,0.0,0.0,0.0,0.0,0.0,0.0,0.0,0.0,0.0,0.0,0.0,0.0,0.0,0.0,0.0,0.0,0.0,0.0,0.0,0.0,0.0,0.0,0.0,0.0,0.0,0.0,1.3929,0.0,0.0,0.0,0.0,0.0,0.0,0.0,0.0,0.0,0.0,0.0,0.0,0.0,0.0,0.0,0.0,0.0,0.0,0.0,0.0,0.0,0.0,0.0,0.0,0.0,0.0,0.0,0.0,0.0,0.0,0.0,0.0,0.0,0.0,0.0,0.0,0.0,0.0,0.0,0.0,0.9066,0.9971,1.0662,1.0751,1.0342,1.0093,0.9999,0.9508,0.8853,0.7996,0.7432,0.0,0.0,0.0,0.0,0.0,0.0,0.0,0.0,0.0,0.0,0.0,0.0,0.0,0.0,0.0,0.0,0.0,0.0,0.0,0.0,0.0,0.0,0.0,0.0,0.0,0.0,0.0,0.0,0.0,0.0,0.0,0.0,0.0,0.0,0.0,0.0,0.0,0.0,0.0,0.0,0.0,0.0,0.0,0.0,0.0,0.0,0.0,0.0,0.0,0.0,0.0,0.0,0.0,1.5741,1.6129,1.6441,1.6911,1.7114,1.7039,1.5927,1.5552,1.5598,1.4508,0.0,0.0,0.0,0.0,0.0,0.0,0.0,0.0,0.0,0.0,0.0,0.0,0.0,0.0,0.0,0.0,0.0,0.0,0.0,0.0,0.0,0.0,1.0962,1.1202,1.1359,1.1163,1.0021,0.0,0.0,0.0,0.0,0.0,0.0,0.0,0.0,0.0,0.0,0.0,0.9159,1.0013,1.0614,1.0679,1.0156,0.9836,0.9907,0.9362,0.8784,0.8222,0.783,0.7399,0.0,0.0,0.0,0.0,0.0,0.0,0.0,0.0,0.0,0.0,0.0,0.0,0.0,0.0,0.0,0.0,0.0,0.0,0.0,0.0,0.0,0.0,0.0,0.0,0.0,0.0,0.0,0.0,0.0,0.0,0.0,0.0,1.1703,1.2299,0.0,0.0,0.0,0.0,0.0,0.0,0.0,0.0,0.0,0.0,0.0,0.0,0.0,1.4691,1.5841,1.6268,1.651,1.6634,1.7381,1.762,1.7324,1.7749,1.7935,1.7944,1.776,0.0,1.5684,1.5503,0.0,0.0,0.0,0.0,0.0,0.0,0.0,0.0,0.0,0.0,0.0,0.0,0.0,0.0,0.0,0.0,0.0,0.0,0.0,0.0,0.0,0.0,1.1426,1.1462,1.1662,1.1721,1.1315,1.0893,1.0516,1.0139,0.9697,0.9193,0.0,0.0,0.0,0.0,0.0,0.0,0.8978,0.944,0.9777,0.9764,0.9533,0.9439,0.9629,0.9247,0.8907,0.8637,0.8231,0.793,0.7669,0.7057,0.0,0.0,0.0,0.0,0.0,0.0,0.0,0.0,0.0,0.0,0.0,0.0,0.0,0.0,0.0,0.0,0.0,0.0,0.0,0.0,0.0,0.0,0.0,0.0,0.0,0.0,0.0,0.0,0.0,1.1927,1.2571,1.3065,1.291,1.277,0.0,0.0,0.0,0.0,0.0,0.0,0.0,0.0,0.0,1.54,1.5409,1.5894,1.6916,1.7123,1.7362,1.7578,1.8165,1.8357,1.8192,1.8605,1.8788,1.8749,1.8276,1.7523,1.6606,1.5912,1.5042,1.4097,0.0,0.0,0.0,0.0,1.3682,1.3657,1.4463,1.4614,1.4397,1.3946,0.0,0.0,0.0,0.0,0.0,0.0,0.0,1.1853,1.1765,1.1942,1.2137,1.1972,1.2168,1.2288,1.2029,1.178,1.1386,1.0674,1.0419,1.009,0.9209,0.0,0.0,0.0,0.0,0.934,0.94,0.9722,0.9893,0.9828,0.9734,0.9667,0.9606,0.9329,0.9065,0.8897,0.8491,0.8222,0.8132,0.7645,0.722,0.0,0.0,0.0,0.0,0.0,0.0,0.0,0.0,0.0,0.0,0.0,0.0,0.0,0.0,0.0,0.0,0.0,0.0,0.0,0.0,0.0,0.0,0.0,0.0,0.0,0.0,0.0,0.0,1.2647,1.3068,1.3657,1.3635,1.3563,0.0,0.0,0.0,0.0,0.0,0.0,1.4784,1.509,1.5674,1.659,1.6619,1.6996,1.7798,1.7807,1.8018,1.8393,1.8724,1.8916,1.8996,1.9033,1.9142,1.9201,1.8288,1.7597,1.7064,1.6092,1.5211,1.438,1.3797,1.3508,1.3443,1.3843,1.4002,1.4123,1.4795,1.5044,1.4975,1.4559,1.3901,1.318,1.2582,0.0,0.0,0.0,0.0,1.2291,1.228,1.2468,1.2569,1.2431,1.256,1.265,1.2457,1.2415,1.2137,1.1208,1.1092,1.0948,1.0063,0.0,0.0,0.0,0.0,0.994,0.9898,1.0004,1.0017,1.0014,0.9994,0.9933,0.9738,0.9437,0.9216,0.907,0.8708,0.8481,0.8481,0.8132,0.7802,0.7437,0.0,0.0,0.0,0.0,0.0,0.0,0.0,0.0,0.0,0.0,0.0,0.0,0.0,0.0,0.0,0.0,0.0,0.0,0.0,0.0,0.0,0.0,0.0,0.0,0.0,0.0,0.0,0.0,0.0,1.3679,1.3392,0.0,0.0,0.0,0.0,1.4199,1.4665,1.5267,1.6135,1.6235,1.6603,1.7412,1.7439,1.7843,1.8641,1.865,1.8852,1.9246,1.9265,1.9476,1.9829,1.8859,1.8692,1.905,1.8037,1.7154,1.6337,1.6133,1.5598,1.4887,1.4811,1.4571,1.4294,1.4702,1.4819,1.4911,1.5301,1.5465,1.5404,1.4909,1.4219,1.3579,1.355,1.3389,0.0,0.0,1.2638,1.2697,1.2369,1.2323,1.2402,1.262,1.2693,1.2699,1.2687,1.2687,1.2524,1.1968,1.1633,1.1369,1.1087,0.0,1.0659,1.0605,1.0166,0.9985,1.041,0.9959,0.9724,0.9971,0.9994,0.999,0.998,0.9559,0.9277,0.9268,0.8916,0.8685,0.8685,0.8481,0.8264,0.8072,0.747,0.0,0.0,0.0,0.0,0.0,0.0,0.0,0.0,0.0,0.0,0.0,0.0,0.0,0.0,0.0,0.0,0.0,0.0,0.0,0.0,0.0,0.0,0.0,0.0,0.0,0.0,0.0,0.0,1.4502,1.4697,0.0,1.4706,1.4855,1.5119,1.5562,1.597,1.6485,1.7033,1.7318,1.7724,1.8265,1.8275,1.854,1.9091,1.9356,1.9227,1.8725,1.9038,1.8895,1.8412,1.8063,1.7965,1.8094,1.718,1.6573,1.6235,1.5648,1.5205,1.4965,1.4965,1.4894,1.4775,1.4923,1.4965,1.4979,1.5135,1.517,1.5078,1.4511,1.4022,1.3568,1.3114,1.2896,1.2765,1.2449,1.255,1.2725,1.2596,1.2566,1.2584,1.2681,1.2705,1.2705,1.2705,1.2705,1.265,1.2463,1.221,1.195,1.1679,1.1558,1.1399,1.123,1.0824,1.0578,1.0749,1.0219,0.9914,0.9985,0.9994,0.9994,0.9994,0.9563,0.9282,0.9282,0.8935,0.8703,0.8703,0.8633,0.8434,0.812,0.7769,0.722,0.0,0.0,0.0,0.0,0.0,0.0,0.0,0.0,0.0,0.0,0.0,0.0,0.0,0.0,0.0,0.0,0.0,0.0,0.0,0.0,0.0,0.0,0.0,0.0,0.0,0.0,1.4524,1.512,1.5638,1.5894,1.5838,1.6128,1.6426,1.6684,1.7195,1.7633,1.7889,1.803,1.821,1.8461,1.847,1.8492,1.8551,1.9108,1.8963,1.8153,1.8461,1.8333,1.779,1.7438,1.7366,1.7429,1.6546,1.614,1.6094,1.5524,1.5257,1.5237,1.5082,1.5008,1.5008,1.5008,1.5008,1.5008,1.5008,1.5008,1.4941,1.4509,1.4203,1.3909,1.3413,1.3174,1.3003,1.2777,1.2814,1.2958,1.2868,1.291,1.2976,1.2976,1.291,1.2843,1.2843,1.2771,1.2705,1.2705,1.2566,1.2391,1.2216,1.1846,1.1624,1.1669,1.0761,1.0191,1.0413,0.9765,0.9244,0.9244,0.9244,0.9244,0.9244,0.9056,0.8873,0.8664,0.85,0.8291,0.803,0.8181,0.8139,0.7837,0.7605,0.7077,0.6207,0.0,0.0,0.0,0.0,0.0,0.0,0.0,0.0,0.0,0.0,0.0,0.0,0.0,0.0,0.0,0.0,0.0,0.0,0.0,0.0,0.0,0.0,0.0,1.4319,1.4368,1.4678,1.5537,1.6062,1.6335,1.6366,1.7085,1.7532,1.7496,1.8237,1.8656,1.8656,1.8206,1.7957,1.7957,1.7965,1.7696,1.7122,1.7945,1.8136,1.7581,1.7589,1.7777,1.8071,1.7115,1.688,1.7185,1.6204,1.5784,1.5784,1.5784,1.5784,1.5724,1.5211,1.5035,1.5035,1.5035,1.5035,1.5035,1.5035,1.5035,1.499,1.4977,1.479,1.4604,1.4597,1.4237,1.3826,1.3592,1.3487,1.3459,1.3155,1.3326,1.3513,1.3513,1.332,1.3089,1.3077,1.2867,1.2668,1.2619,1.2613,1.2619,1.2662,1.174,1.1219,1.1837,0.9961,0.0,0.9492,0.8532,0.779,0.783,0.7834,0.779,0.783,0.808,0.8004,0.7432,0.7627,0.7433,0.6745,0.7224,0.7399,0.7286,0.7021,0.6459,0.5624,0.0,0.0,0.0,0.0,0.0,0.0,0.0,0.0,0.0,0.0,0.0,0.0,0.0,0.0,0.0,0.0,0.0,0.0,0.0,0.0,0.0,1.4274,1.4888,1.4888,1.5378,1.5951,1.6491,1.6927,1.7283,1.7583,1.8092,1.8111,1.7485,1.7891,1.7931,1.7282,1.7131,1.7066,1.7066,1.7268,1.7279,1.708,1.7853,1.7804,1.6959,1.7257,1.7053,1.6448,1.6168,1.6122,1.6204,1.592,1.5784,1.5784,1.5784,1.5784,1.5764,1.5651,1.5591,1.5591,1.5591,1.5591,1.5591,1.5591,1.5498,1.5318,1.5061,1.472,1.4366,1.4165,1.3882,1.3592,1.3513,1.3504,1.3501,1.3429,1.3459,1.3513,1.3513,1.3459,1.3171,1.2254,1.2026,1.1696,1.0824,1.0659,1.088,1.158,1.1311,1.0832,1.0318,0.9266,0.8567,0.8786,0.8221,0.8009,0.854,0.8141,0.8009,0.8536,0.8,0.7596,0.739,0.7161,0.6958,0.6926,0.7015,0.6999,0.6874,0.6407,0.6043,0.0,0.0,0.0,0.0,0.0,0.0,0.0,0.0,0.0,0.0,0.0,0.0,0.0,0.0,0.0,0.0,0.0,0.0,0.0,0.0,0.0,0.0,1.5025,1.5592,1.5592,1.6002,1.6387,1.6581,1.6954,1.7206,1.7251,1.7622,1.7641,1.7156,1.7315,1.722,1.6739,1.6329,1.6193,1.6331,1.648,1.6503,1.6396,1.7183,1.7175,1.6348,1.6584,1.6393,1.5784,1.5784,1.5784,1.5784,1.5784,1.5784,1.5784,1.5784,1.5784,1.5784,0.0,0.0,0.0,0.0,1.5784,1.5778,1.5683,1.5588,1.5466,1.5162,1.4782,1.4333,1.3748,1.3368,1.3065,1.2535,1.2439,1.2494,1.2396,1.2445,1.2516,1.2516,1.2439,1.2164,1.1413,1.116,1.0849,1.0052,0.9836,0.0,0.9971,0.9792,0.9527,0.9183,0.8093,0.7434,0.7738,0.7261,0.7092,0.7533,0.718,0.7092,0.7533,0.7218,0.0,0.0,0.0,0.6423,0.6433,0.6388,0.0,0.0,0.0,0.0,0.0,0.0,0.0,0.0,0.5041,0.5018,0.0,0.0,0.0,0.0,0.0,0.0,0.0,0.0,0.0,0.0,0.0,0.0,0.0,0.0,0.0,0.0,1.5706,1.6196,1.6242,1.6211,1.6199,1.6257,1.65,1.6519,1.6206,1.6483,1.6657,1.6576,1.6535,1.6494,1.6412,0.0,0.0,0.0,0.0,1.5648,1.5391,1.6193,1.6341,1.5784,1.5784,1.5784,1.5784,1.5784,1.5784,1.5784,1.5784,1.5784,1.5784,1.5784,1.5784,1.5784,1.5784,1.5778,1.5784,1.5784,1.5737,1.5689,1.5547,0.0,0.0,1.5124,1.479,1.4298,1.3318,1.2829,1.2297,1.1144,1.1033,1.1132,1.09,1.1033,1.1219,1.1219,1.1033,1.0787,1.051,1.0273,0.9987,0.9664,0.9405,0.9013,0.8137,0.7874,0.7874,0.8173,0.6782,0.5952,0.6605,0.6127,0.5733,0.5822,0.5733,0.0,0.5822,0.6182,0.6096,0.5438,0.5782,0.5881,0.5578,0.5582,0.5647,0.5774,0.5898,0.5732,0.5307,0.488,0.4635,0.4583,0.4733,0.4758,0.0,0.0,0.0,0.0,0.0,0.0,0.0,0.0,0.0,0.0,0.0,0.0,0.0,0.0,0.0,1.5497,1.5468,1.5522,1.5861,1.5587,1.5683,1.658,1.6244,1.6076,1.654,1.6659,1.6412,1.5718,1.5636,1.5352,1.4664,1.4644,1.4715,1.477,1.5239,1.546,1.5398,1.5765,1.5913,1.5784,0.0,0.0,1.5784,1.5784,1.5784,1.5784,1.5784,1.5784,1.5784,1.5784,1.5784,1.5784,1.5784,1.5683,1.554,1.554,1.5404,1.522,1.5178,1.5029,1.4831,1.4783,1.4004,1.3071,1.2823,1.2193,0.0,1.1171,1.1142,1.1209,1.1123,1.1142,1.1219,1.1219,1.1142,1.0817,0.9707,0.9423,0.9067,0.7853,0.7492,0.7228,0.6827,0.7177,0.7312,0.6653,0.6083,0.5733,0.5908,0.5777,0.5908,0.6517,0.6038,0.5949,0.6517,0.6048,0.5626,0.5475,0.5579,0.5583,0.5434,0.5482,0.5546,0.5571,0.5596,0.5363,0.483,0.4572,0.4247,0.3835,0.4102,0.4112,0.0,0.0,0.0,0.0,0.0,0.0,0.0,0.0,0.0,0.0,0.0,1.4831,1.4473,0.0,1.5097,1.5128,1.5007,1.4981,1.5155,1.4801,1.4773,1.5457,1.535,1.5308,1.5391,1.5394,1.5228,1.4783,1.4741,1.458,1.413,1.4362,1.4589,1.4736,1.5164,1.5464,1.5611,1.5711,1.5784,1.5784,1.5784,1.5784,1.5784,1.5784,1.5784,1.5784,1.5784,1.5784,1.5784,1.5784,1.573,1.5635,1.5635,1.5588,1.5493,1.5356,1.522,1.4981,1.4346,1.4004,1.3806,1.3173,1.249,1.1853,1.1317,1.0779,1.0293,0.9752,0.9608,0.9608,0.9608,0.9608,0.9608,0.9608,0.9608,0.9364,0.8549,0.8387,0.8151,0.7286,0.683,0.6567,0.6432,0.652,0.6435,0.5952,0.5777,0.5688,0.5688,0.5688,0.5819,0.6213,0.5908,0.5863,0.6213,0.579,0.5508,0.5508,0.5451,0.5461,0.5461,0.5534,0.5623,0.568,0.5517,0.5275,0.5003,0.441,0.4,0.3762,0.3667,0.3525,0.0,0.0,0.0,0.0,0.0,0.0,0.0,1.4005,1.4198,1.4915,1.54,1.5614,1.5207,1.5111,1.4988,1.4668,1.4494,1.441,1.4444,1.4044,1.3851,1.412,1.4398,1.4446,1.4146,1.4088,1.4088,1.4088,1.4088,1.4088,1.4088,1.4416,1.4716,1.5001,1.5297,1.5591,1.5778,1.5784,1.5784,1.5784,1.5784,1.5784,1.5784,1.5784,1.5784,1.5778,1.5588,1.5493,1.5493,1.5248,1.5003,1.486,1.4765,1.4765,1.4717,1.4736,1.4544,1.4202,1.3119,1.2732,1.2581,1.1512,1.1077,1.0734,0.985,0.946,0.9118,0.8237,0.7988,0.7988,0.7988,0.7988,0.7988,0.7988,0.7988,0.7917,0.7699,0.7641,0.756,0.7192,0.6758,0.6427,0.6382,0.6011,0.5688,0.5688,0.5688,0.5696,0.5718,0.5721,0.5731,0.5756,0.5758,0.5748,0.5723,0.5632,0.5575,0.5575,0.5551,0.5553,0.5607,0.5704,0.5799,0.5798,0.5494,0.5215,0.5025,0.4294,0.3844,0.3747,0.3206,0.3003,1.2233,1.2774,1.3468,1.4157,1.4044,1.4089,0.0,1.5475,1.5503,1.5595,1.5721,1.5661,1.5265,1.4917,1.4668,1.4593,1.4034,1.3704,1.3948,1.3565,1.3386,1.3635,1.3702,1.3837,1.4062,1.4088,1.4088,1.4088,1.4088,1.4088,1.4088,1.466,1.4975,1.5008,1.5491,1.5751,1.5784,1.5784,1.5784,1.5784,1.5784,1.5784,1.5784,1.5784,1.5784,1.5737,1.4873,1.449,1.4394,1.3167,1.2678,1.263,1.2193,1.2047,1.2145,1.3022,1.2635,1.1609,1.1463,1.1414,1.1365,1.1268,1.0538,0.9756,0.9657,0.8924,0.8137,0.8038,0.7988,0.7988,0.7988,0.7988,0.7988,0.7988,0.7988,0.7944,0.7824,0.7787,0.7644,0.7242,0.6925,0.6569,0.6344,0.5984,0.5688,0.5688,0.5688,0.5726,0.5871,0.5885,0.5926,0.6034,0.6045,0.6002,0.5893,0.5871,0.5863,0.5863,0.5953,0.601,0.6026,0.604,0.5816,0.5358,0.5417,0.503,0.4053,0.4033,0.372,0.3271,0.2469,0.2519,1.2727,1.2932,1.32,1.3549,1.3895,1.4271,1.4631,1.4815,1.4966,1.5035,1.507,1.4982,1.4508,1.4306,1.4096,1.3852,1.3546,1.3366,1.3491,1.3465,1.3467,1.3586,1.3753,1.3948,1.4075,1.4088,1.4088,1.4088,1.4088,1.4088,1.4088,1.4687,1.5008,1.5008,1.5524,1.5784,1.5784,1.5784,1.5784,1.5784,1.5784,1.5784,1.5784,1.5207,1.458,1.3938,1.3409,1.3119,1.3071,1.2339,1.1999,1.1853,1.1658,1.1121,1.0538,1.1609,1.1658,1.1121,1.0489,1.0293,1.0145,0.9558,0.9019,0.8676,0.8676,0.8333,0.7988,0.7988,0.7988,0.7988,0.7988,0.7988,0.7988,0.7988,0.7988,0.7948,0.7845,0.7666,0.7481,0.724,0.6836,0.6473,0.638,0.6108,0.5937,0.5937,0.5877,0.5874,0.5994,0.601,0.6029,0.6081,0.6086,0.6064,0.6013,0.601,0.601,0.601,0.6056,0.6119,0.6189,0.6192,0.598,0.5506,0.5205,0.4732,0.3935,0.3668,0.3179,0.2472,0.2169,0.1917,1.2561,1.2734,1.299,1.3252,1.3905,1.4486,1.4502,1.4533,1.4607,1.4716,1.4493,1.4206,1.3947,1.3712,1.3522,1.3239,1.3213,1.3154,1.2994,1.3345,1.3551,1.3376,1.3787,1.4004,1.3737,1.3955,1.4088,1.4088,1.387,1.3828,1.4088,1.4423,1.4732,1.5008,1.5245,1.5397,1.5397,1.5105,1.4956,1.4956,1.4956,1.4956,1.4908,1.419,1.3414,1.2684,1.2145,1.1901,1.1853,1.1214,1.0828,1.073,1.0636,0.9998,0.9266,1.0047,1.0342,1.0194,0.941,0.9167,0.9019,0.8237,0.7988,0.7988,0.7988,0.7988,0.7988,0.7988,0.7988,0.7988,0.7988,0.7988,0.7988,0.7988,0.7988,0.7961,0.7896,0.7631,0.7408,0.7254,0.6819,0.6462,0.6367,0.62,0.6097,0.613,0.6062,0.6037,0.6124,0.6162,0.6181,0.6181,0.6154,0.6135,0.6135,0.6135,0.6135,0.6135,0.6165,0.6222,0.6312,0.6314,0.6007,0.5384,0.4985,0.4332,0.3428,0.3078,0.2472,0.1664,0.1463,0.1009,1.1636,1.2259,1.3186,1.3968,1.4444,1.4864,1.5573,1.5393,1.508,1.5073,1.4263,1.3594,1.3835,1.3303,1.2923,1.316,1.3213,1.2987,1.2394,1.3054,1.337,1.279,1.3561,1.3737,0.0,1.3568,1.4088,1.4088,1.3264,1.3137,1.4039,1.3787,1.4044,1.4963,1.459,1.4346,1.4346,1.3312,1.2775,1.2775,1.2775,1.2775,1.2775,1.2775,1.2727,1.263,1.1365,1.0832,1.073,0.9167,0.8478,0.8482,0.8187,0.8088,0.8038,0.8088,0.8088,0.8088,0.8038,0.8038,0.8038,0.7988,0.7988,0.7988,0.7988,0.7988,0.7988,0.7988,0.7988,0.7988,0.7988,0.7988,0.7988,0.7988,0.7988,0.7988,0.7985,0.7786,0.7537,0.7229,0.6926,0.6597,0.636,0.6213,0.6127,0.6292,0.6309,0.6309,0.6311,0.6358,0.6376,0.6376,0.6328,0.6311,0.6311,0.6311,0.6311,0.6311,0.6366,0.6379,0.6381,0.6381,0.5882,0.4834,0.4784,0.3879,0.2068,0.2068,0.1613,0.0806,0.005,-0.0354,1.2133,1.2748,1.3333,1.3347,1.3797,1.4214,1.4043,1.3933,1.3736,1.3303,1.2956,1.2792,1.3096,1.2503,1.2279,1.3293,1.3035,1.2634,1.2578,1.2825,1.2687,1.1875,1.2057,0.0,0.0,0.0,0.0,1.2357,1.2534,1.2577,1.2272,1.2438,1.266,1.2979,1.3148,1.3221,1.3221,1.2877,1.2678,1.2678,1.2678,1.2339,1.1707,1.1512,1.1028,1.035,0.9562,0.9217,0.9167,0.8432,0.8137,0.8137,0.8038,0.7988,0.7988,0.7988,0.7988,0.7988,0.7988,0.7988,0.7988,0.7988,0.7988,0.7988,0.7988,0.7988,0.7988,0.7988,0.7988,0.7988,0.7988,0.7988,0.7988,0.7988,0.7988,0.7939,0.7793,0.754,0.7241,0.6992,0.6705,0.6476,0.638,0.6344,0.6333,0.6374,0.638,0.638,0.638,0.6363,0.6387,0.6387,0.6401,0.638,0.638,0.638,0.638,0.638,0.5717,0.5334,0.5334,0.463,0.3877,0.2973,0.2923,0.2368,0.121,0.121,0.0807,0.0,-0.0252,-0.0707,1.2043,1.2672,1.329,1.3109,1.348,1.3881,1.3597,1.3287,1.2855,1.2155,1.1879,1.1784,1.1847,1.1318,1.1266,1.2423,1.2149,1.1816,1.1707,1.1972,1.1843,1.0895,1.1111,1.1154,0.0,0.0,0.0,1.1408,1.1542,1.1585,1.1327,1.1449,1.165,1.2011,1.2099,1.2145,1.2145,1.176,1.1565,1.1565,1.1565,1.1224,1.0641,1.0444,0.9961,0.9183,0.8733,0.8482,0.8382,0.8088,0.7988,0.7988,0.7988,0.7988,0.7988,0.7988,0.7988,0.7988,0.7988,0.7988,0.7988,0.7988,0.7988,0.7988,0.7988,0.7988,0.7988,0.7988,0.7988,0.7988,0.7988,0.7988,0.7988,0.7988,0.7988,0.7942,0.7646,0.7391,0.7138,0.6845,0.6589,0.6387,0.6387,0.6387,0.6387,0.6387,0.6387,0.6387,0.6387,0.6387,0.6387,0.6387,0.6387,0.6387,0.6387,0.6034,0.5834,0.5834,0.4832,0.423,0.423,0.3475,0.272,0.2017,0.1915,0.1361,0.0353,0.0353,-0.005,-0.0808,-0.0808,-0.1111,1.1335,1.2102,1.2991,1.3213,1.3487,1.375,1.4067,1.3396,1.2426,1.1583,1.1057,1.0592,1.0166,0.9875,0.9951,1.0664,1.075,1.0521,0.9971,1.0679,1.0895,0.0,0.0,0.0,0.0,0.0,0.0,1.1154,0.0,1.0289,1.1106,1.077,1.09,1.1812,1.1364,1.1107,1.1107,1.0105,0.9579,0.9579,0.9579,0.9579,0.9579,0.9579,0.943,0.9183,0.8878,0.8627,0.8382,0.8088,0.7988,0.7988,0.7988,0.7988,0.7988,0.7988,0.7988,0.7988,0.7988,0.7988,0.7988,0.7988,0.7988,0.7988,0.7988,0.7988,0.7988,0.7988,0.7988,0.7988,0.7988,0.7988,0.7988,0.7988,0.7988,0.7942,0.7646,0.7391,0.7138,0.6842,0.6589,0.6387,0.6387,0.6387,0.6387,0.6387,0.6337,0.6337,0.6387,0.6387,0.6387,0.6337,0.6337,0.6287,0.6237,0.5284,0.4734,0.4734,0.3726,0.3123,0.3123,0.282,0.2368,0.1865,0.1561,0.0806,-0.0455,-0.0455,-0.0859,-0.1617,-0.1617,-0.1617,1.0961,1.1706,1.2403,1.248,1.2363,1.2196,1.2103,1.1496,1.0764,1.0213,1.0003,0.9838,0.9614,0.914,0.9124,1.0245,1.0042,0.9785,0.9885,1.0115,0.0,0.9043,0.0,0.9213,0.8955,0.913,0.0,0.0,0.9685,0.9733,0.9301,0.9257,0.9382,0.9604,0.9793,0.9851,0.9851,0.9702,0.9579,0.9579,0.9579,0.9579,0.9579,0.9175,0.8973,0.8878,0.8386,0.8187,0.8088,0.8038,0.7988,0.7988,0.7988,0.7988,0.7988,0.7988,0.7988,0.7988,0.7988,0.7988,0.7988,0.7988,0.7988,0.7988,0.7988,0.7988,0.7988,0.7988,0.7988,0.7988,0.7988,0.7988,0.7988,0.7988,0.7988,0.7889,0.7391,0.7238,0.7039,0.6589,0.6437,0.6387,0.6387,0.6387,0.6387,0.6387,0.5737,0.5484,0.6287,0.6387,0.6087,0.5286,0.5186,0.4883,0.4076,0.3776,0.3626,0.3626,0.262,0.1915,0.1713,0.0857,0.0151,-0.0353,-0.0454,-0.0757,-0.1313,-0.1313,-0.1415,-0.1617,-0.1617,-0.1617,1.0801,1.1461,1.2135,1.1756,1.167,1.1532,1.1127,1.0571,0.9878,0.9015,0.8851,0.8683,0.8087,0.781,0.7933,0.8725,0.8769,0.88,0.9154,0.9287,0.9126,0.0,0.8612,0.0,0.8612,0.8612,0.8612,0.8612,0.9043,0.913,0.8612,0.8727,0.8857,0.8938,0.9137,0.9326,0.9404,0.9535,0.9579,0.9579,0.9579,0.9579,0.9579,0.9278,0.9023,0.8775,0.8482,0.8237,0.7988,0.7988,0.7988,0.7988,0.7988,0.7988,0.7988,0.7988,0.7988,0.7988,0.7988,0.7988,0.7988,0.7988,0.7988,0.7988,0.7988,0.7988,0.7988,0.7988,0.7988,0.7988,0.7988,0.7988,0.7988,0.7988,0.7892,0.769,0.7288,0.7089,0.6889,0.6487,0.6387,0.6387,0.6387,0.6387,0.6387,0.6387,0.5484,0.5186,0.6287,0.5582,0.478,0.418,0.4079,0.3879,0.3274,0.2771,0.2519,0.2519,0.1513,0.0757,0.0504,-0.0202,-0.0758,-0.1212,-0.1314,-0.1465,-0.1617,-0.1617,-0.1617,-0.1617,-0.1617,-0.1617,1.0563,1.102,1.1628,1.0912,1.098,1.1039,1.0496,0.9917,0.9153,0.7942,0.7702,0.7375,0.6392,0.6461,0.6733,0.6988,0.7441,0.7894,0.8235,0.8344,0.836,0.8384,0.8388,0.8388,0.8388,0.852,0.8612,0.8612,0.8612,0.8612,0.8612,0.8706,0.8873,0.9056,0.906,0.9145,0.9367,0.9502,0.9592,0.9592,0.9616,0.9579,0.9579,0.9529,0.9225,0.8775,0.8726,0.8432,0.7988,0.7988,0.7988,0.7988,0.7988,0.7988,0.7988,0.7988,0.7988,0.7988,0.7988,0.7988,0.7988,0.7988,0.7988,0.7988,0.7988,0.7988,0.7988,0.7988,0.7988,0.7988,0.7988,0.7988,0.7988,0.7988,0.7793,0.7543,0.7238,0.6939,0.6692,0.6437,0.6387,0.6387,0.6387,0.6387,0.6387,0.6387,0.5484,0.5135,0.6084,0.4429,0.3274,0.3374,0.3173,0.2972,0.2972,0.2016,0.1412,0.1412,0.0505,-0.0152,-0.0455,-0.0657,-0.096,-0.1263,-0.1465,-0.1617,-0.1617,-0.1617,-0.1617,-0.1617,-0.1617,-0.1617,0.9291,0.9385,0.9743,0.942,0.9138,0.8878,0.8607,0.8005,0.735,0.6768,0.6566,0.644,0.6219,0.6323,0.6623,0.7102,0.7374,0.7707,0.8219,0.7671,0.7217,0.0,0.7363,0.7363,0.7363,0.812,0.0,0.0,0.8612,0.8612,0.8612,0.8641,0.869,0.8865,0.8869,0.8958,0.9141,0.9363,0.9453,0.9453,0.9555,0.9579,0.9579,0.9126,0.8874,0.8775,0.8333,0.8088,0.7988,0.7988,0.7988,0.7988,0.7988,0.7988,0.7988,0.7988,0.7988,0.7988,0.7988,0.7988,0.7988,0.7988,0.7988,0.7988,0.7988,0.7988,0.7988,0.7988,0.7988,0.7988,0.7988,0.7988,0.7988,0.7988,0.7793,0.7543,0.7238,0.6836,0.6437,0.6387,0.6387,0.6387,0.6387,0.6387,0.6387,0.6387,0.5484,0.4885,0.5035,0.3977,0.3525,0.4431,0.2922,0.1865,0.1865,0.0908,0.0252,0.0252,0.0101,-0.0202,-0.0707,-0.0758,-0.101,-0.1516,-0.1566,-0.1617,-0.1617,-0.1617,-0.1617,-0.1617,-0.1617,-0.1617,0.9188,0.9091,0.9217,0.8918,0.8616,0.8248,0.7668,0.7184,0.6676,0.6091,0.6006,0.5955,0.5673,0.6046,0.644,0.6518,0.6993,0.7504,0.7992,0.7711,0.7392,0.7112,0.7095,0.6918,0.6432,0.6786,0.7098,0.7098,0.7098,0.7544,0.8568,0.8653,0.8694,0.869,0.8869,0.8962,0.8954,0.9133,0.9314,0.9404,0.9441,0.9437,0.9381,0.913,0.8878,0.8581,0.8333,0.8137,0.7988,0.7988,0.7988,0.7988,0.7988,0.7988,0.7988,0.7988,0.7988,0.7988,0.7988,0.7988,0.7988,0.7988,0.7988,0.7988,0.7988,0.7988,0.7988,0.7988,0.7988,0.7988,0.7988,0.7988,0.7988,0.7988,0.769,0.7291,0.6886,0.6587,0.6387,0.6387,0.6387,0.6387,0.6387,0.6387,0.6387,0.6387,0.5484,0.4985,0.5584,0.3725,0.2771,0.3879,0.3022,0.2217,0.1664,0.111,0.0606,0.0051,-0.0152,-0.0404,-0.0808,-0.0909,-0.1212,-0.1617,-0.1617,-0.1617,-0.1617,-0.1617,-0.1617,-0.1617,-0.1617,-0.1617,0.9242,0.9032,0.9072,0.8725,0.8451,0.8044,0.7251,0.6814,0.6404,0.5743,0.5697,0.5644,0.5218,0.5746,0.6176,0.5973,0.6566,0.7216,0.7735,0.7712,0.7518,0.7146,0.6918,0.0,0.5764,0.5719,0.0,0.5719,0.5719,0.6476,0.8168,0.8605,0.8706,0.8616,0.884,0.8913,0.8767,0.8946,0.9108,0.929,0.9367,0.9332,0.9133,0.9114,0.8832,0.8382,0.8333,0.8187,0.7988,0.7988,0.7988,0.7988,0.7988,0.7988,0.7988,0.7988,0.7988,0.7988,0.7988,0.7988,0.7988,0.7988,0.7988,0.7988,0.7988,0.7988,0.7988,0.7988,0.7988,0.7988,0.7988,0.7988,0.7988,0.7839,0.7487,0.7039,0.6537,0.6387,0.6387,0.6387,0.6387,0.6387,0.6387,0.6387,0.6387,0.6387,0.5484,0.5085,0.5937,0.3674,0.2267,0.3123,0.2771,0.2267,0.1664,0.1412,0.0908,0.0051,-0.0253,-0.0505,-0.0808,-0.1061,-0.1314,-0.1617,-0.1617,-0.1617,-0.1617,-0.1617,-0.1617,-0.1617,-0.1617,-0.1617,0.8865,0.8593,0.8717,0.8473,0.8125,0.776,0.7359,0.6745,0.6125,0.5689,0.547,0.5333,0.5281,0.5494,0.5753,0.604,0.6298,0.679,0.7682,0.7006,0.6606,0.7045,0.0,0.0,0.5719,0.5719,0.5719,0.5719,0.5719,0.6163,0.7183,0.8136,0.8629,0.8612,0.8645,0.8653,0.8637,0.8759,0.8852,0.8873,0.9245,0.9268,0.9003,0.8909,0.868,0.8382,0.8137,0.8038,0.7988,0.7988,0.7988,0.7988,0.7988,0.7988,0.7988,0.7988,0.7988,0.7988,0.7988,0.7988,0.7988,0.7988,0.7988,0.7988,0.7988,0.7988,0.7988,0.7988,0.7988,0.7988,0.7988,0.7988,0.7889,0.7388,0.7238,0.7039,0.6537,0.6387,0.6387,0.6387,0.6387,0.6387,0.6387,0.6387,0.6387,0.6387,0.5484,0.4834,0.4935,0.3827,0.3073,0.3173,0.1462,0.0656,0.1513,0.0707,0.0101,0.0,-0.0253,-0.0505,-0.0808,-0.1061,-0.1314,-0.1617,-0.1617,-0.1617,-0.1617,-0.1617,-0.1617,-0.1617,-0.1617,-0.1617,0.9196,0.876,0.8479,0.825,0.7864,0.7353,0.6874,0.6374,0.5918,0.5502,0.5345,0.5265,0.5183,0.5421,0.5657,0.5769,0.6063,0.6526,0.7216,0.706,0.6606,0.6005,0.5694,0.5112,0.0,0.0,0.4032,0.4032,0.452,0.501,0.5408,0.634,0.6874,0.6874,0.7408,0.7408,0.6874,0.8049,0.8356,0.7727,0.8555,0.8823,0.8501,0.8557,0.8432,0.8137,0.8038,0.7988,0.7988,0.7988,0.7988,0.7988,0.7988,0.7988,0.7988,0.7988,0.7988,0.7988,0.7988,0.7988,0.7988,0.7988,0.7988,0.7988,0.7988,0.7988,0.7988,0.7988,0.7988,0.7988,0.7988,0.7988,0.7889,0.7338,0.7188,0.7039,0.6537,0.6387,0.6387,0.6387,0.6387,0.6187,0.5536,0.5436,0.5233,0.4578,0.4128,0.3827,0.3827,0.2922,0.2217,0.2217,0.2066,0.1815,0.1613,0.121,0.0707,0.0051,-0.0404,-0.0707,-0.0808,-0.1212,-0.1516,-0.1617,-0.1617,-0.1617,-0.1617,-0.1617,-0.1617,-0.1617,-0.1617,-0.1617,0.9482,0.9015,0.8548,0.8275,0.7734,0.7154,0.6564,0.617,0.577,0.5329,0.5261,0.5272,0.5117,0.5332,0.5523,0.5604,0.5898,0.6326,0.698,0.7143,0.6805,0.5806,0.0,0.4834,0.3416,0.3041,0.292,0.292,0.3497,0.39,0.39,0.452,0.5142,0.5675,0.634,0.6384,0.5719,0.7007,0.7279,0.6524,0.73,0.7547,0.7222,0.7407,0.7291,0.7033,0.7033,0.7235,0.7487,0.7185,0.7434,0.7988,0.7637,0.7736,0.7988,0.7988,0.7988,0.7988,0.7988,0.7789,0.7587,0.7889,0.7789,0.7587,0.7889,0.7988,0.7988,0.7988,0.7988,0.7988,0.7988,0.7939,0.7789,0.7288,0.7138,0.6939,0.6487,0.6137,0.6037,0.6337,0.5884,0.5331,0.4885,0.4533,0.4079,0.3324,0.2922,0.272,0.272,0.1815,0.111,0.111,0.1815,0.1966,0.1211,0.111,0.0807,0.0051,-0.0505,-0.0808,-0.0808,-0.1314,-0.1617,-0.1617,-0.1617,-0.1617,-0.1617,-0.1617,-0.1617,-0.1617,-0.1617,-0.1622,0.9581,0.9265,0.8981,0.85,0.784,0.7155,0.6636,0.6172,0.5734,0.522,0.5199,0.5272,0.5117,0.5203,0.5357,0.5555,0.577,0.6201,0.7062,0.7187,0.7114,0.0,0.5969,0.5064,0.4249,0.3412,0.292,0.292,0.292,0.0,0.292,0.292,0.3765,0.563,0.5719,0.5719,0.5719,0.5539,0.5447,0.5406,0.5383,0.5215,0.4937,0.5135,0.5087,0.4824,0.4824,0.5427,0.6334,0.5277,0.6079,0.7889,0.6836,0.7089,0.7988,0.7988,0.7988,0.7988,0.7988,0.7288,0.6587,0.7637,0.7288,0.6637,0.769,0.7988,0.7988,0.7988,0.7988,0.7988,0.7988,0.7793,0.7543,0.7288,0.6992,0.6742,0.6437,0.5584,0.5135,0.6187,0.4678,0.3575,0.4634,0.3929,0.3224,0.3224,0.2318,0.1613,0.1613,0.0656,0.0,0.0,0.0051,0.0051,0.0,0.0,0.0,0.0,-0.0505,-0.0808,-0.0808,-0.1314,-0.1617,-0.1617,-0.1617,-0.1617,-0.1617,-0.1617,-0.1617,-0.1617,-0.1617,-0.1633,0.9688,0.9287,0.8999,0.8509,0.7846,0.7157,0.6629,0.6198,0.5734,0.522,0.5199,0.5281,0.5252,0.5261,0.5462,0.5939,0.6057,0.6129,0.6154,0.6287,0.0,0.4801,0.4083,0.3595,0.0,0.0,0.292,0.292,0.292,0.2829,0.2649,0.2649,0.2962,0.3765,0.4387,0.4342,0.3539,0.4783,0.4914,0.3894,0.4654,0.4886,0.4705,0.4844,0.4888,0.4824,0.4824,0.4974,0.5277,0.4924,0.5225,0.5777,0.5427,0.5527,0.5827,0.5827,0.5827,0.5827,0.5827,0.5577,0.5377,0.5727,0.5577,0.5377,0.5727,0.683,0.7839,0.7138,0.6886,0.6886,0.6886,0.7241,0.7341,0.6329,0.5879,0.5432,0.4429,0.3927,0.3827,0.4126,0.3676,0.3073,0.267,0.2318,0.1865,0.111,0.0706,0.0505,0.0505,0.0202,0.0,0.0,0.0,0.0,0.0,0.0,0.0,0.0,-0.0505,-0.0808,-0.0808,-0.1314,-0.1617,-0.1617,-0.1617,-0.1617,-0.1617,-0.1617,-0.1617,-0.1617,-0.1617,-0.1643,0.9708,0.9355,0.9036,0.8528,0.7965,0.7344,0.6653,0.6314,0.5938,0.5231,0.5199,0.5297,0.5297,0.5297,0.5478,0.6004,0.6082,0.6,0.5728,0.5801,0.0,0.3832,0.3097,0.0,0.0,0.2649,0.2649,0.2649,0.2649,0.2558,0.2379,0.2379,0.2469,0.2649,0.3184,0.3138,0.2379,0.3491,0.358,0.269,0.3308,0.3516,0.3426,0.3514,0.3584,0.3574,0.3574,0.3823,0.0,0.3775,0.4074,0.4774,0.4375,0.4423,0.4824,0.4824,0.4824,0.4824,0.4824,0.4524,0.4275,0.4674,0.4824,0.4824,0.4824,0.5727,0.6631,0.5979,0.5729,0.5629,0.5629,0.5882,0.5879,0.5024,0.4626,0.4227,0.3374,0.2871,0.272,0.3123,0.2569,0.1915,0.1664,0.1261,0.0757,0.0101,0.0,0.0,0.0,0.0,0.0,0.0,0.0,0.0,0.0,0.0,0.0,0.0,-0.0404,-0.0707,-0.0808,-0.1212,-0.1516,-0.1617,-0.1617,-0.1617,-0.1617,-0.1617,-0.1617,-0.1617,-0.1617,-0.1648,0.0,0.9366,0.9017,0.85,0.8126,0.7658,0.6697,0.6497,0.0,0.5285,0.5199,0.5305,0.5313,0.5317,0.5466,0.5868,0.5906,0.5799,0.5661,0.5551,0.0,0.0,0.2874,0.2371,0.2239,0.2199,0.2199,0.2199,0.2199,0.2199,0.2154,0.2154,0.2154,0.2154,0.2154,0.2154,0.2154,0.193,0.1794,0.1749,0.1525,0.142,0.1523,0.1477,0.1558,0.1613,0.1615,0.217,0.3022,0.2019,0.2772,0.4474,0.3473,0.3674,0.4574,0.4574,0.4574,0.4574,0.4574,0.3924,0.3274,0.4225,0.4574,0.4574,0.4574,0.4624,0.4674,0.4674,0.4472,0.427,0.427,0.392,0.3569,0.3521,0.3271,0.3073,0.2972,0.2167,0.1765,0.2771,0.1361,0.0303,0.1311,0.0656,0.0,0.0,0.0,0.0,0.0,0.0,0.0,0.0,0.0,0.0,0.0,0.0,0.0,0.0,-0.0253,-0.0505,-0.0808,-0.1061,-0.1314,-0.1617,-0.1617,-0.1617,-0.1617,-0.1617,-0.1617,-0.1617,-0.1619,-0.165,0.8423,0.0,0.8626,0.8132,0.7913,0.7586,0.0,0.6455,0.6243,0.5285,0.5199,0.5337,0.5498,0.5523,0.5684,0.6213,0.584,0.537,0.4992,0.4042,0.0,0.2934,0.283,0.2679,0.2467,0.2424,0.2379,0.2199,0.2199,0.2109,0.1885,0.1885,0.1794,0.1615,0.157,0.1705,0.1885,0.1839,0.1705,0.148,0.1436,0.1455,0.1492,0.1515,0.1547,0.1583,0.1607,0.1768,0.1969,0.1718,0.1919,0.2321,0.207,0.2119,0.2371,0.2371,0.2371,0.2371,0.2371,0.217,0.2019,0.227,0.2371,0.2371,0.2371,0.2923,0.3574,0.3574,0.3371,0.3169,0.3169,0.337,0.3369,0.2565,0.2165,0.1765,0.0908,0.0555,0.0454,0.0707,0.0353,0.0101,0.0353,0.0151,0.0,0.0,0.0,0.0,0.0,0.0,0.0,0.0,0.0,0.0,0.0,0.0,0.0,0.0,-0.0253,-0.0505,-0.0808,-0.1061,-0.1314,-0.1617,-0.1617,-0.1617,-0.1617,-0.1617,-0.1617,-0.1618,-0.1641,-0.1671,0.7618,0.8094,0.8464,0.8337,0.8384,0.815,0.703,0.678,0.6459,0.5321,0.5199,0.5353,0.5551,0.5262,0.5188,0.5741,0.5108,0.4407,0.4071,0.0,0.2639,0.2401,0.2493,0.2424,0.0,0.1974,0.193,0.1839,0.1839,0.1749,0.1615,0.1615,0.157,0.1391,0.1391,0.148,0.1615,0.1615,0.1525,0.1391,0.1391,0.1451,0.1481,0.1498,0.153,0.1622,0.1589,0.1604,0.1617,0.1617,0.1617,0.1617,0.1617,0.1617,0.1617,0.1617,0.1617,0.1617,0.1617,0.1617,0.1617,0.1617,0.1617,0.1617,0.1617,0.2019,0.2421,0.232,0.2067,0.1865,0.1714,0.1813,0.1813,0.1209,0.0958,0.0707,0.0101,0.0,0.0,0.0,0.0,0.0,0.0,0.0,0.0,0.0,0.0,0.0,0.0,0.0,0.0,0.0,0.0,0.0,0.0,0.0,0.0,0.0,-0.0152,-0.0354,-0.0606,-0.0859,-0.1212,-0.1617,-0.1617,-0.1617,-0.1617,-0.1617,-0.1617,-0.1618,-0.1648,-0.1677,0.7318,0.773,0.8237,0.8472,0.8784,0.8699,0.7402,0.7074,0.6698,0.5476,0.53,0.5402,0.5453,0.4883,0.4525,0.4921,0.4094,0.3313,0.304,0.2802,0.2494,0.2074,0.2146,0.0,0.1525,0.148,0.1436,0.1391,0.1391,0.1391,0.1391,0.1391,0.1391,0.1391,0.1391,0.1391,0.1391,0.1391,0.1391,0.1391,0.1391,0.1449,0.1474,0.1483,0.1515,0.1565,0.1575,0.1593,0.1617,0.1617,0.1617,0.1617,0.1617,0.1617,0.1617,0.1617,0.1617,0.1617,0.1617,0.1617,0.1617,0.1617,0.1617,0.1617,0.1617,0.1566,0.1465,0.1212,0.096,0.0758,0.0455,0.0202,0.0,0.0,0.0,0.0,0.0,0.0,0.0,0.0,0.0,0.0,0.0,0.0,0.0,0.0,0.0,0.0,0.0,0.0,0.0,0.0,0.0,0.0,0.0,0.0,0.0,0.0,0.0,-0.0152,-0.0455,-0.0707,-0.1111,-0.1566,-0.1617,-0.1617,-0.1617,-0.1617,-0.1617,-0.1618,-0.1652,-0.1786,0.8118,0.777,0.7145,0.7253,0.7822,0.8043,0.6875,0.6683,0.6577,0.5914,0.5787,0.5615,0.503,0.4871,0.4619,0.4119,0.3422,0.2807,0.2259,0.2136,0.2125,0.2072,0.2166,0.2064,0.1749,0.1749,0.166,0.1436,0.1391,0.1391,0.1391,0.1391,0.1391,0.1391,0.1391,0.1391,0.1391,0.1391,0.1391,0.1391,0.1391,0.1393,0.1399,0.1495,0.1524,0.1536,0.1588,0.1613,0.1617,0.1617,0.1617,0.1617,0.1617,0.1617,0.1617,0.1617,0.1617,0.1617,0.1617,0.1617,0.1617,0.1617,0.1617,0.1617,0.1617,0.1465,0.1212,0.096,0.0808,0.0758,0.0455,0.0202,0.0,0.0,0.0,0.0,0.0,0.0,0.0,0.0,0.0,0.0,0.0,0.0,0.0,0.0,0.0,0.0,0.0,0.0,0.0,0.0,0.0,0.0,0.0,0.0,0.0,0.0,0.0,-0.0202,-0.0707,-0.101,-0.1263,-0.1617,-0.1617,-0.1617,-0.1617,-0.1617,-0.1617,-0.1618,-0.1672,-0.2231,0.7933,0.7672,0.7176,0.6984,0.7512,0.7837,0.6836,0.6292,0.5921,0.5669,0.5363,0.5095,0.488,0.4474,0.3764,0.2569,0.2387,0.2246,0.1857,0.194,0.2019,0.191,0.1949,0.1885,0.1615,0.157,0.1525,0.1391,0.1391,0.1391,0.1391,0.1391,0.1391,0.1391,0.1391,0.1391,0.1391,0.1391,0.1391,0.1391,0.1391,0.1391,0.1391,0.1418,0.1448,0.148,0.1555,0.1586,0.1617,0.1617,0.1617,0.1617,0.1617,0.1617,0.1617,0.1617,0.1617,0.1617,0.1617,0.1617,0.1617,0.1617,0.1516,0.1364,0.1364,0.1212,0.0909,0.0657,0.0606,0.0505,0.0253,0.0101,0.0,0.0,0.0,0.0,0.0,0.0,0.0,0.0,0.0,0.0,0.0,0.0,0.0,0.0,0.0,0.0,0.0,0.0,0.0,0.0,0.0,0.0,0.0,0.0,0.0,0.0,0.0,-0.0152,-0.0556,-0.0859,-0.1111,-0.1364,-0.1516,-0.1617,-0.1617,-0.1617,-0.1617,-0.1618,-0.1677,-0.2342,0.7729,0.7538,0.7185,0.6893,0.7318,0.7581,0.6843,0.5884,0.523,0.5312,0.4791,0.433,0.4386,0.3655,0.267,0.1487,0.1614,0.179,0.1573,0.178,0.1862,0.1662,0.1688,0.1615,0.1436,0.1391,0.1391,0.1391,0.1391,0.1391,0.1391,0.1391,0.1391,0.1391,0.1391,0.1391,0.1391,0.1391,0.1391,0.1391,0.1391,0.1391,0.1391,0.1397,0.1471,0.1516,0.153,0.1563,0.1607,0.1614,0.1617,0.1617,0.1617,0.1617,0.1617,0.1617,0.1617,0.1617,0.1617,0.1617,0.1566,0.1516,0.1364,0.1212,0.1111,0.0909,0.0657,0.0455,0.0354,0.0253,0.0051,0.0,0.0,0.0,0.0,0.0,0.0,0.0,0.0,0.0,0.0,0.0,0.0,0.0,0.0,0.0,0.0,0.0,0.0,0.0,0.0,0.0,0.0,0.0,0.0,0.0,0.0,0.0,0.0,-0.0101,-0.0404,-0.0657,-0.0909,-0.1212,-0.1465,-0.1617,-0.1617,-0.1617,-0.1617,-0.1618,-0.193,-0.2756,0.7999,0.7345,0.6504,0.6609,0.6908,0.7048,0.6625,0.5489,0.4672,0.505,0.4404,0.3585,0.3038,0.2295,0.1687,0.1573,0.1465,0.1365,0.1419,0.1365,0.1371,0.1425,0.1434,0.1436,0.1391,0.1391,0.1391,0.1391,0.1391,0.1391,0.1391,0.1391,0.1391,0.1391,0.1391,0.1391,0.1391,0.1391,0.1391,0.1391,0.1391,0.1391,0.1391,0.1465,0.148,0.1487,0.1543,0.162,0.1577,0.1605,0.1617,0.1617,0.1617,0.1617,0.1617,0.1617,0.1617,0.1617,0.1617,0.1617,0.1566,0.1314,0.1212,0.1162,0.0909,0.0657,0.0404,0.0404,0.0202,0.0,0.0,0.0,0.0,0.0,0.0,0.0,0.0,0.0,0.0,0.0,0.0,0.0,0.0,0.0,0.0,0.0,0.0,0.0,0.0,0.0,0.0,0.0,0.0,0.0,0.0,0.0,0.0,0.0,0.0,-0.0101,-0.0404,-0.0657,-0.0909,-0.1212,-0.1465,-0.1617,-0.1617,-0.1617,-0.1617,-0.1618,-0.2676,-0.3873,0.7551,0.7187,0.6674,0.6471,0.6406,0.6179,0.533,0.457,0.4092,0.4158,0.3537,0.2924,0.2881,0.207,0.1466,0.1582,0.1442,0.1302,0.1384,0.1381,0.1389,0.1385,0.1391,0.1391,0.1391,0.1391,0.1391,0.1391,0.1391,0.1391,0.1391,0.1391,0.1391,0.1391,0.1391,0.1391,0.1391,0.1391,0.1391,0.1391,0.1391,0.1391,0.1391,0.1447,0.1463,0.1482,0.1505,0.1584,0.1622,0.1584,0.16,0.1617,0.1617,0.1617,0.1617,0.1617,0.1617,0.1566,0.1415,0.1364,0.1314,0.1061,0.0859,0.0707,0.0606,0.0354,0.0152,0.0152,0.0101,0.0,0.0,0.0,0.0,0.0,0.0,0.0,0.0,0.0,0.0,0.0,0.0,0.0,0.0,0.0,0.0,0.0,0.0,0.0,0.0,0.0,0.0,0.0,0.0,0.0,0.0,0.0,0.0,0.0,0.0,-0.0051,-0.0152,-0.0556,-0.0859,-0.096,-0.1364,-0.1617,-0.1617,-0.1617,-0.1919,-0.2623,-0.3082,-0.4387,0.6981,0.6747,0.6436,0.6067,0.585,0.5401,0.425,0.3802,0.3597,0.3377,0.2793,0.2356,0.245,0.193,0.1501,0.1606,0.1428,0.1333,0.1371,0.1377,0.1391,0.1386,0.1391,0.1391,0.1391,0.1391,0.1391,0.1391,0.1391,0.1391,0.1391,0.1391,0.1391,0.1391,0.1391,0.1391,0.1391,0.1391,0.1391,0.1391,0.1391,0.1391,0.1391,0.1391,0.1446,0.1467,0.1476,0.1504,0.1592,0.1613,0.159,0.1617,0.1617,0.1617,0.1617,0.1617,0.1566,0.1465,0.1263,0.1162,0.101,0.0758,0.0556,0.0404,0.0303,0.0152,0.0,0.0,0.0,0.0,0.0,0.0,0.0,0.0,0.0,0.0,0.0,0.0,0.0,0.0,0.0,0.0,0.0,0.0,0.0,0.0,0.0,0.0,0.0,0.0,0.0,0.0,0.0,0.0,0.0,0.0,0.0,0.0,0.0,0.0,0.0,-0.0505,-0.0808,-0.0808,-0.1666,-0.1919,-0.1617,-0.1919,-0.2471,-0.3225,-0.3571,-0.488,0.6369,0.5952,0.5639,0.537,0.5206,0.4781,0.3578,0.3311,0.3213,0.2862,0.2314,0.1795,0.156,0.1701,0.1847,0.1651,0.1415,0.1279,0.1298,0.1305,0.1327,0.1383,0.139,0.139,0.1389,0.1389,0.1389,0.1389,0.1389,0.139,0.139,0.1391,0.1391,0.1391,0.1391,0.1391,0.1391,0.1391,0.1391,0.1391,0.1391,0.1391,0.1391,0.1391,0.1391,0.1392,0.1467,0.148,0.1485,0.1595,0.159,0.1617,0.1617,0.1617,0.1617,0.1617,0.1415,0.1212,0.1212,0.101,0.0758,0.0505,0.0404,0.0354,0.0101,0.0,0.0,0.0,0.0,0.0,0.0,0.0,0.0,0.0,0.0,0.0,0.0,0.0,0.0,0.0,0.0,0.0,0.0,0.0,0.0,0.0,0.0,-0.0051,0.0,0.0,0.0,0.0,0.0,0.0,0.0,0.0,0.0,0.0,0.0,0.0,0.0,-0.0505,-0.0808,-0.0808,-0.2369,-0.2672,-0.1617,-0.2671,-0.3224,-0.3274,-0.4325,-0.5586,0.635,0.5991,0.5725,0.4922,0.4948,0.4813,0.3412,0.3159,0.2971,0.2134,0.1666,0.1459,0.1552,0.1465,0.1434,0.1563,0.145,0.1099,0.0544,0.0926,0.11,0.0556,0.0986,0.1115,0.0557,0.0471,0.0471,0.0471,0.0478,0.0745,0.136,0.1379,0.1391,0.1391,0.1391,0.1391,0.1391,0.1391,0.1391,0.1391,0.1391,0.1391,0.1391,0.1391,0.1391,0.1391,0.1399,0.1461,0.1485,0.1595,0.159,0.1617,0.1617,0.1617,0.1617,0.1617,0.1566,0.1465,0.1263,0.101,0.0758,0.0505,0.0253,0.0101,0.0,0.0,0.0,0.0,0.0,0.0,0.0,0.0,0.0,0.0,0.0,0.0,0.0,0.0,0.0,0.0,0.0,0.0,0.0,-0.0606,-0.0858,-0.0101,-0.1261,-0.1966,-0.121,-0.111,-0.111,-0.111,-0.0454,-0.0303,-0.1059,-0.0454,0.0,0.0,0.0,0.0,0.0,-0.0354,-0.0606,-0.0808,-0.2218,-0.2871,-0.2723,-0.3823,-0.4726,-0.5482,-0.5782,-0.6664,0.615,0.579,0.5467,0.4781,0.4639,0.4287,0.2954,0.2588,0.2322,0.1641,0.1398,0.139,0.145,0.1398,0.128,0.0998,0.0882,0.0606,0.0124,0.0207,0.025,0.0126,0.0546,0.0504,-0.0336,-0.0084,-0.0042,-0.0378,-0.0425,-0.0043,0.0825,0.0879,0.1023,0.139,0.1391,0.1391,0.1391,0.1391,0.1391,0.1391,0.1391,0.1391,0.1391,0.1391,0.1391,0.1391,0.1391,0.1453,0.1485,0.1534,0.1571,0.16,0.1612,0.1617,0.1617,0.1617,0.1516,0.1415,0.1263,0.101,0.0758,0.0505,0.0303,0.0152,0.0051,0.0,0.0,0.0,0.0,0.0,0.0,0.0,0.0,0.0,0.0,0.0,0.0,0.0,-0.0101,-0.0555,-0.0656,-0.0757,-0.1211,-0.1815,-0.2016,-0.1361,-0.2368,-0.2972,-0.2318,-0.2217,-0.2217,-0.2217,-0.1664,-0.1513,-0.2167,-0.1664,-0.1261,-0.1261,-0.1261,-0.1261,-0.1261,-0.111,-0.1161,-0.1412,-0.3171,-0.3974,-0.3823,-0.4926,-0.5782,-0.6387,-0.6387,-0.7175,0.5902,0.5491,0.5052,0.4785,0.4151,0.3323,0.2327,0.1772,0.1441,0.1328,0.1454,0.1533,0.1335,0.1375,0.1139,0.0157,-0.0078,-0.0158,-0.0202,-0.0809,-0.0938,-0.0208,-0.0083,-0.0376,-0.1253,-0.0584,-0.0459,-0.1253,-0.1339,-0.0929,-0.0086,0.0043,0.0481,0.1251,0.1341,0.1387,0.1391,0.1391,0.1391,0.1391,0.1391,0.1391,0.1391,0.1391,0.1391,0.1391,0.1391,0.1453,0.1483,0.1513,0.1544,0.1624,0.1605,0.1617,0.1617,0.1617,0.1465,0.1212,0.1212,0.1061,0.0758,0.0505,0.0404,0.0303,0.0051,0.0,0.0,0.0,0.0,0.0,0.0,-0.0051,-0.0151,-0.0151,-0.0151,-0.0151,-0.0151,-0.0202,-0.0555,-0.1563,-0.1765,-0.2066,-0.3022,-0.3274,-0.3374,-0.3473,-0.3425,-0.3324,-0.3324,-0.3324,-0.3324,-0.3324,-0.3274,-0.3224,-0.3324,-0.3274,-0.3224,-0.3224,-0.3224,-0.3224,-0.3224,-0.252,-0.2267,-0.2516,-0.4774,-0.5627,-0.4924,-0.6032,-0.6537,-0.6537,-0.6537,-0.7223,0.6235,0.5701,0.5049,0.4231,0.3041,0.2069,0.2031,0.1592,0.1236,0.1474,0.1454,0.1335,0.1296,0.0785,0.0274,0.0039,-0.0587,-0.1256,-0.1855,-0.1579,-0.1424,-0.187,-0.1393,-0.1313,-0.215,-0.2071,-0.2031,-0.219,-0.2225,-0.1843,-0.0947,-0.0251,0.0171,0.0393,0.105,0.1411,0.139,0.1391,0.1391,0.1391,0.1391,0.1391,0.1391,0.1391,0.1391,0.1391,0.1391,0.1453,0.1483,0.1513,0.1544,0.1624,0.1605,0.1617,0.1617,0.1617,0.1566,0.1516,0.1516,0.1212,0.0808,0.0758,0.0404,0.0051,0.0,0.0,0.0,0.0,0.0,0.0,0.0,-0.0606,-0.1261,-0.1261,-0.1261,-0.1261,-0.1261,-0.1915,-0.2569,-0.2821,-0.2871,-0.2922,-0.3173,-0.3879,-0.4732,-0.5582,-0.4981,-0.4431,-0.4431,-0.4431,-0.4431,-0.4431,-0.3726,-0.3525,-0.4381,-0.3676,-0.3224,-0.3224,-0.3224,-0.3224,-0.3224,-0.3022,-0.3172,-0.3623,-0.4974,-0.5827,-0.6082,-0.7135,-0.7637,-0.7637,-0.7637,-0.7885,0.5818,0.5604,0.523,0.4275,0.2888,0.1768,0.1845,0.1628,0.1424,0.1501,0.1226,0.0929,0.0822,0.0196,-0.047,-0.1097,-0.1568,-0.2038,-0.2431,-0.2508,-0.2507,-0.2511,-0.2117,-0.2195,-0.3059,-0.2744,-0.2668,-0.3096,-0.313,-0.2726,-0.1864,-0.1394,-0.0751,0.0085,0.0561,0.0961,0.1413,0.1383,0.1391,0.1391,0.1391,0.1391,0.1391,0.1391,0.1391,0.1391,0.1391,0.1399,0.1463,0.1508,0.1536,0.1554,0.1599,0.1617,0.1617,0.1617,0.1617,0.1566,0.1465,0.1212,0.096,0.0707,0.0404,0.0152,0.0051,0.0,-0.0101,-0.0606,-0.0757,-0.0908,-0.1412,-0.1966,-0.2368,-0.2368,-0.2368,-0.2368,-0.2368,-0.2821,-0.3374,-0.3879,-0.3977,-0.4128,-0.463,-0.5183,-0.5734,-0.6337,-0.5937,-0.5584,-0.5584,-0.5584,-0.5584,-0.5584,-0.5081,-0.4981,-0.5536,-0.5031,-0.473,-0.473,-0.473,-0.473,-0.473,-0.473,-0.4678,-0.4576,-0.5777,-0.6581,-0.6989,-0.769,-0.7988,-0.7988,-0.7988,-0.8123,0.5288,0.5281,0.507,0.437,0.3031,0.1896,0.18,0.1741,0.1648,0.1549,0.1072,0.0605,0.0424,-0.0193,-0.1085,-0.2181,-0.2495,-0.2616,-0.2704,-0.3331,-0.3528,-0.2824,-0.2705,-0.3018,-0.3724,-0.3137,-0.302,-0.3763,-0.3802,-0.3476,-0.2779,-0.2579,-0.1833,-0.0375,-0.0043,0.0432,0.1173,0.1331,0.1391,0.1391,0.1391,0.1391,0.1391,0.1391,0.1391,0.1391,0.1391,0.1391,0.1395,0.1495,0.1521,0.1484,0.1587,0.1612,0.1617,0.1617,0.1566,0.1516,0.1263,0.1162,0.101,0.0556,0.0354,0.0303,0.0051,0.0,-0.0202,-0.1311,-0.1613,-0.1865,-0.2922,-0.3324,-0.3475,-0.3475,-0.3626,-0.3725,-0.3525,-0.3626,-0.4028,-0.4885,-0.5085,-0.5336,-0.6237,-0.6387,-0.6387,-0.6387,-0.6387,-0.6387,-0.6387,-0.6387,-0.6387,-0.6387,-0.6387,-0.6387,-0.6387,-0.6387,-0.6387,-0.6387,-0.6387,-0.6387,-0.6387,-0.6387,-0.6084,-0.5482,-0.6634,-0.7341,-0.7596,-0.7892,-0.7988,-0.7988,-0.7988,-0.8109,0.5501,0.4641,0.3784,0.385,0.2881,0.1954,0.2096,0.1861,0.1705,0.2033,0.144,0.0843,0.0809,-0.0258,-0.1297,-0.1816,-0.2546,-0.3179,-0.3558,-0.3724,-0.3763,-0.3645,-0.3645,-0.3684,-0.3802,-0.3684,-0.3684,-0.3802,-0.3802,-0.3769,-0.3622,-0.2915,-0.2389,-0.2157,-0.0708,0.017,0.026,0.102,0.1391,0.1391,0.1391,0.1391,0.1391,0.1391,0.1391,0.1391,0.1391,0.1391,0.1393,0.1472,0.1502,0.153,0.1564,0.1594,0.1617,0.1617,0.1465,0.1263,0.1212,0.0909,0.0505,0.0404,0.0253,0.0051,0.0,0.0,-0.0202,-0.1311,-0.1613,-0.1865,-0.2922,-0.3879,-0.4582,-0.4582,-0.5284,-0.5734,-0.4782,-0.5334,-0.6034,-0.6137,-0.6187,-0.6237,-0.6387,-0.6387,-0.6387,-0.6387,-0.6387,-0.6387,-0.6387,-0.6387,-0.6387,-0.6387,-0.6387,-0.6387,-0.6387,-0.6387,-0.6387,-0.6387,-0.6387,-0.6387,-0.6387,-0.6387,-0.6437,-0.6592,-0.6989,-0.7341,-0.7596,-0.7892,-0.7988,-0.7988,-0.7988,-0.8002,0.5513,0.4563,0.3601,0.3972,0.3028,0.2013,0.2045,0.1961,0.192,0.201,0.1314,0.0633,0.0434,-0.0655,-0.1756,-0.2365,-0.2811,-0.3228,-0.3643,-0.3769,-0.3802,-0.3802,-0.3802,-0.3802,-0.3802,-0.3802,-0.3802,-0.3802,-0.3802,-0.3802,-0.3802,-0.345,-0.2796,-0.1869,-0.1058,-0.0167,0.0768,0.1177,0.1418,0.1391,0.1391,0.1391,0.1391,0.1391,0.1391,0.1391,0.1391,0.1391,0.1393,0.1468,0.1489,0.1506,0.1553,0.1579,0.1594,0.1611,0.1415,0.1162,0.101,0.0707,0.0354,0.0202,0.0101,0.0,0.0,-0.0404,-0.111,-0.2217,-0.2922,-0.3626,-0.4728,-0.5331,-0.5687,-0.5687,-0.6034,-0.6287,-0.5787,-0.6084,-0.6387,-0.6387,-0.6387,-0.6387,-0.6387,-0.6387,-0.6387,-0.6387,-0.6387,-0.6387,-0.6387,-0.6387,-0.6387,-0.6387,-0.6387,-0.6387,-0.6387,-0.6387,-0.6387,-0.6387,-0.6387,-0.6387,-0.6387,-0.6387,-0.6539,-0.6795,-0.7039,-0.7341,-0.7596,-0.7892,-0.7988,-0.7988,-0.7988,-0.7988,0.5335,0.449,0.3602,0.399,0.3198,0.2274,0.2039,0.2052,0.2098,0.2011,0.1176,0.0408,0.0177,-0.0821,-0.1898,-0.2704,-0.286,-0.3057,-0.3545,-0.3685,-0.3775,-0.38,-0.3802,-0.3802,-0.3802,-0.3802,-0.3802,-0.3802,-0.3802,-0.3802,-0.3802,-0.3802,-0.3134,-0.1646,-0.1324,-0.0491,0.0959,0.1243,0.1401,0.1379,0.1387,0.1391,0.1391,0.1391,0.1391,0.1391,0.1391,0.1391,0.1392,0.1459,0.1474,0.1486,0.1539,0.1564,0.1575,0.1505,0.1314,0.1061,0.0808,0.0505,0.0253,0.0051,0.0,-0.0051,-0.0303,-0.0958,-0.1865,-0.3224,-0.418,-0.5035,-0.6134,-0.6387,-0.6387,-0.6387,-0.6387,-0.6387,-0.6387,-0.6387,-0.6387,-0.6387,-0.6387,-0.6387,-0.6387,-0.6387,-0.6387,-0.6387,-0.6387,-0.6387,-0.6387,-0.6387,-0.6387,-0.6387,-0.6387,-0.6387,-0.6387,-0.6387,-0.6387,-0.6387,-0.6387,-0.6387,-0.6387,-0.6387,-0.6539,-0.6795,-0.7039,-0.7341,-0.7596,-0.7892,-0.7988,-0.7988,-0.7988,-0.7988,0.4886,0.4279,0.3504,0.3542,0.3239,0.2822,0.2307,0.2185,0.2183,0.2186,0.1277,0.0505,0.0472,-0.0405,-0.1396,-0.2205,-0.2322,-0.2651,-0.3491,-0.3592,-0.3665,-0.3791,-0.3802,-0.3802,-0.3802,-0.3802,-0.3802,-0.3802,-0.3802,-0.3802,-0.3802,-0.3802,-0.3372,-0.247,-0.1644,-0.0812,0.0041,0.0935,0.1391,0.1393,0.1422,0.1391,0.1391,0.1391,0.1391,0.1391,0.1391,0.1391,0.1391,0.1392,0.1455,0.1484,0.1516,0.1546,0.1575,0.1304,0.1061,0.0758,0.0505,0.0253,0.0,0.0,0.0,-0.0202,-0.121,-0.1563,-0.2016,-0.413,-0.4734,-0.5035,-0.6134,-0.6387,-0.6387,-0.6387,-0.6387,-0.6387,-0.6387,-0.6387,-0.6387,-0.6387,-0.6387,-0.6387,-0.6387,-0.6387,-0.6387,-0.6387,-0.6387,-0.6387,-0.6387,-0.6387,-0.6387,-0.6387,-0.6387,-0.6387,-0.6387,-0.6387,-0.6387,-0.6387,-0.6387,-0.6387,-0.6387,-0.6387,-0.6539,-0.6795,-0.7039,-0.7341,-0.7596,-0.7892,-0.7988,-0.7988,-0.7988,-0.7988,0.4665,0.4164,0.3584,0.3407,0.3069,0.2633,0.2181,0.2099,0.2128,0.2128,0.1527,0.0902,0.0492,-0.0398,-0.1281,-0.1773,-0.2116,-0.247,-0.3015,-0.3362,-0.3558,-0.3591,-0.3595,-0.3595,-0.3595,-0.3642,-0.3675,-0.3675,-0.3769,-0.3802,-0.3802,-0.3802,-0.3175,-0.1763,-0.1937,-0.1359,0.0,0.088,0.1372,0.139,0.1401,0.1416,0.1391,0.1391,0.1391,0.1391,0.1391,0.1391,0.1391,0.1391,0.1397,0.1455,0.1485,0.141,0.1281,0.1226,0.0943,0.0547,0.0453,0.0202,0.0,0.0,-0.0454,-0.111,-0.1462,-0.2569,-0.3827,-0.4582,-0.5286,-0.5934,-0.6287,-0.6387,-0.6387,-0.6387,-0.6387,-0.6387,-0.6387,-0.6387,-0.6387,-0.6387,-0.6387,-0.6387,-0.6387,-0.6387,-0.6387,-0.6387,-0.6387,-0.6387,-0.6387,-0.6387,-0.6387,-0.6387,-0.6387,-0.6387,-0.6387,-0.6387,-0.6387,-0.6387,-0.6387,-0.6387,-0.6387,-0.6387,-0.6539,-0.6795,-0.7039,-0.7341,-0.7596,-0.7892,-0.7988,-0.7988,-0.7988,-0.7988,0.4389,0.4063,0.373,0.349,0.3077,0.2635,0.2362,0.2174,0.2045,0.2087,0.1681,0.1166,0.0777,-0.0131,-0.0964,-0.151,-0.1982,-0.2394,-0.2762,-0.3201,-0.3465,-0.3497,-0.3499,-0.3499,-0.3499,-0.355,-0.3583,-0.3583,-0.3667,-0.3716,-0.3716,-0.3785,-0.3175,-0.1763,-0.196,-0.1579,-0.0441,0.0164,0.0628,0.0935,0.0949,0.1138,0.1421,0.1386,0.1391,0.1391,0.1391,0.1391,0.1391,0.1391,0.1345,0.1303,0.1331,0.1203,0.0976,0.0961,0.0683,0.0393,0.0299,-0.01,-0.0555,-0.0555,-0.1261,-0.2217,-0.2569,-0.3676,-0.4885,-0.5236,-0.5837,-0.6387,-0.6387,-0.6387,-0.6387,-0.6387,-0.6387,-0.6387,-0.6387,-0.6387,-0.6387,-0.6387,-0.6387,-0.6387,-0.6387,-0.6387,-0.6387,-0.6387,-0.6387,-0.6387,-0.6387,-0.6387,-0.6387,-0.6387,-0.6387,-0.6387,-0.6387,-0.6387,-0.6387,-0.6387,-0.6387,-0.6387,-0.6387,-0.6387,-0.6487,-0.6642,-0.7039,-0.7288,-0.7444,-0.7839,-0.7988,-0.7988,-0.7988,-0.7988,0.0,0.0,0.0,0.0,0.3308,0.2914,0.2895,0.2395,0.194,0.2064,0.1677,0.1329,0.1295,0.0515,-0.0455,-0.1404,-0.1915,-0.2307,-0.2717,-0.3112,-0.3393,-0.3481,-0.3491,-0.3491,-0.3491,-0.3495,-0.3495,-0.3495,-0.3575,-0.3584,-0.3584,-0.371,-0.337,-0.2549,-0.1724,-0.1293,-0.1332,-0.1243,-0.0811,-0.0041,0.0042,0.052,0.1347,0.1376,0.139,0.1391,0.1391,0.1391,0.1391,0.1391,0.1256,0.1078,0.1101,0.097,0.0741,0.0473,0.0386,0.0294,0.0049,-0.0744,-0.1662,-0.1662,-0.2367,-0.3425,-0.4481,-0.4834,-0.5085,-0.6087,-0.6387,-0.6387,-0.6387,-0.6387,-0.6387,-0.6387,-0.6387,-0.6387,-0.6387,-0.6387,-0.6387,-0.6387,-0.6387,-0.6387,-0.6387,-0.6387,-0.6387,-0.6387,-0.6387,-0.6387,-0.6387,-0.6387,-0.6387,-0.6387,-0.6387,-0.6387,-0.6387,-0.6387,-0.6387,-0.6387,-0.6387,-0.6387,-0.6387,-0.6387,-0.6387,-0.6437,-0.6936,-0.7188,-0.7238,-0.7739,-0.7988,-0.7988,-0.7988,-0.7988,0.4413,0.0,0.0,0.0,0.0,0.0,0.2598,0.2354,0.2204,0.1995,0.1823,0.1638,0.1344,0.1081,0.0661,-0.0033,-0.1075,-0.191,-0.2304,-0.2686,-0.2999,-0.3265,-0.3267,-0.3267,-0.3267,-0.3362,-0.3437,-0.3437,-0.3485,-0.3534,-0.3534,-0.3052,-0.3003,-0.3409,-0.2037,-0.1568,-0.2156,-0.1578,-0.1118,-0.0853,-0.0247,0.0168,0.0478,0.1092,0.1414,0.1391,0.1391,0.1391,0.1391,0.1256,0.1166,0.1077,0.0903,0.0678,0.0499,0.0417,-0.014,-0.0894,-0.1003,-0.17,-0.2616,-0.2616,-0.3387,-0.4431,-0.4734,-0.5334,-0.6037,-0.6337,-0.6387,-0.6387,-0.6387,-0.6387,-0.6387,-0.6387,-0.6387,-0.6387,-0.6387,-0.6387,-0.6387,-0.6387,-0.6387,-0.6387,-0.6387,-0.6387,-0.6387,-0.6387,-0.6387,-0.6387,-0.6387,-0.6387,-0.6387,-0.6387,-0.6387,-0.6387,-0.6387,-0.6387,-0.6387,-0.6387,-0.6387,-0.6387,-0.6387,-0.6387,-0.6487,-0.6692,-0.7039,-0.7288,-0.7494,-0.7839,-0.7988,-0.7988,-0.7988,-0.7988,0.0,0.0,0.0,0.0,0.0,0.0,0.2818,0.2479,0.2198,0.1961,0.1932,0.1872,0.1607,0.1399,0.1161,0.0792,-0.0095,-0.0895,-0.1382,-0.1701,-0.2115,-0.272,-0.2817,-0.294,-0.3249,-0.3366,-0.3399,-0.3399,-0.3449,-0.346,-0.3497,-0.3133,-0.3157,-0.3703,-0.2806,-0.2586,-0.302,-0.2586,-0.2131,-0.1722,-0.1305,-0.0668,0.0129,0.0611,0.0798,0.0807,0.0807,0.0538,0.0045,-0.0134,0.0,0.0313,-0.0269,-0.0672,-0.0987,-0.0999,-0.1421,-0.2033,-0.2011,-0.2711,-0.3631,-0.3709,-0.4487,-0.5433,-0.5472,-0.5884,-0.6387,-0.6387,-0.6387,-0.6387,-0.6387,-0.6387,-0.6387,-0.6387,-0.6387,-0.6387,-0.6387,-0.6387,-0.6387,-0.6387,-0.6387,-0.6387,-0.6387,-0.6387,-0.6387,-0.6387,-0.6387,-0.6387,-0.6387,-0.6387,-0.6387,-0.6387,-0.6387,-0.6387,-0.6387,-0.6387,-0.6387,-0.6387,-0.6387,-0.6387,-0.6387,-0.6387,-0.6487,-0.6639,-0.6989,-0.7391,-0.7743,-0.7942,-0.7988,-0.7988,-0.7988,-0.7988,0.0,0.0,0.0,0.0,0.0,0.0,0.3307,0.2768,0.2209,0.2011,0.2015,0.2041,0.2011,0.167,0.1402,0.1341,0.0954,0.0438,-0.0257,-0.0591,-0.1066,-0.1936,-0.2122,-0.2406,-0.3081,-0.3231,-0.3272,-0.3272,-0.3334,-0.3434,-0.3481,-0.3556,-0.3568,-0.3586,-0.3705,-0.3791,-0.3802,-0.3802,-0.3411,-0.263,-0.2616,-0.1753,-0.021,-0.0175,-0.0134,-0.0134,-0.0134,-0.0762,-0.1835,-0.2103,-0.17,-0.0984,-0.1835,-0.2463,-0.2911,-0.2911,-0.2944,-0.3033,-0.3033,-0.3773,-0.4656,-0.4798,-0.5521,-0.629,-0.6401,-0.6387,-0.6387,-0.6387,-0.6387,-0.6387,-0.6387,-0.6387,-0.6387,-0.6387,-0.6387,-0.6387,-0.6387,-0.6387,-0.6387,-0.6387,-0.6387,-0.6387,-0.6387,-0.6387,-0.6387,-0.6387,-0.6484,-0.6587,-0.6587,-0.6684,-0.6734,-0.6734,-0.6634,-0.6634,-0.6734,-0.6634,-0.6634,-0.6734,-0.6734,-0.6734,-0.6734,-0.6734,-0.6734,-0.6637,-0.7135,-0.7736,-0.8333,-0.8233,-0.8187,-0.8184,-0.8287,-0.8283,0.0,0.0,0.0,0.0,0.0,0.0,0.3439,0.3262,0.3058,0.2499,0.2351,0.2397,0.2656,0.2369,0.2112,0.2083,0.1919,0.1344,0.0032,-0.0348,-0.0632,-0.11,-0.1265,-0.1367,-0.1468,-0.207,-0.242,-0.242,-0.3048,-0.3406,-0.3424,-0.3441,-0.3481,-0.3584,-0.3642,-0.3689,-0.3802,-0.3802,-0.3724,-0.3528,-0.285,-0.235,-0.2056,-0.1356,-0.1084,-0.1119,-0.1119,-0.1387,-0.1879,-0.2639,-0.2638,-0.2189,-0.2596,-0.2822,-0.2911,-0.2911,-0.3368,-0.4008,-0.4008,-0.4745,-0.5632,-0.5795,-0.6043,-0.629,-0.6401,-0.6387,-0.6387,-0.6387,-0.6387,-0.6387,-0.6387,-0.6387,-0.6387,-0.6387,-0.6387,-0.6387,-0.6387,-0.6387,-0.6387,-0.6387,-0.6387,-0.6387,-0.6387,-0.6387,-0.6387,-0.6387,-0.7129,-0.7677,-0.7677,-0.8418,-0.8962,-0.8962,-0.8219,-0.8021,-0.8913,-0.817,-0.8071,-0.8913,-0.8962,-0.8962,-0.8962,-0.8962,-0.8669,-0.8035,-0.8524,-0.941,-1.0587,-0.9706,-0.9266,-0.9312,-1.0145,-1.0096,0.0,0.0,0.0,0.4887,0.0,0.0,0.0,0.3529,0.3283,0.2884,0.2652,0.2602,0.2939,0.2828,0.2741,0.2843,0.2539,0.203,0.1291,0.0947,0.0485,-0.023,-0.0405,-0.0655,-0.1049,-0.147,-0.1855,-0.2183,-0.259,-0.2983,-0.3367,-0.3443,-0.345,-0.3493,-0.3579,-0.3648,-0.3695,-0.3779,-0.3802,-0.3804,-0.3373,-0.2988,-0.2518,-0.2155,-0.203,-0.2072,-0.2226,-0.2727,-0.3443,-0.4069,-0.4204,-0.4113,-0.4117,-0.4208,-0.43,-0.43,-0.4612,-0.5015,-0.5015,-0.5365,-0.5839,-0.5956,-0.6078,-0.62,-0.6317,-0.6391,-0.6387,-0.6387,-0.6387,-0.6387,-0.6387,-0.6387,-0.6387,-0.6387,-0.6387,-0.6387,-0.6387,-0.6387,-0.6387,-0.6387,-0.6387,-0.6387,-0.6387,-0.6387,-0.6587,-0.7132,-0.7673,-0.817,-0.8715,-0.9258,-0.9608,-0.9608,-0.911,-0.9011,-0.9558,-0.911,-0.9011,-0.9558,-0.9608,-0.9608,-0.9608,-0.9608,-0.9558,-0.941,-0.9801,-1.0391,-1.1219,-1.117,-1.0877,-1.0391,-1.0925,-1.0925,0.0,0.0,0.0,0.0,0.0,0.4631,0.0,0.0,0.0,0.334,0.3058,0.2928,0.3235,0.3198,0.319,0.34,0.2956,0.2592,0.2609,0.2237,0.1622,0.0596,0.0375,0.0,-0.07,-0.0923,-0.1292,-0.195,-0.2156,-0.2528,-0.3155,-0.3363,-0.3448,-0.3426,-0.3528,-0.3572,-0.3588,-0.3716,-0.3802,-0.3804,-0.3838,-0.3476,-0.276,-0.2866,-0.297,-0.3083,-0.3354,-0.4055,-0.5099,-0.5327,-0.5508,-0.5688,-0.5508,-0.5552,-0.5688,-0.5688,-0.5688,-0.5688,-0.5688,-0.5688,-0.5707,-0.5866,-0.6002,-0.614,-0.6287,-0.6347,-0.6387,-0.6387,-0.6387,-0.6387,-0.6387,-0.6387,-0.6387,-0.6387,-0.6387,-0.6387,-0.6387,-0.6387,-0.6387,-0.6387,-0.6387,-0.6387,-0.6387,-0.6387,-0.6783,-0.7822,-0.817,-0.8715,-0.9752,-1.01,-1.0199,-1.0199,-1.0051,-1.0002,-1.0199,-1.0051,-1.0002,-1.0199,-1.0199,-1.0199,-1.0199,-1.0047,-1.0342,-1.1077,-1.1072,-1.1317,-1.1809,-1.2635,-1.2484,-1.1512,-1.1707,-1.1707,0.0,0.0,0.0,0.0,0.5063,0.5136,0.0,0.0,0.4372,0.4052,0.0,0.0,0.3937,0.0,0.0,0.3478,0.3185,0.2954,0.2953,0.2584,0.2026,0.1186,0.1047,0.0955,0.0839,0.0137,-0.0582,-0.1264,-0.2029,-0.2463,-0.241,-0.3054,-0.3447,-0.3483,-0.3503,-0.355,-0.3586,-0.3716,-0.3802,-0.3802,-0.3812,-0.378,-0.3737,-0.3757,-0.3974,-0.4294,-0.4348,-0.4752,-0.5371,-0.5371,-0.5508,-0.5688,-0.5688,-0.5688,-0.5688,-0.5688,-0.5688,-0.5688,-0.5688,-0.5688,-0.5707,-0.5866,-0.6059,-0.6298,-0.6314,-0.6347,-0.6387,-0.6387,-0.6387,-0.6387,-0.6387,-0.6387,-0.6387,-0.6387,-0.6387,-0.6387,-0.6387,-0.6387,-0.6387,-0.6387,-0.6387,-0.6387,-0.6387,-0.6387,-0.6783,-0.7822,-0.8814,-0.9801,-1.0877,-1.1868,-1.2419,-1.2419,-1.157,-1.1419,-1.2365,-1.157,-1.1424,-1.2365,-1.2419,-1.2419,-1.2419,-1.1765,-1.2058,-1.3491,-1.2592,-1.2732,-1.3956,-1.4052,-1.3559,-1.2533,-1.3511,-1.3414,0.0,0.0,0.0,0.0,0.0,0.0,0.4477,0.4266,0.415,0.4164,0.0,0.0,0.0,0.0,0.0,0.0,0.3767,0.0,0.3208,0.2759,0.2261,0.1767,0.1383,0.1113,0.1066,0.0738,0.024,-0.05,-0.1293,-0.1706,-0.1679,-0.2793,-0.322,-0.2704,-0.3218,-0.3518,-0.3552,-0.364,-0.371,-0.3802,-0.3802,-0.3822,-0.3861,-0.3875,-0.4063,-0.4351,-0.4594,-0.4928,-0.5321,-0.5479,-0.5644,-0.5688,-0.5688,-0.5688,-0.5688,-0.5688,-0.5688,-0.5688,-0.5688,-0.5688,-0.5707,-0.5866,-0.5972,-0.6083,-0.6273,-0.6301,-0.6352,-0.6368,-0.6387,-0.6387,-0.6387,-0.6387,-0.6387,-0.6387,-0.6387,-0.6387,-0.6387,-0.6387,-0.6387,-0.6387,-0.6387,-0.6387,-0.6387,-0.693,-0.7677,-0.8764,-0.9846,-1.093,-1.197,-1.2511,-1.2861,-1.2958,-1.2559,-1.2554,-1.3147,-1.2802,-1.2651,-1.2953,-1.2953,-1.305,-1.3201,-1.3044,-1.3238,-1.3883,-1.3619,-1.3757,-1.4298,-1.4298,-1.4052,-1.3661,-1.41,-1.4052,0.5282,0.5304,0.5198,0.4722,0.4577,0.4532,0.4445,0.4186,0.4052,0.4251,0.4087,0.0,0.0,0.0,0.0,0.0,0.0,0.3854,0.0,0.3108,0.2522,0.1946,0.1437,0.1067,0.0992,0.1007,0.0815,0.0243,-0.0514,-0.1035,-0.1185,-0.2466,-0.2986,-0.2486,-0.3128,-0.3499,-0.3499,-0.3583,-0.3673,-0.3802,-0.3802,-0.3802,-0.3804,-0.3912,-0.4078,-0.4315,-0.4781,-0.5089,-0.5297,-0.5593,-0.5688,-0.5688,-0.5688,-0.5688,-0.5688,-0.5688,-0.5688,-0.5688,-0.5688,-0.5688,-0.5702,-0.5831,-0.5877,-0.5942,-0.6154,-0.6289,-0.6293,-0.6404,-0.6387,-0.6387,-0.6387,-0.6387,-0.6387,-0.6387,-0.6387,-0.6387,-0.6387,-0.6387,-0.6387,-0.6387,-0.6387,-0.6387,-0.6387,-0.703,-0.8024,-0.941,-1.0243,-1.1272,-1.271,-1.2856,-1.2958,-1.3195,-1.3195,-1.3292,-1.3491,-1.3491,-1.3443,-1.3195,-1.3195,-1.3346,-1.3593,-1.3786,-1.3931,-1.4027,-1.4208,-1.4298,-1.4298,-1.4298,-1.4298,-1.4298,-1.4298,-1.4298,0.3871,0.4061,0.4107,0.4347,0.4547,0.461,0.4291,0.4353,0.4491,0.4501,0.4479,0.4491,0.0,0.0,0.0,0.0,0.0,0.0,0.0,0.0,0.0,0.0,0.1079,0.09,0.0902,0.0903,0.0925,0.0956,0.0155,-0.0578,-0.1152,-0.1976,-0.2733,-0.3332,-0.3452,-0.3499,-0.3499,-0.3583,-0.3673,-0.3802,-0.3802,-0.3802,-0.3802,-0.4003,-0.4293,-0.4591,-0.4945,-0.5228,-0.5516,-0.564,-0.5688,-0.5688,-0.5688,-0.5688,-0.5688,-0.5688,-0.5688,-0.5688,-0.5688,-0.5688,-0.5688,-0.5694,-0.5814,-0.5926,-0.6053,-0.6173,-0.6293,-0.6404,-0.6387,-0.6387,-0.6387,-0.6387,-0.6387,-0.6387,-0.6387,-0.6387,-0.6387,-0.6387,-0.6387,-0.6387,-0.6387,-0.6387,-0.6387,-0.6434,-0.7179,-0.9262,-0.9608,-1.0493,-1.2802,-1.3098,-1.3195,-1.3443,-1.3491,-1.3491,-1.3491,-1.3491,-1.3491,-1.3491,-1.3491,-1.3588,-1.3883,-1.3883,-1.4022,-1.4298,-1.4298,-1.4298,-1.4298,-1.4298,-1.4298,-1.4298,-1.4298,-1.4298,0.3067,0.3151,0.3227,0.3638,0.3693,0.3711,0.3993,0.4042,0.407,0.4149,0.4242,0.4294,0.0,0.0,0.0,0.0,0.0,0.0,0.0,0.0,0.0,0.0,0.0,0.0,0.1431,0.1099,0.0917,0.0982,0.0272,-0.0031,0.0314,-0.1399,-0.2247,-0.1939,-0.2973,-0.3499,-0.3499,-0.3528,-0.3587,-0.3673,-0.3773,-0.3882,-0.3999,-0.4079,-0.4291,-0.4683,-0.4877,-0.5154,-0.5439,-0.5518,-0.5615,-0.5688,-0.5688,-0.5688,-0.5688,-0.5688,-0.5688,-0.5688,-0.5688,-0.5688,-0.5688,-0.5688,-0.5715,-0.5812,-0.5928,-0.6051,-0.6173,-0.6293,-0.638,-0.6387,-0.6387,-0.6387,-0.6387,-0.6387,-0.6387,-0.6387,-0.6387,-0.6387,-0.6387,-0.6387,-0.6539,-0.6642,-0.6642,-0.7378,-0.8414,-0.9653,-1.0641,-1.1727,-1.3195,-1.3346,-1.3491,-1.3738,-1.3738,-1.3829,-1.4016,-1.3877,-1.3829,-1.4016,-1.3877,-1.3877,-1.416,-1.416,-1.4208,-1.4298,-1.4298,-1.4298,-1.4298,-1.4298,-1.4298,-1.4298,-1.4298,-1.4298,0.2319,0.2374,0.2494,0.2975,0.2978,0.3035,0.3564,0.367,0.3689,0.3758,0.4062,0.418,0.3736,0.0,0.0,0.0,0.0,0.0,0.0,0.3422,0.0,0.0,0.0,0.0,0.0,0.1398,0.1134,0.0964,0.053,0.04,0.0677,-0.0985,-0.1866,-0.1613,-0.2802,-0.3467,-0.3499,-0.3499,-0.3542,-0.359,-0.3797,-0.396,-0.4118,-0.4235,-0.4467,-0.4706,-0.4901,-0.5137,-0.5421,-0.5456,-0.5578,-0.5688,-0.5688,-0.5688,-0.5688,-0.5688,-0.5688,-0.5688,-0.5688,-0.5688,-0.5688,-0.5688,-0.5688,-0.571,-0.5869,-0.5958,-0.6045,-0.6168,-0.6287,-0.6377,-0.6377,-0.6407,-0.6387,-0.6387,-0.6387,-0.6387,-0.6387,-0.6387,-0.6387,-0.6387,-0.6639,-0.6795,-0.6795,-0.7975,-0.9205,-0.9998,-1.1179,-1.2414,-1.3491,-1.3636,-1.3732,-1.4022,-1.4022,-1.4112,-1.4298,-1.416,-1.4112,-1.4298,-1.416,-1.4112,-1.4298,-1.4298,-1.4298,-1.4298,-1.4298,-1.4298,-1.4298,-1.4298,-1.4298,-1.4298,-1.4298,-1.4298]},{"header":{"parameterUnit":"m.s-1","parameterCategory":1,"la1":30.6,"la2":29.2853,"lo1":-89.7004,"lo2":-87.6739,"dy":0.0162,"dx":0.0183,"nx":112,"ny":82,"refTime":"2025-08-07T12:00:00:Z","depth":0,"parameterNumber":3,"parameterNumberName":"V-component_of_WINDS"},"data":[0.0,0.0,0.0,0.0,0.0,0.0,0.0,0.0,0.0,0.0,0.0,0.0,0.0,0.0,0.0,0.0,0.0,0.0,0.0,0.0,0.0,0.0,0.0,0.0,0.0,0.0,0.0,0.0,0.0,0.0,0.0,0.0,0.0,0.0,0.0,0.0,0.0,0.0,0.0,0.0,0.0,0.0,0.0,0.0,0.0,0.0,0.0,0.0,0.0,0.0,0.0,0.0,0.0,0.0,0.0,0.0,0.0,0.0,0.0,0.0,0.0,0.0,0.0,0.0,0.0,0.0,0.0,0.0,0.0,0.0,0.0,0.0,0.0,0.0,0.0,0.0,0.0,0.0,0.0,0.0,0.0,0.0,0.0,0.0,0.0,0.0,0.0,0.0,0.0,0.0,2.8094,3.18,3.5718,3.8079,3.8079,3.7856,3.572,3.1087,0.0,0.0,0.0,0.0,0.0,0.0,0.0,0.0,0.0,0.0,0.0,0.0,0.0,0.0,0.0,0.0,0.0,0.0,0.0,0.0,0.0,0.0,0.0,0.0,0.0,0.0,0.0,0.0,0.0,0.0,0.0,0.0,0.0,0.0,0.0,0.0,0.0,0.0,0.0,0.0,0.0,0.0,0.0,0.0,0.0,0.0,0.0,0.0,0.0,0.0,0.0,0.0,0.0,0.0,0.0,0.0,0.0,0.0,0.0,0.0,0.0,0.0,0.0,0.0,0.0,0.0,0.0,0.0,0.0,0.0,0.0,0.0,0.0,0.0,0.0,0.0,0.0,0.0,0.0,0.0,0.0,0.0,0.0,0.0,0.0,0.0,0.0,0.0,0.0,0.0,0.0,0.0,0.0,0.0,0.0,0.0,0.0,0.0,0.0,0.0,0.0,0.0,0.0,0.0,2.868,3.4315,3.7304,3.8915,3.8915,3.7671,3.538,3.1849,0.0,0.0,0.0,0.0,0.0,0.0,0.0,0.0,0.0,0.0,0.0,0.0,0.0,0.0,0.0,0.0,0.0,0.0,0.0,0.0,0.0,0.0,0.0,0.0,0.0,0.0,0.0,0.0,0.0,0.0,0.0,0.0,0.0,0.0,0.0,0.0,0.0,0.0,0.0,0.0,0.0,0.0,0.0,0.0,0.0,0.0,0.0,0.0,0.0,0.0,0.0,0.0,0.0,0.0,0.0,0.0,0.0,0.0,0.0,0.0,0.0,0.0,0.0,0.0,0.0,0.0,0.0,0.0,0.0,0.0,0.0,0.0,0.0,0.0,0.0,0.0,0.0,0.0,0.0,0.0,0.0,0.0,0.0,0.0,0.0,0.0,0.0,0.0,0.0,0.0,0.0,0.0,0.0,0.0,0.0,0.0,0.0,0.0,0.0,0.0,0.0,0.0,0.0,2.868,3.1525,3.5708,3.7912,3.9101,3.9101,3.7634,3.5299,3.2065,3.0331,0.0,0.0,0.0,0.0,0.0,0.0,0.0,0.0,0.0,0.0,0.0,0.0,0.0,0.0,0.0,0.0,0.0,0.0,0.0,0.0,0.0,0.0,0.0,0.0,0.0,0.0,0.0,0.0,0.0,0.0,0.0,0.0,0.0,0.0,0.0,0.0,0.0,0.0,0.0,0.0,0.0,0.0,0.0,0.0,0.0,0.0,0.0,0.0,0.0,0.0,0.0,0.0,0.0,0.0,0.0,0.0,0.0,0.0,0.0,0.0,0.0,0.0,0.0,0.0,0.0,0.0,0.0,0.0,0.0,0.0,0.0,0.0,0.0,0.0,0.0,0.0,0.0,0.0,0.0,0.0,0.0,0.0,0.0,0.0,0.0,0.0,0.0,0.0,0.0,0.0,0.0,0.0,0.0,0.0,0.0,0.0,0.0,0.0,0.0,0.0,0.0,0.0,3.1927,3.4055,3.6445,3.8135,3.9101,3.9101,3.7262,3.4915,3.2083,2.9148,0.0,0.0,0.0,0.0,0.0,0.0,0.0,0.0,0.0,0.0,0.0,0.0,0.0,0.0,0.0,0.0,0.0,0.0,0.0,0.0,0.0,0.0,0.0,0.0,0.0,0.0,0.0,0.0,0.0,0.0,0.0,0.0,0.0,0.0,0.0,0.0,0.0,0.0,0.0,0.0,0.0,0.0,0.0,0.0,0.0,0.0,0.0,0.0,0.0,0.0,0.0,0.0,0.0,0.0,0.0,0.0,0.0,0.0,0.0,0.0,0.0,0.0,0.0,0.0,0.0,0.0,0.0,0.0,0.0,0.0,0.0,0.0,0.0,0.0,0.0,0.0,0.0,0.0,0.0,0.0,0.0,0.0,0.0,0.0,0.0,0.0,0.0,0.0,0.0,0.0,0.0,0.0,0.0,0.0,0.0,0.0,0.0,0.0,0.0,0.0,0.0,0.0,3.2061,3.4761,3.6513,3.8135,3.9101,3.9101,3.6203,3.3657,3.2008,2.7521,0.0,0.0,0.0,0.0,0.0,0.0,0.0,0.0,0.0,0.0,0.0,0.0,0.0,0.0,0.0,0.0,0.0,0.0,0.0,0.0,0.0,0.0,0.0,0.0,0.0,0.0,0.0,0.0,0.0,0.0,0.0,0.0,0.0,0.0,0.0,0.0,0.0,0.0,0.0,0.0,0.0,0.0,0.0,0.0,0.0,0.0,0.0,0.0,0.0,0.0,0.0,0.0,0.0,0.0,0.0,0.0,0.0,0.0,0.0,0.0,0.0,0.0,0.0,0.0,0.0,0.0,0.0,0.0,0.0,0.0,0.0,0.0,0.0,0.0,0.0,0.0,0.0,0.0,0.0,0.0,0.0,0.0,0.0,0.0,0.0,0.0,0.0,0.0,0.0,0.0,0.0,0.0,0.0,0.0,0.0,0.0,0.0,0.0,0.0,0.0,0.0,0.0,3.2016,3.4747,0.0,3.8135,3.8897,3.8395,3.6838,3.4556,3.141,0.0,0.0,0.0,0.0,0.0,0.0,0.0,0.0,0.0,0.0,0.0,0.0,0.0,0.0,0.0,0.0,0.0,0.0,0.0,0.0,0.0,0.0,0.0,0.0,0.0,0.0,0.0,0.0,0.0,0.0,0.0,0.0,0.0,0.0,0.0,0.0,0.0,0.0,0.0,0.0,0.0,0.0,0.0,0.0,0.0,0.0,0.0,0.0,0.0,0.0,0.0,0.0,0.0,0.0,0.0,0.0,0.0,0.0,0.0,0.0,0.0,0.0,0.0,0.0,0.0,0.0,0.0,0.0,0.0,0.0,0.0,0.0,0.0,0.0,0.0,0.0,0.0,0.0,0.0,0.0,0.0,0.0,0.0,0.0,0.0,0.0,0.0,0.0,0.0,0.0,0.0,0.0,0.0,0.0,0.0,0.0,0.0,0.0,0.0,0.0,0.0,0.0,2.8772,3.228,3.5049,0.0,3.8135,3.8767,3.7968,3.6559,3.4315,3.1012,0.0,0.0,0.0,0.0,0.0,0.0,0.0,0.0,0.0,0.0,0.0,0.0,0.0,0.0,0.0,0.0,0.0,0.0,0.0,0.0,0.0,0.0,0.0,0.0,0.0,0.0,0.0,0.0,0.0,0.0,0.0,0.0,0.0,0.0,0.0,0.0,0.0,0.0,0.0,0.0,0.0,0.0,0.0,0.0,0.0,0.0,0.0,0.0,0.0,0.0,0.0,0.0,0.0,0.0,0.0,0.0,0.0,0.0,0.0,0.0,0.0,0.0,0.0,0.0,0.0,0.0,0.0,0.0,0.0,0.0,0.0,0.0,0.0,0.0,0.0,0.0,0.0,0.0,0.0,0.0,0.0,0.0,0.0,0.0,0.0,0.0,0.0,0.0,0.0,0.0,0.0,0.0,0.0,0.0,0.0,0.0,0.0,0.0,0.0,0.0,0.0,0.0,2.9031,3.2964,3.5807,3.6606,3.8135,3.8767,3.7963,3.5031,3.254,0.0,0.0,0.0,0.0,0.0,0.0,0.0,0.0,0.0,0.0,0.0,0.0,0.0,0.0,0.0,0.0,0.0,0.0,0.0,0.0,0.0,0.0,0.0,0.0,0.0,0.0,0.0,0.0,0.0,0.0,0.0,0.0,0.0,0.0,0.0,0.0,0.0,0.0,0.0,0.0,0.0,0.0,0.0,0.0,0.0,0.0,0.0,0.0,0.0,0.0,0.0,0.0,0.0,0.0,0.0,0.0,0.0,0.0,0.0,0.0,0.0,0.0,0.0,0.0,0.0,0.0,0.0,0.0,0.0,0.0,0.0,0.0,0.0,0.0,0.0,0.0,0.0,0.0,0.0,0.0,0.0,0.0,0.0,0.0,0.0,0.0,0.0,0.0,0.0,0.0,0.0,0.0,0.0,0.0,0.0,0.0,0.0,0.0,0.0,0.0,0.0,0.0,0.0,2.8949,3.2875,3.5807,3.6606,3.7634,3.7971,3.7261,3.586,3.362,3.0302,0.0,0.0,0.0,0.0,0.0,0.0,0.0,0.0,0.0,0.0,0.0,0.0,0.0,0.0,0.0,0.0,0.0,0.0,0.0,0.0,0.0,0.0,0.0,0.0,0.0,0.0,0.0,0.0,0.0,0.0,0.0,0.0,0.0,0.0,0.0,0.0,0.0,0.0,0.0,0.0,0.0,0.0,0.0,0.0,0.0,0.0,0.0,0.0,0.0,0.0,0.0,0.0,0.0,0.0,0.0,0.0,0.0,0.0,0.0,0.0,0.0,0.0,0.0,0.0,0.0,0.0,0.0,0.0,0.0,0.0,0.0,0.0,0.0,0.0,0.0,0.0,0.0,0.0,0.0,0.0,0.0,0.0,0.0,0.0,0.0,0.0,0.0,0.0,0.0,0.0,0.0,0.0,0.0,0.0,0.0,0.0,0.0,0.0,0.0,0.0,0.0,0.0,2.9,3.2906,3.5807,3.6606,3.7184,3.7342,3.6932,3.5953,3.3782,3.0036,0.0,0.0,0.0,0.0,0.0,0.0,0.0,0.0,0.0,0.0,0.0,0.0,0.0,0.0,0.0,0.0,0.0,0.0,0.0,0.0,0.0,0.0,0.0,0.0,0.0,0.0,0.0,0.0,0.0,0.0,0.0,0.0,0.0,0.0,0.0,0.0,0.0,0.0,0.0,0.0,0.0,0.0,0.0,0.0,0.0,0.0,0.0,0.0,0.0,0.0,0.0,0.0,0.0,0.0,0.0,0.0,0.0,0.0,0.0,0.0,0.0,0.0,0.0,0.0,0.0,0.0,0.0,0.0,0.0,0.0,0.0,0.0,0.0,0.0,0.0,0.0,0.0,0.0,0.0,0.0,0.0,0.0,0.0,0.0,0.0,0.0,0.0,0.0,0.0,0.0,0.0,0.0,0.0,0.0,0.0,0.0,0.0,0.0,0.0,0.0,0.0,0.0,2.9184,3.2913,3.5739,3.6645,3.6771,3.6826,3.6913,3.5573,3.3335,3.013,0.0,0.0,0.0,0.0,0.0,0.0,0.0,0.0,0.0,0.0,0.0,0.0,0.0,0.0,0.0,0.0,0.0,0.0,0.0,0.0,0.0,0.0,0.0,0.0,0.0,0.0,0.0,0.0,0.0,0.0,0.0,0.0,0.0,0.0,0.0,0.0,0.0,0.0,0.0,0.0,0.0,0.0,0.0,0.0,0.0,0.0,0.0,0.0,0.0,0.0,0.0,0.0,0.0,0.0,0.0,0.0,0.0,0.0,0.0,0.0,2.1769,0.0,0.0,0.0,0.0,0.0,0.0,0.0,0.0,0.0,0.0,0.0,0.0,0.0,0.0,0.0,0.0,0.0,0.0,0.0,0.0,0.0,0.0,0.0,0.0,0.0,0.0,0.0,0.0,0.0,0.0,0.0,0.0,0.0,0.0,0.0,0.0,0.0,0.0,0.0,0.0,0.0,2.9239,3.2496,3.5245,3.6848,3.6421,3.6336,3.7077,3.5641,3.361,3.1056,2.8589,0.0,0.0,0.0,0.0,0.0,0.0,0.0,0.0,0.0,0.0,0.0,0.0,0.0,0.0,0.0,0.0,0.0,0.0,0.0,0.0,0.0,0.0,0.0,0.0,0.0,0.0,0.0,0.0,0.0,0.0,0.0,0.0,0.0,0.0,0.0,0.0,0.0,0.0,0.0,0.0,0.0,0.0,0.0,0.0,0.0,0.0,0.0,0.0,0.0,0.0,0.0,0.0,0.0,0.0,0.0,0.0,0.0,0.0,0.0,0.0,2.353,0.0,0.0,0.0,0.0,0.0,0.0,0.0,0.0,0.0,0.0,0.0,0.0,0.0,0.0,0.0,0.0,0.0,0.0,0.0,0.0,0.0,0.0,0.0,0.0,0.0,0.0,0.0,0.0,0.0,0.0,0.0,0.0,0.0,0.0,0.0,0.0,0.0,0.0,0.0,0.0,2.9886,3.2999,3.5708,3.7493,3.6979,3.6704,3.7155,3.6113,3.4386,3.1924,2.981,0.0,0.0,0.0,0.0,0.0,0.0,0.0,0.0,0.0,0.0,0.0,0.0,0.0,0.0,0.0,0.0,0.0,0.0,0.0,0.0,0.0,0.0,0.0,0.0,0.0,0.0,0.0,0.0,0.0,0.0,0.0,0.0,0.0,0.0,0.0,0.0,0.0,0.0,0.0,0.0,0.0,0.0,0.0,0.0,0.0,0.0,0.0,0.0,0.0,0.0,0.0,0.0,0.0,2.7402,2.8148,2.8621,2.9365,3.0172,3.0818,2.8151,2.7488,2.8066,2.5385,0.0,0.0,0.0,0.0,0.0,0.0,0.0,0.0,0.0,0.0,0.0,0.0,0.0,0.0,0.0,0.0,0.0,0.0,0.0,0.0,0.0,0.0,3.0222,3.0883,3.2299,3.2305,2.8007,0.0,0.0,0.0,0.0,0.0,0.0,0.0,0.0,0.0,0.0,0.0,3.0796,3.3802,3.6414,3.8183,3.7739,3.736,3.7462,3.6696,3.523,3.2975,3.1261,2.9677,0.0,0.0,0.0,0.0,0.0,0.0,0.0,0.0,0.0,0.0,0.0,0.0,0.0,0.0,0.0,0.0,0.0,0.0,0.0,0.0,0.0,0.0,0.0,0.0,0.0,0.0,0.0,0.0,0.0,0.0,0.0,0.0,1.8458,1.9213,0.0,0.0,0.0,0.0,0.0,0.0,0.0,0.0,0.0,0.0,0.0,0.0,0.0,2.494,2.7096,2.8608,2.9481,2.9702,3.2012,3.2792,3.2242,3.3033,3.3466,3.3571,3.3139,0.0,2.9265,2.8853,0.0,0.0,0.0,0.0,0.0,0.0,0.0,0.0,0.0,0.0,0.0,0.0,0.0,0.0,0.0,0.0,0.0,0.0,0.0,0.0,0.0,0.0,3.4649,3.476,3.5497,3.5806,3.4439,3.1303,2.8409,2.7299,2.6109,2.5004,0.0,0.0,0.0,0.0,0.0,0.0,3.1702,3.4331,3.6648,3.8447,3.7881,3.7683,3.8441,3.7087,3.5723,3.4643,3.3013,3.1659,3.0758,2.8434,0.0,0.0,0.0,0.0,0.0,0.0,0.0,0.0,0.0,0.0,0.0,0.0,0.0,0.0,0.0,0.0,0.0,0.0,0.0,0.0,0.0,0.0,0.0,0.0,0.0,0.0,0.0,0.0,0.0,1.8454,1.9781,1.9927,2.0167,2.0094,0.0,0.0,0.0,0.0,0.0,0.0,0.0,0.0,0.0,2.7012,2.7097,2.8236,3.0596,3.1373,3.1977,3.246,3.3985,3.4525,3.4214,3.499,3.5335,3.5356,3.5581,3.4671,3.2946,3.1655,3.067,2.9889,0.0,0.0,0.0,0.0,2.9092,2.9039,3.058,3.0898,3.0612,3.0691,0.0,0.0,0.0,0.0,0.0,0.0,0.0,3.1183,3.3108,3.4805,3.6142,3.671,3.7448,3.7819,3.7021,3.5334,3.3303,3.111,3.0475,2.9617,2.7524,0.0,0.0,0.0,0.0,3.1659,3.3329,3.5813,3.791,3.9237,3.9039,3.8774,3.8709,3.759,3.6529,3.5685,3.4055,3.2975,3.2615,3.0663,2.8957,0.0,0.0,0.0,0.0,0.0,0.0,0.0,0.0,0.0,0.0,0.0,0.0,0.0,0.0,0.0,0.0,0.0,0.0,0.0,0.0,0.0,0.0,0.0,0.0,0.0,0.0,0.0,0.0,1.9756,2.0761,2.0683,2.1558,2.1811,0.0,0.0,0.0,0.0,0.0,0.0,2.5542,2.6402,2.7845,3.0084,3.0135,3.1221,3.3473,3.349,3.3886,3.4683,3.5214,3.5576,3.5821,3.6464,3.687,3.7082,3.7496,3.7416,3.6803,3.4411,3.3377,3.3169,3.2017,3.144,3.1383,3.2125,3.2396,3.2578,3.3926,3.4393,3.4338,3.4092,3.2949,3.143,3.0283,0.0,0.0,0.0,0.0,3.3542,3.5412,3.6338,3.7026,3.7978,3.8655,3.8934,3.8339,3.8209,3.7355,3.4494,3.4265,3.3696,3.1087,0.0,0.0,0.0,0.0,3.3966,3.5096,3.7173,3.8907,3.9794,3.99,3.9654,3.9058,3.8026,3.7135,3.6548,3.4927,3.4017,3.4017,3.2615,3.1147,2.9688,0.0,0.0,0.0,0.0,0.0,0.0,0.0,0.0,0.0,0.0,0.0,0.0,0.0,0.0,0.0,0.0,0.0,0.0,0.0,0.0,0.0,0.0,0.0,0.0,0.0,0.0,0.0,0.0,0.0,2.1576,2.2736,0.0,0.0,0.0,0.0,2.4165,2.579,2.7401,2.8885,2.99,3.1144,3.266,3.2712,3.347,3.5059,3.5076,3.5456,3.6197,3.6232,3.6628,3.7392,3.7825,3.843,3.9167,3.958,3.9928,4.0058,3.7327,3.5344,3.4035,3.3962,3.3512,3.2972,3.3711,3.3979,3.4089,3.4877,3.5146,3.5322,3.6443,3.5753,3.4473,3.44,3.314,0.0,0.0,3.4142,3.5243,3.7238,3.7787,3.8029,3.8841,3.9064,3.9082,3.9045,3.9045,3.8544,3.6835,3.5937,3.512,3.4123,0.0,3.2804,3.276,3.3777,3.5112,3.6757,3.7994,3.9001,3.9805,3.99,3.9881,3.9843,3.8338,3.7382,3.7344,3.5761,3.4832,3.4832,3.4017,3.3145,3.2227,2.9821,0.0,0.0,0.0,0.0,0.0,0.0,0.0,0.0,0.0,0.0,0.0,0.0,0.0,0.0,0.0,0.0,0.0,0.0,0.0,0.0,0.0,0.0,0.0,0.0,0.0,0.0,0.0,0.0,2.4075,2.5456,0.0,2.509,2.5794,2.6655,2.7437,2.911,3.052,3.1534,3.24,3.3335,3.4352,3.4369,3.4869,3.5904,3.6404,3.6936,3.7455,3.7976,3.8526,3.904,3.9181,3.942,3.9704,4.0108,4.0384,4.0437,3.9724,3.9101,3.8607,3.8607,3.8425,3.8241,3.8498,3.8607,3.8644,3.8919,3.901,3.8899,3.83,3.7754,3.7151,3.6152,3.5795,3.58,3.6283,3.6971,3.7757,3.8479,3.8674,3.8729,3.9027,3.9101,3.9101,3.9101,3.9101,3.8934,3.8358,3.7578,3.6779,3.5943,3.5572,3.5213,3.4692,3.5965,3.7197,3.7798,3.8814,3.9578,3.9862,3.99,3.99,3.99,3.8357,3.7401,3.7401,3.5836,3.4908,3.4908,3.4624,3.3828,3.2416,3.1014,2.8957,0.0,0.0,0.0,0.0,0.0,0.0,0.0,0.0,0.0,0.0,0.0,0.0,0.0,0.0,0.0,0.0,0.0,0.0,0.0,0.0,0.0,0.0,0.0,0.0,0.0,0.0,2.5802,2.5798,2.7641,2.8527,2.7571,2.8799,2.9863,3.0411,3.2001,3.3162,3.3645,3.4543,3.5263,3.5749,3.5766,3.6194,3.7105,3.7502,3.8035,3.8709,3.9254,3.9767,4.0311,4.0465,4.0666,4.0936,4.1343,4.1503,4.1521,4.18,4.1919,4.1864,4.1297,4.1095,4.1095,4.1095,4.1095,4.1095,4.1095,4.1095,4.0912,3.9863,3.9559,3.9415,3.8409,3.8533,3.9003,3.8748,3.9291,3.9881,3.9602,3.9733,3.9937,3.9937,3.9733,3.9528,3.9528,3.9305,3.9101,3.9101,3.8674,3.8135,3.7596,3.7571,3.7436,3.6869,3.7998,3.8882,3.8863,3.9534,4.004,4.004,4.004,4.004,4.004,3.846,3.75,3.7528,3.5922,3.4868,3.4608,3.4573,3.39,3.2486,3.1678,3.0057,2.7572,0.0,0.0,0.0,0.0,0.0,0.0,0.0,0.0,0.0,0.0,0.0,0.0,0.0,0.0,0.0,0.0,0.0,0.0,0.0,0.0,0.0,0.0,0.0,2.4615,2.533,2.6142,2.6708,2.9126,3.0401,2.9449,3.155,3.2972,3.2992,3.4389,3.5272,3.5272,3.6317,3.6919,3.6919,3.6937,3.7521,3.8685,3.8375,3.8781,3.9955,3.9973,4.0402,4.1191,4.1576,4.2177,4.2939,4.3339,4.3515,4.3515,4.3515,4.3515,4.3349,4.1791,4.1168,4.1168,4.1168,4.1168,4.1168,4.1168,4.1168,4.1185,4.1148,4.1195,4.124,4.1222,4.1348,4.1322,4.0474,4.09,4.1423,4.0639,4.1014,4.159,4.159,4.0996,4.0434,4.0397,3.9747,3.9133,3.9129,3.911,3.9129,3.9115,3.932,3.9451,3.9331,3.9767,0.0,3.9922,4.0138,4.0309,4.0281,4.03,4.0309,4.0281,3.8637,3.7655,3.7792,3.6077,3.4781,3.4105,3.3987,3.3549,3.2694,3.1833,3.1054,3.0343,0.0,0.0,0.0,0.0,0.0,0.0,0.0,0.0,0.0,0.0,0.0,0.0,0.0,0.0,0.0,0.0,0.0,0.0,0.0,0.0,0.0,2.5293,2.6516,2.6247,2.8031,2.9609,3.0294,3.1502,3.2419,3.2724,3.3847,3.4698,3.4974,3.5885,3.6562,3.6852,3.7159,3.7339,3.7339,3.7891,3.8358,3.8703,3.9749,4.0583,4.1197,4.1792,4.2339,4.285,4.2957,4.312,4.3339,4.3444,4.3515,4.3515,4.3515,4.3515,4.346,4.3002,4.2837,4.2837,4.2837,4.2837,4.2837,4.2837,4.2871,4.2811,4.2239,4.2152,4.2171,4.1579,4.1489,4.1523,4.1282,4.1408,4.1553,4.133,4.1423,4.159,4.159,4.1423,4.1146,4.0715,4.0437,4.0127,3.9703,3.9606,3.9566,3.9408,3.9445,3.9559,3.9717,3.9935,4.0091,4.0043,4.0183,4.0266,4.0177,4.0239,4.0266,4.0157,3.8673,3.7759,3.78,3.5595,3.478,3.5841,3.5266,3.4791,3.4557,3.2579,3.1456,0.0,0.0,0.0,0.0,0.0,0.0,0.0,0.0,0.0,0.0,0.0,0.0,0.0,0.0,0.0,0.0,0.0,0.0,0.0,0.0,0.0,0.0,2.7245,2.8493,2.8493,2.9782,3.1147,3.2367,3.3185,3.4043,3.4981,3.5735,3.6269,3.6479,3.6923,3.7247,3.7487,3.7667,3.7918,3.8241,3.8708,3.9356,4.0203,4.0977,4.172,4.2449,4.2923,4.3268,4.3515,4.3515,4.3515,4.3515,4.3515,4.3515,4.3515,4.3515,4.3515,4.3515,0.0,0.0,0.0,0.0,4.3515,4.3496,4.3531,4.3565,4.3525,4.3115,4.3081,4.315,4.2787,4.2723,4.2735,4.2486,4.2677,4.2865,4.2527,4.2696,4.294,4.294,4.2677,4.2248,4.1506,4.111,4.0667,3.9946,3.9819,0.0,3.9805,3.9829,3.9874,3.9974,4.0229,4.0356,4.0279,4.0407,4.0477,4.0397,4.0462,4.0477,4.0397,3.9184,0.0,0.0,0.0,3.5299,3.5575,3.5107,0.0,0.0,0.0,0.0,0.0,0.0,0.0,0.0,3.3233,3.3829,0.0,0.0,0.0,0.0,0.0,0.0,0.0,0.0,0.0,0.0,0.0,0.0,0.0,0.0,0.0,0.0,2.9231,3.0784,3.0871,3.0975,3.1707,3.3424,3.4304,3.5225,3.6399,3.7131,3.7523,3.756,3.7578,3.7596,3.7632,0.0,0.0,0.0,0.0,4.05,4.2286,4.2048,4.2431,4.3515,4.3515,4.3515,4.3515,4.3515,4.3515,4.3515,4.3515,4.3515,4.3515,4.3515,4.3515,4.3515,4.3515,4.3496,4.3515,4.3515,4.3532,4.3549,4.36,0.0,0.0,4.3769,4.3883,4.4005,4.425,4.4374,4.4342,4.388,4.4251,4.4649,4.3921,4.4251,4.4788,4.4788,4.4251,4.3467,4.2549,4.1783,4.1008,4.0062,3.9943,4.0033,4.022,4.0273,4.0273,4.0173,4.053,4.0739,4.0559,4.0694,4.079,4.0778,4.079,0.0,4.0778,3.9875,3.9039,3.8386,3.7565,3.6363,3.4731,3.475,3.5155,3.5945,3.6717,3.7514,3.8365,3.9386,3.9907,3.9835,3.657,3.6764,0.0,0.0,0.0,0.0,0.0,0.0,0.0,0.0,0.0,0.0,0.0,0.0,0.0,0.0,0.0,2.8767,3.0194,3.1304,3.1899,3.2771,3.3632,3.4374,3.4836,3.5687,3.7148,3.7416,3.7632,3.7948,3.7982,3.8118,3.8451,3.9168,3.9621,3.9768,4.1031,4.1907,4.2304,4.2877,4.328,4.3515,0.0,0.0,4.3515,4.3515,4.3515,4.3515,4.3515,4.3515,4.3515,4.3515,4.3515,4.3515,4.3515,4.3531,4.3582,4.3582,4.3651,4.3736,4.3771,4.3802,4.3849,4.3865,4.4079,4.4303,4.4355,4.4533,0.0,4.4599,4.4687,4.475,4.4611,4.4687,4.4788,4.4788,4.4687,4.4204,4.29,4.2503,4.1981,4.0635,4.0425,4.0473,4.0523,4.0442,4.0438,4.0571,4.07,4.079,4.0746,4.0784,4.0746,4.0574,4.0707,4.072,4.0574,3.9876,3.9405,3.9268,3.9076,3.8504,3.7479,3.8104,3.8548,3.8722,3.8896,3.9087,3.9333,4.0917,4.1718,4.1738,4.0299,4.0397,0.0,0.0,0.0,0.0,0.0,0.0,0.0,0.0,0.0,0.0,0.0,2.6414,2.7078,0.0,2.955,3.0932,3.1641,3.2128,3.25,3.3539,3.4489,3.5129,3.5729,3.6616,3.7976,3.8101,3.8168,3.8385,3.8401,3.8483,3.8692,3.946,4.0084,4.0487,4.1662,4.2488,4.2892,4.3313,4.3515,4.3515,4.3515,4.3515,4.3515,4.3515,4.3515,4.3515,4.3515,4.3515,4.3515,4.3515,4.3513,4.3548,4.3548,4.3565,4.3599,4.3667,4.3736,4.3818,4.3989,4.4079,4.4121,4.4294,4.4471,4.4624,4.4763,4.4896,4.503,4.515,4.5201,4.5201,4.5201,4.5201,4.5201,4.5201,4.5201,4.4773,4.3225,4.2899,4.2427,4.08,4.0542,4.0605,4.0607,4.0593,4.0626,4.0739,4.0784,4.0797,4.0797,4.0797,4.0759,4.0661,4.0746,4.0752,4.0661,3.9934,3.9501,3.9501,3.9094,3.8856,3.8856,3.9694,4.0332,4.0739,4.1214,4.1463,4.1496,4.286,4.3527,4.3549,4.3557,4.3569,0.0,0.0,0.0,0.0,0.0,0.0,0.0,2.4503,2.4842,2.603,2.764,2.9059,2.9845,3.081,3.178,3.2658,3.2842,3.2943,3.312,3.4117,3.5163,3.596,3.6669,3.751,3.8603,3.8707,3.8707,3.8707,3.8707,3.8707,3.8707,3.9606,4.0432,4.1077,4.2029,4.2837,4.3496,4.3515,4.3515,4.3515,4.3515,4.3515,4.3515,4.3515,4.3515,4.3496,4.3565,4.3599,4.3599,4.3664,4.3728,4.3777,4.3809,4.3809,4.3825,4.3881,4.3945,4.4036,4.4289,4.4402,4.4425,4.4714,4.4843,4.4927,4.5129,4.5232,4.5322,4.555,4.5594,4.5594,4.5594,4.5594,4.5594,4.5594,4.5594,4.519,4.3662,4.3335,4.2874,4.1312,4.093,4.0865,4.0872,4.0829,4.0797,4.0797,4.0797,4.0855,4.1009,4.1029,4.1106,4.128,4.13,4.1222,4.1048,4.039,3.9984,3.9984,3.9495,3.9514,4.0216,4.0913,4.159,4.226,4.3187,4.3654,4.3677,4.4598,4.5071,4.5098,4.5845,4.582,2.0562,2.174,2.3505,2.5023,2.5533,2.622,0.0,2.8801,2.8853,2.9025,3.0525,3.1671,3.1126,3.1899,3.2658,3.2777,3.3063,3.3497,3.4199,3.5337,3.6406,3.7209,3.7393,3.7759,3.8634,3.8707,3.8707,3.8707,3.8707,3.8707,3.8707,4.0141,4.1003,4.1095,4.2561,4.3423,4.3515,4.3515,4.3515,4.3515,4.3515,4.3515,4.3515,4.3515,4.3515,4.3532,4.3814,4.3942,4.3974,4.4275,4.4397,4.4411,4.4533,4.4572,4.4546,4.4318,4.443,4.4688,4.4726,4.4739,4.4751,4.4776,4.4973,4.5169,4.5191,4.5381,4.5568,4.5586,4.5594,4.5594,4.5594,4.5594,4.5594,4.5594,4.5594,4.5344,4.4374,4.4162,4.391,4.2988,4.2229,4.1772,4.1826,4.1268,4.0797,4.0797,4.0797,4.1067,4.1777,4.1874,4.2164,4.2937,4.3015,4.2705,4.1932,4.1777,4.1719,4.1719,4.2357,4.2763,4.2879,4.2976,4.3086,4.3244,4.4122,4.458,4.4641,4.5525,4.5982,4.6056,4.6145,4.6142,2.3936,2.4711,2.5629,2.7399,2.8969,3.0174,3.0674,3.1148,3.1466,3.1433,3.2043,3.2687,3.3071,3.3499,3.4032,3.4721,3.4947,3.5163,3.5491,3.6377,3.7125,3.7456,3.7915,3.8322,3.867,3.8707,3.8707,3.8707,3.8707,3.8707,3.8707,4.0215,4.1095,4.1095,4.2653,4.3515,4.3515,4.3515,4.3515,4.3515,4.3515,4.3515,4.3515,4.3699,4.3892,4.4038,4.4202,4.4289,4.4303,4.4493,4.4585,4.4624,4.4676,4.4812,4.4973,4.4688,4.4676,4.4812,4.4985,4.503,4.5063,4.5211,4.5342,4.5429,4.5429,4.5513,4.5594,4.5594,4.5594,4.5594,4.5594,4.5594,4.5594,4.5594,4.5594,4.5364,4.4489,4.4322,4.4116,4.3265,4.2857,4.2676,4.269,4.2453,4.2241,4.2241,4.1816,4.1796,4.2647,4.2763,4.2899,4.3266,4.3305,4.315,4.2783,4.2763,4.2763,4.2763,4.3092,4.3537,4.404,4.4059,4.4305,4.4839,4.5248,4.5497,4.5553,4.5967,4.618,4.6203,4.6199,4.621,2.5969,2.6623,2.7388,2.9419,3.1416,3.2825,3.2668,3.2932,3.3198,3.315,3.3035,3.3265,3.4304,3.4588,3.4998,3.6127,3.6303,3.6387,3.6693,3.7169,3.7614,3.7904,3.8401,3.8738,3.8792,3.8735,3.8707,3.8707,3.8765,3.878,3.8707,4.031,4.1174,4.1095,4.2754,4.3632,4.3632,4.3714,4.3744,4.3744,4.3744,4.3744,4.3761,4.3999,4.4221,4.4416,4.4546,4.4612,4.4624,4.4769,4.4884,4.4908,4.495,4.5096,4.5292,4.5085,4.5019,4.5052,4.5243,4.5312,4.5342,4.555,4.5594,4.5594,4.5594,4.5594,4.5594,4.5594,4.5594,4.5594,4.5594,4.5594,4.5594,4.5594,4.5594,4.5441,4.4778,4.4705,4.4564,4.3936,4.367,4.3566,4.358,4.3427,4.3382,4.3614,4.3131,4.2957,4.3576,4.3846,4.3982,4.3982,4.3788,4.3653,4.3653,4.3653,4.3653,4.3653,4.3866,4.4272,4.491,4.4929,4.5247,4.5916,4.598,4.6047,4.6123,4.6187,4.6203,4.62,4.6227,4.6239,2.5755,2.6823,2.8439,3.0917,3.2159,3.3191,3.4671,3.4473,3.3971,3.3953,3.3602,3.3541,3.435,3.4768,3.5265,3.6156,3.6303,3.6675,3.7723,3.7645,3.7886,3.8929,3.8833,3.8792,0.0,3.8851,3.8707,3.8707,3.8935,3.8979,3.8704,4.047,4.1373,4.1111,4.2982,4.3989,4.3989,4.4231,4.4369,4.4369,4.4369,4.4369,4.4369,4.4369,4.4383,4.4411,4.4751,4.4903,4.4908,4.5312,4.5466,4.5485,4.5559,4.5577,4.5586,4.5577,4.5577,4.5577,4.5586,4.5586,4.5586,4.5594,4.5594,4.5594,4.5594,4.5594,4.5594,4.5594,4.5594,4.5594,4.5594,4.5594,4.5594,4.5594,4.5594,4.5594,4.5575,4.561,4.5651,4.5642,4.4997,4.4474,4.4548,4.3859,4.3595,4.442,4.4536,4.4536,4.4555,4.5239,4.5729,4.5729,4.5026,4.4555,4.4555,4.4555,4.4555,4.4555,4.5297,4.5749,4.5768,4.5768,4.5835,4.5997,4.6002,4.6067,4.6204,4.6204,4.6202,4.6204,4.6269,4.6307,2.7821,2.9406,3.0941,3.2524,3.4365,3.5628,3.5087,3.5257,3.5208,3.4098,3.3751,3.3876,3.468,3.5064,3.566,3.6897,3.7196,3.7623,3.8567,3.8609,3.8758,3.93,3.9285,0.0,0.0,0.0,0.0,3.9192,3.9156,3.9142,3.9219,4.0843,4.1735,4.1637,4.3343,4.4279,4.4279,4.436,4.4397,4.4397,4.4397,4.4493,4.4663,4.4714,4.4856,4.5057,4.5231,4.5302,4.5312,4.5495,4.5568,4.5568,4.5586,4.5594,4.5594,4.5594,4.5594,4.5594,4.5594,4.5594,4.5594,4.5594,4.5594,4.5594,4.5594,4.5594,4.5594,4.5594,4.5594,4.5594,4.5594,4.5594,4.5594,4.5594,4.5594,4.5603,4.5648,4.5671,4.5719,4.5758,4.5544,4.536,4.5394,4.5142,4.5065,4.5355,4.5394,4.5394,4.5394,4.5633,4.5807,4.5807,4.5548,4.5394,4.5394,4.5394,4.5394,4.5394,4.5738,4.5922,4.5922,4.5978,4.6048,4.6135,4.6138,4.615,4.6195,4.6195,4.6223,4.6269,4.6288,4.6303,2.9997,3.1365,3.2484,3.4487,3.5934,3.6638,3.5889,3.5776,3.556,3.4565,3.3897,3.3744,3.4652,3.4705,3.5194,3.6993,3.7392,3.7908,3.9207,3.9311,3.935,3.9623,3.9563,3.9551,0.0,0.0,0.0,3.9458,3.9439,3.9427,3.9502,4.1111,4.2008,4.1886,4.3627,4.4546,4.4546,4.4669,4.472,4.472,4.472,4.4807,4.4969,4.5015,4.5164,4.5389,4.5458,4.5485,4.5504,4.5577,4.5594,4.5594,4.5594,4.5594,4.5594,4.5594,4.5594,4.5594,4.5594,4.5594,4.5594,4.5594,4.5594,4.5594,4.5594,4.5594,4.5594,4.5594,4.5594,4.5594,4.5594,4.5594,4.5594,4.5594,4.5594,4.5622,4.5693,4.5695,4.5715,4.58,4.5798,4.5807,4.5807,4.5807,4.5807,4.5807,4.5807,4.5807,4.5807,4.5807,4.5807,4.5807,4.5807,4.5807,4.5807,4.5835,4.5861,4.5861,4.5977,4.6036,4.6036,4.608,4.6131,4.6206,4.6171,4.6191,4.6249,4.6249,4.6269,4.6301,4.6301,4.6295,3.2121,3.2695,3.3298,3.6677,3.6806,3.6291,3.7006,3.6069,3.5091,3.5255,3.403,3.3215,3.4184,3.3741,3.4003,3.644,3.6883,3.7619,3.9624,3.9682,3.9623,0.0,0.0,0.0,0.0,0.0,0.0,3.9551,0.0,3.9785,3.9544,4.1274,4.2148,4.1882,4.3743,4.4756,4.4756,4.5113,4.5307,4.5307,4.5307,4.5307,4.5307,4.5307,4.5338,4.5389,4.541,4.5438,4.5504,4.5577,4.5594,4.5594,4.5594,4.5594,4.5594,4.5594,4.5594,4.5594,4.5594,4.5594,4.5594,4.5594,4.5594,4.5594,4.5594,4.5594,4.5594,4.5594,4.5594,4.5594,4.5594,4.5594,4.5594,4.5594,4.5594,4.5622,4.5693,4.5695,4.5715,4.5781,4.5798,4.5807,4.5807,4.5807,4.5807,4.5807,4.5814,4.5814,4.5807,4.5807,4.5807,4.5814,4.5814,4.5821,4.5827,4.5927,4.6007,4.6007,4.606,4.6105,4.6105,4.6105,4.615,4.6193,4.6145,4.6165,4.6306,4.6306,4.6301,4.63,4.63,4.63,3.3486,3.5112,3.667,3.7571,3.763,3.7397,3.6976,3.6186,3.5208,3.4068,3.3499,3.308,3.2718,3.3097,3.4053,3.5728,3.6677,3.7837,3.9646,3.9829,0.0,4.0166,0.0,4.0108,4.0186,4.0147,0.0,0.0,3.9956,3.9965,4.0087,4.1119,4.1672,4.1601,4.3281,4.4209,4.4209,4.4921,4.5307,4.5307,4.5307,4.5307,4.5307,4.5351,4.5371,4.541,4.5523,4.5559,4.5577,4.5586,4.5594,4.5594,4.5594,4.5594,4.5594,4.5594,4.5594,4.5594,4.5594,4.5594,4.5594,4.5594,4.5594,4.5594,4.5594,4.5594,4.5594,4.5594,4.5594,4.5594,4.5594,4.5594,4.5594,4.5594,4.5594,4.5612,4.5695,4.57,4.5731,4.5798,4.58,4.5807,4.5807,4.5807,4.5807,4.5807,4.5893,4.5904,4.5821,4.5807,4.5848,4.5947,4.5958,4.5972,4.6011,4.6056,4.6068,4.6068,4.6137,4.6171,4.6179,4.6222,4.6269,4.6268,4.6267,4.6263,4.629,4.629,4.6306,4.63,4.63,4.63,3.5053,3.6628,3.791,3.8008,3.7728,3.7138,3.5975,3.5123,3.4167,3.2645,3.2326,3.1987,3.0852,3.1769,3.3045,3.4197,3.5837,3.7557,3.9259,3.983,4.0128,0.0,4.0301,0.0,4.0301,4.0301,4.0301,4.0301,4.0166,4.0147,4.0301,4.1055,4.1667,4.2049,4.2985,4.3643,4.4006,4.4857,4.5307,4.5307,4.5307,4.5307,4.5307,4.535,4.5361,4.541,4.5485,4.555,4.5594,4.5594,4.5594,4.5594,4.5594,4.5594,4.5594,4.5594,4.5594,4.5594,4.5594,4.5594,4.5594,4.5594,4.5594,4.5594,4.5594,4.5594,4.5594,4.5594,4.5594,4.5594,4.5594,4.5594,4.5594,4.5594,4.5631,4.5646,4.5692,4.5723,4.5754,4.5793,4.5807,4.5807,4.5807,4.5807,4.5807,4.5807,4.5904,4.5958,4.5821,4.5872,4.5963,4.6041,4.605,4.6067,4.6095,4.6128,4.6142,4.6142,4.6206,4.6244,4.6247,4.6289,4.6302,4.6293,4.6309,4.6305,4.63,4.63,4.63,4.63,4.63,4.63,3.6388,3.7353,3.7885,3.8056,3.7365,3.6247,3.4738,3.3749,3.2728,3.1273,3.089,3.0427,2.9131,3.0235,3.1675,3.2699,3.4819,3.6939,3.8744,3.9679,4.0194,4.0309,4.0328,4.0328,4.0328,4.0301,4.0301,4.0301,4.0301,4.0301,4.0301,4.096,4.1743,4.2603,4.2622,4.3023,4.3834,4.4704,4.5125,4.5125,4.5239,4.5307,4.5307,4.5317,4.5341,4.541,4.5419,4.5495,4.5594,4.5594,4.5594,4.5594,4.5594,4.5594,4.5594,4.5594,4.5594,4.5594,4.5594,4.5594,4.5594,4.5594,4.5594,4.5594,4.5594,4.5594,4.5594,4.5594,4.5594,4.5594,4.5594,4.5594,4.5594,4.5594,4.5648,4.569,4.57,4.5746,4.5803,4.58,4.5807,4.5807,4.5807,4.5807,4.5807,4.5807,4.5904,4.5964,4.5828,4.5998,4.6095,4.6087,4.6102,4.6115,4.6115,4.6167,4.6209,4.6209,4.6267,4.6308,4.6306,4.6304,4.6299,4.6291,4.6305,4.63,4.63,4.63,4.63,4.63,4.63,4.63,3.625,3.6952,3.7505,3.7608,3.6994,3.6112,3.5173,3.3831,3.2319,3.0688,2.9773,2.9201,2.8949,2.9746,3.1159,3.3414,3.4694,3.626,3.8667,3.9237,3.9661,0.0,4.0468,4.0468,4.0468,4.0363,0.0,0.0,4.0301,4.0301,4.0301,4.0435,4.0883,4.1705,4.1724,4.2144,4.3004,4.3815,4.4236,4.4236,4.4953,4.5307,4.5307,4.5361,4.539,4.541,4.5513,4.5577,4.5594,4.5594,4.5594,4.5594,4.5594,4.5594,4.5594,4.5594,4.5594,4.5594,4.5594,4.5594,4.5594,4.5594,4.5594,4.5594,4.5594,4.5594,4.5594,4.5594,4.5594,4.5594,4.5594,4.5594,4.5594,4.5594,4.5648,4.569,4.57,4.5742,4.58,4.5807,4.5807,4.5807,4.5807,4.5807,4.5807,4.5807,4.5904,4.5991,4.5975,4.6039,4.6076,4.6018,4.6118,4.6173,4.6173,4.6241,4.6288,4.6288,4.6289,4.6308,4.6303,4.6302,4.6297,4.6303,4.6302,4.63,4.63,4.63,4.63,4.63,4.63,4.63,3.6014,3.6804,3.7316,3.6967,3.6236,3.5199,3.3549,3.2237,3.0748,2.8657,2.8255,2.7867,2.6549,2.8446,3.03,3.0663,3.2898,3.5305,3.7398,3.8114,3.8933,4.0335,4.0496,4.0527,4.0607,4.0549,4.0516,4.0516,4.0516,4.0455,4.031,4.0711,4.0903,4.0883,4.1724,4.2163,4.2125,4.2966,4.3586,4.4006,4.4418,4.4878,4.5348,4.538,4.541,4.5467,4.5513,4.5568,4.5594,4.5594,4.5594,4.5594,4.5594,4.5594,4.5594,4.5594,4.5594,4.5594,4.5594,4.5594,4.5594,4.5594,4.5594,4.5594,4.5594,4.5594,4.5594,4.5594,4.5594,4.5594,4.5594,4.5594,4.5594,4.5594,4.5646,4.5711,4.5734,4.5778,4.5807,4.5807,4.5807,4.5807,4.5807,4.5807,4.5807,4.5807,4.5904,4.598,4.5892,4.6041,4.6128,4.6067,4.6112,4.6158,4.62,4.6237,4.6265,4.6308,4.6308,4.6307,4.6301,4.63,4.6293,4.63,4.63,4.63,4.63,4.63,4.63,4.63,4.63,4.63,3.5577,3.6396,3.6728,3.6169,3.5372,3.4163,3.1881,3.0578,2.9188,2.6874,2.6803,2.6555,2.4549,2.7033,2.9058,2.8103,3.0892,3.3949,3.6194,3.7077,3.8233,4.0269,4.0527,0.0,4.0687,4.0694,0.0,4.0694,4.0694,4.06,4.0373,4.0921,4.096,4.032,4.159,4.1934,4.1246,4.2087,4.2851,4.3472,4.3834,4.4381,4.514,4.5303,4.5438,4.5504,4.5513,4.5559,4.5594,4.5594,4.5594,4.5594,4.5594,4.5594,4.5594,4.5594,4.5594,4.5594,4.5594,4.5594,4.5594,4.5594,4.5594,4.5594,4.5594,4.5594,4.5594,4.5594,4.5594,4.5594,4.5594,4.5594,4.5594,4.562,4.566,4.5731,4.5786,4.5807,4.5807,4.5807,4.5807,4.5807,4.5807,4.5807,4.5807,4.5807,4.5904,4.5969,4.5867,4.6045,4.6155,4.6105,4.6128,4.6155,4.62,4.6209,4.6241,4.6308,4.6308,4.6306,4.6301,4.6296,4.6309,4.63,4.63,4.63,4.63,4.63,4.63,4.63,4.63,4.63,3.4746,3.5116,3.5126,3.5125,3.4505,3.3447,3.1716,3.0113,2.851,2.6765,2.5873,2.5363,2.5115,2.5988,2.7211,2.8568,2.9791,3.1943,3.5946,3.6681,3.7707,4.0208,0.0,0.0,4.0694,4.0694,4.0694,4.0694,4.0694,4.0629,4.0481,4.044,4.0377,4.0301,4.0454,4.0492,4.0416,4.1208,4.1648,4.1743,4.3261,4.4075,4.425,4.5045,4.5448,4.5504,4.5568,4.5586,4.5594,4.5594,4.5594,4.5594,4.5594,4.5594,4.5594,4.5594,4.5594,4.5594,4.5594,4.5594,4.5594,4.5594,4.5594,4.5594,4.5594,4.5594,4.5594,4.5594,4.5594,4.5594,4.5594,4.5594,4.5612,4.5676,4.57,4.5731,4.5786,4.5807,4.5807,4.5807,4.5807,4.5807,4.5807,4.5807,4.5807,4.5807,4.5904,4.5997,4.5986,4.6052,4.6109,4.6102,4.6207,4.6265,4.6206,4.6264,4.6289,4.6308,4.6308,4.6306,4.6301,4.6296,4.6309,4.63,4.63,4.63,4.63,4.63,4.63,4.63,4.63,4.63,3.3588,3.4491,3.4983,3.5038,3.4065,3.2659,3.1005,2.9355,2.7695,2.6026,2.5421,2.5038,2.4517,2.5504,2.6612,2.7287,2.8523,3.0541,3.3769,3.4699,3.608,3.8736,3.9573,4.0184,0.0,0.0,4.0935,4.0935,4.0864,4.0807,4.0736,4.0602,4.0534,4.0534,4.046,4.046,4.0534,4.0696,4.1073,4.1692,4.2766,4.3609,4.4249,4.5074,4.5495,4.5568,4.5586,4.5594,4.5594,4.5594,4.5594,4.5594,4.5594,4.5594,4.5594,4.5594,4.5594,4.5594,4.5594,4.5594,4.5594,4.5594,4.5594,4.5594,4.5594,4.5594,4.5594,4.5594,4.5594,4.5594,4.5594,4.5594,4.5612,4.5684,4.5708,4.5731,4.5786,4.5807,4.5807,4.5807,4.5807,4.5834,4.5917,4.5929,4.5933,4.5964,4.6026,4.6052,4.6052,4.6118,4.6158,4.6158,4.6165,4.6195,4.6202,4.6215,4.6264,4.6308,4.6307,4.6303,4.6301,4.6293,4.6303,4.63,4.63,4.63,4.63,4.63,4.63,4.63,4.63,4.63,3.2797,3.394,3.4604,3.4972,3.3834,3.2103,3.0233,2.872,2.7147,2.5205,2.5019,2.4937,2.4072,2.5084,2.6122,2.6364,2.7599,2.9605,3.2661,3.3605,3.5009,3.772,0.0,3.9726,4.0579,4.0922,4.1107,4.1107,4.1003,4.0967,4.0967,4.0864,4.0771,4.07,4.0602,4.0595,4.0694,4.0512,4.0761,4.1482,4.2205,4.3074,4.4041,4.4861,4.5395,4.5692,4.5692,4.568,4.566,4.5688,4.5648,4.5594,4.5635,4.5618,4.5594,4.5594,4.5594,4.5594,4.5594,4.5629,4.5643,4.5612,4.5629,4.5643,4.5612,4.5594,4.5594,4.5594,4.5594,4.5594,4.5594,4.5603,4.5629,4.5692,4.5715,4.5746,4.5793,4.5841,4.5854,4.5814,4.5854,4.5902,4.5991,4.6027,4.605,4.6091,4.6118,4.6131,4.6131,4.6195,4.6237,4.6237,4.6195,4.6189,4.6234,4.6237,4.6243,4.6308,4.6306,4.6301,4.6301,4.6309,4.63,4.63,4.63,4.63,4.63,4.63,4.63,4.63,4.63,4.6436,3.2606,3.3407,3.3666,3.4737,3.379,3.1943,2.9477,2.8279,2.6975,2.4429,2.4593,2.4937,2.4072,2.4612,2.5478,2.6275,2.7147,2.9172,3.3402,3.3995,3.4967,0.0,3.8782,3.9461,3.9597,4.0521,4.1107,4.1107,4.1107,0.0,4.1107,4.1107,4.098,4.0706,4.0694,4.0694,4.0694,4.0699,4.0692,4.0717,4.1587,4.2474,4.3333,4.4214,4.5085,4.5899,4.5899,4.5852,4.5794,4.5869,4.579,4.5612,4.5742,4.5723,4.5594,4.5594,4.5594,4.5594,4.5594,4.5692,4.5778,4.5635,4.5692,4.5771,4.5646,4.5594,4.5594,4.5594,4.5594,4.5594,4.5594,4.5648,4.569,4.5692,4.5758,4.5795,4.58,4.5892,4.5964,4.5834,4.5954,4.6072,4.6017,4.6063,4.6098,4.6098,4.6153,4.6202,4.6202,4.6265,4.6308,4.6308,4.6308,4.6308,4.6308,4.6308,4.6308,4.6308,4.6306,4.6301,4.6301,4.6309,4.63,4.63,4.63,4.63,4.63,4.63,4.63,4.63,4.63,4.6768,2.9381,3.0615,3.1514,3.1346,3.1035,3.0098,2.7614,2.7393,2.6975,2.4429,2.4593,2.5115,2.4841,2.5019,2.5835,2.779,2.8344,2.9627,3.2807,3.3716,0.0,3.7093,3.9261,4.0583,0.0,0.0,4.1107,4.1107,4.1107,4.1094,4.1106,4.1106,4.1065,4.098,4.0878,4.0883,4.0961,4.0795,4.0759,4.0909,4.1655,4.2474,4.3398,4.4228,4.5087,4.5899,4.5899,4.5883,4.5869,4.5889,4.5856,4.5809,4.5852,4.584,4.5803,4.5803,4.5803,4.5803,4.5803,4.5834,4.5858,4.5815,4.5834,4.5858,4.5815,4.5703,4.562,4.5715,4.5734,4.5734,4.5734,4.5719,4.5703,4.5756,4.5816,4.5891,4.5998,4.6044,4.6052,4.6007,4.6064,4.6109,4.6134,4.6153,4.6173,4.6237,4.6245,4.6267,4.6267,4.6289,4.6308,4.6308,4.6308,4.6308,4.6308,4.6308,4.6308,4.6308,4.6306,4.6301,4.6301,4.6309,4.63,4.63,4.63,4.63,4.63,4.63,4.63,4.63,4.63,4.7061,2.7414,2.8792,2.967,2.9617,2.947,2.8785,2.6683,2.6685,2.6511,2.4347,2.4593,2.5191,2.5191,2.5191,2.5912,2.8096,2.8459,2.9493,3.2487,3.3327,0.0,3.7245,3.9351,0.0,0.0,4.1106,4.1106,4.1106,4.1106,4.1092,4.1103,4.1103,4.1098,4.1106,4.1029,4.1013,4.1103,4.0926,4.0918,4.1045,4.145,4.2315,4.3537,4.404,4.4916,4.6053,4.6053,4.6013,0.0,4.6037,4.5992,4.5905,4.5964,4.594,4.5899,4.5899,4.5899,4.5899,4.5899,4.593,4.5973,4.5915,4.5899,4.5899,4.5899,4.5815,4.5733,4.5803,4.5835,4.5847,4.5847,4.5835,4.5816,4.5878,4.5939,4.5998,4.6087,4.6122,4.6131,4.6105,4.6139,4.6171,4.62,4.6213,4.6244,4.6289,4.6308,4.6308,4.6308,4.6308,4.6308,4.6308,4.6308,4.6308,4.6308,4.6308,4.6308,4.6308,4.6307,4.6303,4.6301,4.6293,4.6303,4.63,4.63,4.63,4.63,4.63,4.63,4.63,4.63,4.7198,0.0,2.7491,2.7854,2.8811,2.8574,2.7732,2.6249,2.6058,0.0,2.4215,2.4593,2.5229,2.5268,2.5287,2.5854,2.7606,2.7937,2.9155,3.2519,3.3171,0.0,0.0,3.925,4.0203,4.1013,4.1093,4.1093,4.1093,4.1093,4.1093,4.1096,4.1096,4.1096,4.1096,4.1096,4.1096,4.1096,4.1107,4.1094,4.1095,4.1104,4.1988,4.3606,4.3666,4.4621,4.6202,4.6261,4.6238,4.6112,4.6245,4.6147,4.5935,4.6061,4.6045,4.5925,4.5925,4.5925,4.5925,4.5925,4.6005,4.6095,4.5978,4.5925,4.5925,4.5925,4.592,4.5915,4.5915,4.5915,4.5915,4.5915,4.5966,4.5994,4.6018,4.6056,4.6109,4.6115,4.616,4.6197,4.6128,4.621,4.6288,4.6212,4.6265,4.6308,4.6308,4.6308,4.6308,4.6308,4.6308,4.6308,4.6308,4.6308,4.6308,4.6308,4.6308,4.6308,4.6308,4.6308,4.6306,4.6301,4.6296,4.6309,4.63,4.63,4.63,4.63,4.63,4.63,4.63,4.6358,4.7256,2.1179,0.0,2.4026,2.3702,2.4537,2.5007,0.0,2.4738,2.5758,2.4215,2.4593,2.5382,2.6007,2.6122,2.6886,2.923,3.0222,3.1459,3.3655,3.5827,0.0,3.8345,3.9841,4.0869,4.1078,4.11,4.1103,4.1093,4.1093,4.1098,4.1109,4.1109,4.1094,4.1101,4.1103,4.1097,4.1109,4.1092,4.1097,4.1106,4.1108,4.1654,4.2728,4.3391,4.4289,4.5343,4.6007,4.6275,4.6267,4.6296,4.6269,4.6211,4.6243,4.6221,4.6209,4.6209,4.6209,4.6209,4.6209,4.6238,4.6245,4.6214,4.6209,4.6209,4.6209,4.6138,4.6053,4.6053,4.6049,4.6043,4.6043,4.6029,4.601,4.6061,4.6121,4.6197,4.6241,4.6266,4.6267,4.6264,4.6288,4.6289,4.6288,4.6289,4.6308,4.6308,4.6308,4.6308,4.6308,4.6308,4.6308,4.6308,4.6308,4.6308,4.6308,4.6308,4.6308,4.6308,4.6308,4.6306,4.6301,4.6296,4.6309,4.63,4.63,4.63,4.63,4.63,4.63,4.6319,4.6983,4.7842,1.8111,2.0679,2.2942,2.2905,2.3925,2.4624,2.3543,2.4448,2.5201,2.4127,2.4593,2.5459,2.6256,2.6454,2.7324,2.9883,3.0731,3.1865,3.4074,0.0,3.8954,3.8558,4.004,4.11,0.0,4.1105,4.1107,4.1092,4.1092,4.1095,4.1101,4.1101,4.1103,4.1109,4.1109,4.1106,4.1101,4.1101,4.1104,4.1109,4.1109,4.1557,4.2415,4.2884,4.3801,4.5029,4.55,4.5929,4.63,4.63,4.63,4.63,4.63,4.63,4.63,4.63,4.63,4.63,4.63,4.63,4.63,4.63,4.63,4.63,4.63,4.6245,4.6187,4.6192,4.6184,4.6193,4.6199,4.6156,4.6156,4.6175,4.622,4.6264,4.6289,4.6308,4.6308,4.6308,4.6308,4.6308,4.6308,4.6308,4.6308,4.6308,4.6308,4.6308,4.6308,4.6308,4.6308,4.6308,4.6308,4.6308,4.6308,4.6308,4.6308,4.6308,4.6308,4.6307,4.6305,4.6301,4.6293,4.63,4.63,4.63,4.63,4.63,4.63,4.6319,4.7198,4.8037,1.688,1.9878,2.2941,2.3355,2.4467,2.5263,2.4594,2.4771,2.4997,2.4573,2.5071,2.5828,2.6655,2.7003,2.7976,3.0425,3.1099,3.2193,3.475,3.7708,3.9374,3.8773,4.0118,0.0,4.1104,4.1106,4.1108,4.1109,4.1109,4.1109,4.1109,4.1109,4.1109,4.1109,4.1109,4.1109,4.1109,4.1109,4.1109,4.1109,4.1109,4.1498,4.2201,4.2474,4.3391,4.4816,4.509,4.5617,4.63,4.63,4.63,4.63,4.63,4.63,4.63,4.63,4.63,4.63,4.63,4.63,4.63,4.63,4.63,4.63,4.63,4.6302,4.6305,4.6293,4.6299,4.6302,4.6306,4.6308,4.6308,4.6308,4.6308,4.6308,4.6308,4.6308,4.6308,4.6308,4.6308,4.6308,4.6308,4.6308,4.6308,4.6308,4.6308,4.6308,4.6308,4.6308,4.6308,4.6308,4.6308,4.6308,4.6308,4.6308,4.6308,4.6308,4.6308,4.6308,4.6306,4.6303,4.6295,4.6302,4.63,4.63,4.63,4.63,4.63,4.6319,4.7315,4.8131,1.8726,2.0782,2.1829,2.041,2.2879,2.5316,2.3975,2.5385,2.7004,2.7096,2.7224,2.7599,2.8525,2.9305,3.0452,3.2376,3.3988,3.5671,3.7608,3.8358,3.8926,3.9535,4.0489,4.11,4.1095,4.1095,4.1099,4.1108,4.1109,4.1109,4.1109,4.1109,4.1109,4.1109,4.1109,4.1109,4.1109,4.1109,4.1109,4.1109,4.1109,4.1168,4.1343,4.2825,4.3645,4.3977,4.546,4.6183,4.63,4.63,4.63,4.63,4.63,4.63,4.63,4.63,4.63,4.63,4.63,4.63,4.63,4.63,4.63,4.63,4.63,4.6305,4.6293,4.6299,4.6301,4.6302,4.6306,4.6308,4.6308,4.6308,4.6308,4.6308,4.6308,4.6308,4.6308,4.6308,4.6308,4.6308,4.6308,4.6308,4.6308,4.6308,4.6308,4.6308,4.6308,4.6308,4.6308,4.6308,4.6308,4.6308,4.6308,4.6308,4.6308,4.6308,4.6308,4.6308,4.6303,4.6297,4.6291,4.63,4.63,4.63,4.63,4.63,4.63,4.6339,4.7881,4.866,1.8189,1.9921,2.1139,2.0874,2.4008,2.6889,2.585,2.659,2.7415,2.7109,2.743,2.8176,2.9561,3.0158,3.1219,3.3574,3.5819,3.7393,3.7806,3.8623,3.9343,3.9759,4.0578,4.1109,4.1101,4.1103,4.1104,4.1109,4.1109,4.1109,4.1109,4.1109,4.1109,4.1109,4.1109,4.1109,4.1109,4.1109,4.1109,4.1109,4.1109,4.1109,4.1129,4.1929,4.2807,4.3744,4.4543,4.5421,4.63,4.63,4.63,4.63,4.63,4.63,4.63,4.63,4.63,4.63,4.63,4.63,4.63,4.63,4.6303,4.6308,4.6308,4.6293,4.63,4.6304,4.6305,4.6306,4.6308,4.6308,4.6308,4.6308,4.6308,4.6308,4.6308,4.6308,4.6308,4.6308,4.6308,4.6308,4.6308,4.6308,4.6308,4.6308,4.6308,4.6308,4.6308,4.6308,4.6308,4.6308,4.6308,4.6308,4.6308,4.6308,4.6308,4.6308,4.6308,4.6308,4.6305,4.6301,4.6295,4.6308,4.6303,4.63,4.63,4.63,4.63,4.6339,4.8017,4.8752,1.7617,1.9198,2.0868,2.2115,2.5006,2.757,2.7702,2.7682,2.7714,2.7977,2.8249,2.8975,3.0724,3.1468,3.2566,3.4929,3.6957,3.8142,3.7917,3.8826,3.9663,4.0063,4.0688,4.1101,4.1108,4.1109,4.1109,4.1109,4.1109,4.1109,4.1109,4.1109,4.1109,4.1109,4.1109,4.1109,4.1109,4.1109,4.1109,4.1109,4.1109,4.1109,4.1109,4.1304,4.2123,4.3411,4.3821,4.4758,4.6007,4.6222,4.63,4.63,4.63,4.63,4.63,4.63,4.63,4.63,4.63,4.63,4.6302,4.6303,4.6308,4.6293,4.6295,4.63,4.6304,4.6306,4.6307,4.6308,4.6308,4.6308,4.6308,4.6308,4.6308,4.6308,4.6308,4.6308,4.6308,4.6308,4.6308,4.6308,4.6308,4.6308,4.6308,4.6308,4.6308,4.6308,4.6308,4.6308,4.6308,4.6308,4.6308,4.6308,4.6308,4.6308,4.6308,4.6308,4.6308,4.6308,4.6307,4.6304,4.63,4.6293,4.6305,4.63,4.63,4.63,4.63,4.6339,4.7793,4.8535,1.8288,1.9711,2.1192,2.2954,2.4189,2.5631,2.8137,2.8241,2.8685,3.1888,3.1333,3.0867,3.2671,3.4435,3.5937,3.6959,3.7276,3.7905,3.9408,3.9078,3.9253,4.0815,4.1069,4.1108,4.1109,4.1109,4.1109,4.1109,4.1109,4.1109,4.1109,4.1109,4.1109,4.1109,4.1109,4.1109,4.1109,4.1109,4.1109,4.1109,4.1109,4.1109,4.1129,4.1947,4.2376,4.2572,4.4192,4.4971,4.5168,4.5968,4.63,4.63,4.63,4.63,4.63,4.63,4.63,4.63,4.63,4.63,4.6302,4.6309,4.6293,4.6294,4.63,4.6304,4.6307,4.6307,4.6308,4.6308,4.6308,4.6308,4.6308,4.6308,4.6308,4.6308,4.6308,4.6308,4.6308,4.6308,4.6308,4.6308,4.6308,4.6308,4.6308,4.6308,4.6308,4.6308,4.6308,4.6308,4.6308,4.6308,4.6308,4.6308,4.6308,4.6308,4.6308,4.6308,4.6308,4.6308,4.6307,4.6304,4.63,4.6293,4.6305,4.63,4.63,4.63,4.63,4.6319,4.7131,4.7871,1.7162,1.9416,2.1916,2.3237,2.4226,2.5613,2.8411,2.9689,3.0823,3.2686,3.2621,3.2603,3.3784,3.5095,3.6298,3.7154,3.7746,3.8494,3.9644,3.9546,3.978,4.0953,4.1109,4.1109,4.1109,4.1109,4.1109,4.1109,4.1109,4.1109,4.1109,4.1109,4.1109,4.1109,4.1109,4.1109,4.1109,4.1109,4.1109,4.1109,4.1109,4.1109,4.1109,4.1439,4.1888,4.2435,4.3099,4.3995,4.5029,4.5363,4.5812,4.63,4.63,4.63,4.63,4.63,4.63,4.6302,4.6306,4.6308,4.6309,4.6296,4.6301,4.6303,4.6305,4.6307,4.6308,4.6308,4.6308,4.6308,4.6308,4.6308,4.6308,4.6308,4.6308,4.6308,4.6308,4.6308,4.6308,4.6308,4.6308,4.6308,4.6308,4.6308,4.6308,4.6308,4.6308,4.6308,4.6308,4.6308,4.6308,4.6308,4.6308,4.6308,4.6308,4.6308,4.6308,4.6308,4.6308,4.6308,4.6308,4.6305,4.6301,4.6299,4.6308,4.63,4.63,4.63,4.6269,4.6195,4.7028,4.7748,1.6959,1.9118,2.1641,2.2942,2.4366,2.6107,2.8651,3.0152,3.1573,3.3541,3.4065,3.4235,3.4503,3.5357,3.6199,3.6781,3.7395,3.816,3.9273,3.9429,3.9839,4.0973,4.1109,4.1109,4.1109,4.1109,4.1109,4.1109,4.1109,4.1109,4.1109,4.1109,4.1109,4.1109,4.1109,4.1109,4.1109,4.1109,4.1109,4.1109,4.1109,4.1109,4.1109,4.1109,4.142,4.2006,4.2279,4.3079,4.421,4.4776,4.5519,4.63,4.63,4.63,4.63,4.63,4.6302,4.6305,4.6291,4.6294,4.6297,4.6302,4.6305,4.6307,4.6307,4.6308,4.6308,4.6308,4.6308,4.6308,4.6308,4.6308,4.6308,4.6308,4.6308,4.6308,4.6308,4.6308,4.6308,4.6308,4.6308,4.6308,4.6308,4.6308,4.6308,4.6308,4.6308,4.6308,4.6308,4.6308,4.6308,4.6308,4.6308,4.6308,4.6308,4.6308,4.6308,4.6308,4.6308,4.6308,4.6308,4.6306,4.6301,4.6301,4.6259,4.6269,4.63,4.6269,4.6184,4.6118,4.668,4.7425,1.8112,1.895,2.0164,2.2051,2.4492,2.6942,2.8881,2.9345,3.0574,3.4902,3.5902,3.5736,3.4867,3.5408,3.5988,3.6017,3.6007,3.6618,3.8357,3.8591,3.9216,4.0875,4.109,4.109,4.107,4.107,4.107,4.107,4.107,4.109,4.109,4.1109,4.1109,4.1109,4.1109,4.1109,4.1109,4.1109,4.1109,4.1109,4.1109,4.1109,4.1109,4.1109,4.1109,4.1148,4.2006,4.2396,4.2533,4.4288,4.5519,4.63,4.63,4.63,4.63,4.63,4.6306,4.6293,4.6293,4.6297,4.6302,4.6306,4.6307,4.6307,4.6308,4.6308,4.6308,4.6308,4.6308,4.6308,4.6308,4.6308,4.6308,4.6308,4.6308,4.6308,4.6308,4.6308,4.6308,4.6308,4.6308,4.6308,4.6308,4.6308,4.6308,4.6308,4.6308,4.6308,4.6308,4.6308,4.6308,4.6308,4.6308,4.6308,4.6308,4.6308,4.6308,4.6308,4.6308,4.6308,4.6308,4.6306,4.6301,4.6301,4.617,4.6173,4.63,4.6153,4.6098,4.6095,4.5969,4.6757,1.733,1.9368,2.184,2.3155,2.6376,2.9552,3.0847,3.2071,3.354,3.5522,3.5488,3.5185,3.5552,3.5321,3.5498,3.6724,3.6905,3.7288,3.8375,3.8563,3.8773,3.9215,3.9304,3.932,3.9273,3.9274,3.9274,3.9274,3.9841,4.0188,4.0192,4.0777,4.1109,4.1109,4.1109,4.1109,4.1109,4.1109,4.1109,4.1109,4.1109,4.1109,4.1109,4.1109,4.1109,4.1109,4.1363,4.183,4.2533,4.4288,4.5519,4.63,4.63,4.63,4.63,4.63,4.6302,4.6305,4.6291,4.6297,4.6302,4.6306,4.6308,4.6308,4.6308,4.6308,4.6308,4.6308,4.6308,4.6308,4.6308,4.6308,4.6308,4.6308,4.6308,4.6308,4.6308,4.6308,4.6308,4.6308,4.6308,4.6308,4.6308,4.6265,4.6242,4.6289,4.6213,4.6189,4.6215,4.6237,4.6237,4.6237,4.6267,4.6288,4.6238,4.6267,4.6308,4.6308,4.6308,4.6308,4.6308,4.6307,4.6305,4.6301,4.6177,4.6122,4.617,4.6013,4.5929,4.5885,4.5848,4.6675,1.9359,2.1237,2.3333,2.5036,2.772,3.0501,3.2542,3.3827,3.4845,3.5802,3.5578,3.5383,3.5908,3.5578,3.5543,3.6588,3.6747,3.7026,3.7871,3.8027,3.8163,3.8457,3.8531,3.8532,3.8495,3.8496,3.8496,3.8494,3.8982,3.9433,3.9777,4.0303,4.0749,4.109,4.1109,4.1109,4.1109,4.1109,4.1109,4.1109,4.1109,4.1109,4.1109,4.1109,4.1109,4.1109,4.1109,4.1596,4.2513,4.3918,4.4992,4.5812,4.6163,4.63,4.63,4.63,4.6303,4.6306,4.6291,4.6297,4.6302,4.6306,4.6307,4.6308,4.6308,4.6308,4.6308,4.6308,4.6308,4.6308,4.6308,4.6308,4.6308,4.6308,4.6308,4.6308,4.6308,4.6308,4.6289,4.6266,4.6265,4.6244,4.6234,4.6195,4.6167,4.621,4.615,4.6115,4.6153,4.6158,4.6158,4.6158,4.62,4.6206,4.616,4.62,4.6213,4.6213,4.6213,4.6213,4.6213,4.6256,4.6255,4.6228,4.6063,4.6,4.6013,4.5908,4.5848,4.5807,4.5807,4.6619,2.2823,2.3668,2.4424,2.714,2.8626,3.0346,3.3807,3.4525,3.4755,3.5796,3.6006,3.6002,3.5991,3.6009,3.5978,3.5918,3.5898,3.6171,3.6972,3.7081,3.7371,3.8163,3.8262,3.826,3.8261,3.8257,3.8259,3.8261,3.8336,3.8719,3.9512,3.9648,4.0075,4.0957,4.0974,4.1012,4.1109,4.1109,4.1109,4.1109,4.1109,4.1109,4.1109,4.1109,4.1109,4.1109,4.1109,4.1596,4.2474,4.3333,4.4211,4.5088,4.5968,4.63,4.63,4.63,4.6305,4.6293,4.6293,4.6296,4.6302,4.6306,4.6307,4.6307,4.6308,4.6308,4.6308,4.6308,4.6308,4.6308,4.6308,4.6308,4.6289,4.6289,4.6289,4.6289,4.6289,4.6289,4.6266,4.6204,4.6197,4.6165,4.6112,4.6095,4.6087,4.6061,4.6084,4.6091,4.6091,4.6091,4.6091,4.6091,4.6095,4.6098,4.6091,4.6095,4.6098,4.6098,4.6098,4.6098,4.6098,4.6162,4.6155,4.6084,4.5905,4.5828,4.5889,4.5815,4.5786,4.5786,4.5786,4.6592,2.1924,2.2653,2.3627,2.7093,2.9237,3.1044,3.32,3.3145,3.3297,3.5536,3.6006,3.5991,3.5992,3.5968,3.5917,3.5898,3.5894,3.5974,3.6144,3.6176,3.6241,3.6436,3.6458,3.6461,3.646,3.6465,3.6467,3.6458,3.7043,3.7513,3.7742,3.8417,3.9179,4.0057,4.0084,4.0405,4.109,4.1109,4.1109,4.1109,4.1109,4.1109,4.1109,4.1109,4.1109,4.1109,4.1109,4.1596,4.2474,4.3333,4.4211,4.5088,4.5968,4.63,4.63,4.63,4.6302,4.6303,4.6303,4.6293,4.6301,4.6302,4.6307,4.6308,4.6308,4.6308,4.6308,4.6308,4.6308,4.6308,4.6308,4.6265,4.6213,4.6213,4.6213,4.6213,4.6213,4.6171,4.6139,4.6125,4.6122,4.6118,4.6102,4.6067,4.5988,4.5872,4.5942,4.6018,4.6018,4.6018,4.6018,4.6018,4.606,4.6076,4.6022,4.6064,4.6098,4.6098,4.6098,4.6098,4.6098,4.6112,4.6082,4.6029,4.5883,4.5803,4.5809,4.5696,4.5635,4.5635,4.5635,4.6187,2.1714,2.3341,2.5145,2.8391,2.9998,3.1141,3.2487,3.242,3.2606,3.4381,3.5096,3.5496,3.5889,3.5917,3.5895,3.5901,3.5903,3.5899,3.5894,3.5869,3.585,3.5908,3.5895,3.589,3.5866,3.5872,3.5897,3.5843,3.6232,3.6676,3.7121,3.7572,3.8235,3.914,3.9586,4.0027,4.0464,4.0894,4.1109,4.1109,4.1109,4.1109,4.1109,4.1109,4.1109,4.1109,4.1109,4.1363,4.1888,4.3177,4.3977,4.4504,4.5792,4.63,4.63,4.63,4.63,4.6302,4.6305,4.6293,4.6299,4.6303,4.6307,4.6308,4.6308,4.6308,4.6289,4.6265,4.6244,4.6241,4.6209,4.6189,4.615,4.615,4.615,4.615,4.615,4.6125,4.6087,4.6067,4.6039,4.6026,4.5978,4.5939,4.5873,4.5814,4.5867,4.5892,4.5892,4.5892,4.5892,4.5892,4.5931,4.5942,4.5917,4.5936,4.5968,4.5968,4.5968,4.5968,4.5968,4.5968,4.5954,4.5944,4.5809,4.574,4.5739,4.5646,4.5594,4.5594,4.5594,4.6067,2.1407,2.4196,2.7028,2.9463,3.0435,3.0997,3.1707,3.1886,3.2126,3.2991,3.387,3.4682,3.5349,3.5468,3.5511,3.5656,3.5675,3.5725,3.5855,3.5822,3.5823,3.5885,3.5875,3.585,3.5803,3.5859,3.5869,3.5799,3.5795,3.6102,3.6848,3.6883,3.7318,3.8221,3.9121,3.9646,3.9807,4.0662,4.1109,4.1109,4.1109,4.1109,4.1109,4.1109,4.1109,4.1109,4.1109,4.1109,4.1226,4.2825,4.3567,4.3862,4.5441,4.6163,4.63,4.63,4.6302,4.6303,4.6291,4.6294,4.6297,4.6305,4.6307,4.6307,4.6308,4.6308,4.6289,4.6212,4.6202,4.6173,4.6118,4.6091,4.608,4.608,4.6068,4.6041,4.6076,4.6068,4.6035,4.5991,4.5969,4.5941,4.5827,4.5807,4.5807,4.5807,4.5807,4.5807,4.5807,4.5807,4.5807,4.5807,4.5807,4.5807,4.5807,4.5807,4.5807,4.5807,4.5807,4.5807,4.5807,4.5807,4.5828,4.5885,4.5752,4.5703,4.5701,4.5631,4.5594,4.5594,4.5594,4.599,1.9837,2.3332,2.6923,2.8057,2.9587,3.0837,3.0945,3.0979,3.1223,3.2084,3.2976,3.3603,3.3701,3.3729,3.396,3.4659,3.477,3.5012,3.5722,3.5803,3.5799,3.5811,3.5811,3.5807,3.5795,3.5807,3.5807,3.5795,3.5795,3.5857,3.597,3.6035,3.6445,3.7262,3.8196,3.9043,3.9784,4.0651,4.1109,4.1109,4.1109,4.1109,4.1109,4.1109,4.1109,4.1109,4.1109,4.1109,4.1187,4.2162,4.3021,4.3801,4.4797,4.5636,4.63,4.63,4.6305,4.6291,4.6293,4.63,4.6306,4.6307,4.6308,4.6308,4.6308,4.6308,4.6289,4.6212,4.6202,4.6173,4.6118,4.6067,4.6003,4.6003,4.5927,4.5873,4.5982,4.5922,4.5835,4.5841,4.5834,4.5827,4.5807,4.5807,4.5807,4.5807,4.5807,4.5807,4.5807,4.5807,4.5807,4.5807,4.5807,4.5807,4.5807,4.5807,4.5807,4.5807,4.5807,4.5807,4.5807,4.5807,4.58,4.5817,4.5739,4.5703,4.5701,4.5631,4.5594,4.5594,4.5594,4.5671,2.1128,2.4322,2.7125,2.8947,2.9749,3.0206,3.0694,3.0425,3.031,3.1185,3.1672,3.222,3.3161,3.3372,3.3509,3.3824,3.4279,3.4713,3.5026,3.5484,3.5795,3.5795,3.5795,3.5795,3.5795,3.5795,3.5795,3.5795,3.5795,3.5795,3.5795,3.583,3.6024,3.6417,3.7309,3.8203,3.9113,3.9944,4.062,4.1109,4.1109,4.1109,4.1109,4.1109,4.1109,4.1109,4.1109,4.1109,4.1168,4.2045,4.263,4.3118,4.4465,4.5226,4.5636,4.6124,4.6306,4.6294,4.6297,4.6303,4.6307,4.6308,4.6308,4.6308,4.6308,4.6268,4.6237,4.6158,4.6118,4.6068,4.5949,4.5902,4.5899,4.5899,4.5835,4.5821,4.5886,4.5828,4.5807,4.5807,4.5807,4.5807,4.5807,4.5807,4.5807,4.5807,4.5807,4.5807,4.5807,4.5807,4.5807,4.5807,4.5807,4.5807,4.5807,4.5807,4.5807,4.5807,4.5807,4.5807,4.5807,4.5807,4.5805,4.5807,4.5731,4.5703,4.5701,4.5631,4.5594,4.5594,4.5594,4.5594,2.1496,2.4077,2.6041,2.8846,2.9495,2.9718,3.0596,3.0302,3.0005,3.0676,3.0798,3.1189,3.2421,3.2704,3.2797,3.2975,3.3531,3.4082,3.4447,3.5061,3.5542,3.5775,3.5795,3.5795,3.5795,3.5795,3.5795,3.5795,3.5795,3.5795,3.5795,3.5795,3.582,3.59,3.6753,3.7536,3.823,3.9277,4.0132,4.0777,4.0992,4.1109,4.1109,4.1109,4.1109,4.1109,4.1109,4.1109,4.1148,4.1791,4.2201,4.2552,4.4075,4.4797,4.5109,4.5971,4.6309,4.6296,4.6301,4.6306,4.6308,4.6308,4.6308,4.6308,4.6288,4.624,4.6173,4.6098,4.6041,4.5975,4.5822,4.5807,4.5807,4.5807,4.5807,4.5807,4.5807,4.5807,4.5807,4.5807,4.5807,4.5807,4.5807,4.5807,4.5807,4.5807,4.5807,4.5807,4.5807,4.5807,4.5807,4.5807,4.5807,4.5807,4.5807,4.5807,4.5807,4.5807,4.5807,4.5807,4.5807,4.5807,4.5805,4.5807,4.5731,4.5703,4.5701,4.5631,4.5594,4.5594,4.5594,4.5594,1.9152,2.0914,2.2601,2.603,2.8154,2.9651,3.0597,3.0762,3.0743,3.0782,3.0794,3.0836,3.0914,3.0935,3.1199,3.2034,3.2201,3.2764,3.4295,3.454,3.4866,3.5698,3.5795,3.5795,3.5795,3.5795,3.5795,3.5795,3.5795,3.5795,3.5795,3.5795,3.5838,3.5892,3.674,3.7218,3.7266,3.8954,3.9819,3.9878,4.0717,4.1109,4.1109,4.1109,4.1109,4.1109,4.1109,4.1109,4.1109,4.1148,4.1654,4.2494,4.3411,4.427,4.5109,4.5977,4.6296,4.6302,4.6306,4.6308,4.6308,4.6308,4.6308,4.6289,4.6215,4.6204,4.6167,4.6046,4.6007,4.5975,4.5822,4.5807,4.5807,4.5807,4.5807,4.5807,4.5807,4.5807,4.5807,4.5807,4.5807,4.5807,4.5807,4.5807,4.5807,4.5807,4.5807,4.5807,4.5807,4.5807,4.5807,4.5807,4.5807,4.5807,4.5807,4.5807,4.5807,4.5807,4.5807,4.5807,4.5807,4.5807,4.5805,4.5807,4.5731,4.5703,4.5701,4.5631,4.5594,4.5594,4.5594,4.5594,1.8624,2.0699,2.2786,2.4629,2.6424,2.7982,2.8922,2.9554,2.9964,2.9964,3.0411,3.0631,3.0074,3.0427,3.0891,3.1219,3.1746,3.2288,3.2811,3.3386,3.3856,3.4167,3.4206,3.4206,3.4206,3.4653,3.4964,3.4964,3.5484,3.5795,3.5795,3.5795,3.5836,3.5894,3.6198,3.6635,3.7187,3.8427,3.9292,3.98,4.0112,4.0561,4.1109,4.1109,4.1109,4.1109,4.1109,4.1109,4.1109,4.1109,4.1285,4.1654,4.2533,4.3063,4.3497,4.4944,4.5478,4.5543,4.6111,4.6308,4.6308,4.6308,4.6267,4.6237,4.6207,4.6139,4.6052,4.6003,4.5947,4.5848,4.5821,4.5807,4.5807,4.5807,4.5807,4.5807,4.5807,4.5807,4.5807,4.5807,4.5807,4.5807,4.5807,4.5807,4.5807,4.5807,4.5807,4.5807,4.5807,4.5807,4.5807,4.5807,4.5807,4.5807,4.5807,4.5807,4.5807,4.5807,4.5807,4.5807,4.5807,4.5807,4.5805,4.5807,4.5731,4.5703,4.5701,4.5631,4.5594,4.5594,4.5594,4.5594,1.7686,1.9643,2.1852,2.3354,2.4397,2.5607,2.7692,2.8413,2.8795,2.9379,3.0188,3.0525,2.9658,2.9961,3.0453,3.0744,3.1285,3.1746,3.1971,3.2499,3.2963,3.3274,3.3293,3.3293,3.3293,3.3779,3.4089,3.4089,3.4886,3.5352,3.5352,3.5639,3.5836,3.5894,3.5903,3.6176,3.6755,3.7675,3.8393,3.8934,3.952,4.0101,4.0678,4.0973,4.1109,4.1109,4.1109,4.1109,4.1109,4.1109,4.1091,4.119,4.2069,4.2405,4.2586,4.4032,4.4741,4.5076,4.5663,4.6035,4.6266,4.6266,4.6213,4.6158,4.6139,4.6064,4.5991,4.5953,4.588,4.5807,4.5807,4.5807,4.5807,4.5807,4.5807,4.5807,4.5807,4.5807,4.5807,4.5807,4.5807,4.5807,4.5807,4.5807,4.5807,4.5807,4.5807,4.5807,4.5807,4.5807,4.5807,4.5807,4.5807,4.5807,4.5807,4.5807,4.5807,4.5807,4.5807,4.5807,4.5807,4.5807,4.5793,4.581,4.5731,4.5692,4.5706,4.562,4.5594,4.5594,4.5594,4.5594,0.0,0.0,0.0,0.0,2.2137,2.2704,2.6974,2.7376,2.7314,2.9067,3.011,3.044,2.9659,2.9527,2.9801,3.0632,3.0761,3.1047,3.1857,3.1958,3.2283,3.3118,3.3215,3.3215,3.3215,3.3254,3.3254,3.3254,3.4012,3.4462,3.4462,3.5294,3.5818,3.5886,3.5896,3.5895,3.5893,3.6737,3.7179,3.7226,3.8906,3.9743,3.9821,4.068,4.109,4.1109,4.1109,4.1109,4.1109,4.1109,4.1094,4.1177,4.2036,4.2352,4.2474,4.3337,4.4197,4.4921,4.4941,4.5482,4.6161,4.6161,4.6131,4.6084,4.6013,4.5997,4.5969,4.5848,4.5807,4.5807,4.5807,4.5807,4.5807,4.5807,4.5807,4.5807,4.5807,4.5807,4.5807,4.5807,4.5807,4.5807,4.5807,4.5807,4.5807,4.5807,4.5807,4.5807,4.5807,4.5807,4.5807,4.5807,4.5807,4.5807,4.5807,4.5807,4.5807,4.5807,4.5807,4.5807,4.5807,4.5807,4.5807,4.58,4.5727,4.5708,4.57,4.5637,4.5594,4.5594,4.5594,4.5594,1.7217,0.0,0.0,0.0,0.0,0.0,2.3961,2.4732,2.551,2.7251,2.7811,2.8292,2.9305,3.002,3.0305,2.9922,2.9863,3.0154,3.1008,3.1095,3.1145,3.1393,3.1413,3.1413,3.1413,3.1992,3.2357,3.2357,3.3157,3.3623,3.3623,3.4455,3.5204,3.5815,3.588,3.5903,3.5892,3.6137,3.6584,3.7217,3.7694,3.8574,3.9802,4.0044,4.0503,4.1109,4.1109,4.1109,4.1109,4.1094,4.1097,4.1119,4.1377,4.1459,4.1579,4.2439,4.2871,4.3135,4.3777,4.4518,4.5198,4.5198,4.5577,4.6018,4.6007,4.5922,4.5854,4.5814,4.5807,4.5807,4.5807,4.5807,4.5807,4.5807,4.5807,4.5807,4.5807,4.5807,4.5807,4.5807,4.5807,4.5807,4.5807,4.5807,4.5807,4.5807,4.5807,4.5807,4.5807,4.5807,4.5807,4.5807,4.5807,4.5807,4.5807,4.5807,4.5807,4.5807,4.5807,4.5807,4.5807,4.5807,4.5793,4.5803,4.5731,4.5692,4.5698,4.562,4.5594,4.5594,4.5594,4.5594,0.0,0.0,0.0,0.0,0.0,0.0,2.2953,2.3345,2.3923,2.6392,2.7197,2.7632,2.8294,2.9127,2.9547,2.9032,2.8984,2.9283,3.0144,3.0539,3.0728,3.07,3.1025,3.1249,3.1238,3.1697,3.2007,3.2007,3.2474,3.2924,3.3274,3.4095,3.4779,3.5236,3.5651,3.5864,3.5869,3.5864,3.6129,3.6678,3.736,3.8256,3.9277,4.0015,4.0617,4.1105,4.1105,4.1071,4.1055,4.1054,4.1055,4.1053,4.1054,4.1069,4.1121,4.1629,4.2007,4.2334,4.2843,4.3548,4.4285,4.4631,4.505,4.5477,4.5807,4.5854,4.5807,4.5807,4.5807,4.5807,4.5807,4.5807,4.5807,4.5807,4.5807,4.5807,4.5807,4.5807,4.5807,4.5807,4.5807,4.5807,4.5807,4.5807,4.5807,4.5807,4.5807,4.5807,4.5807,4.5807,4.5807,4.5807,4.5807,4.5807,4.5807,4.5807,4.5807,4.5807,4.5807,4.5807,4.5807,4.5807,4.5793,4.5791,4.5739,4.5695,4.5657,4.5622,4.5594,4.5594,4.5594,4.5594,0.0,0.0,0.0,0.0,0.0,0.0,2.2808,2.2545,2.243,2.5546,2.6721,2.7072,2.6663,2.7312,2.7914,2.7917,2.8206,2.8688,2.9393,3.0072,3.0528,3.0564,3.1334,3.1902,3.2,3.2084,3.2139,3.2139,3.2054,3.2338,3.3118,3.3837,3.4307,3.4482,3.5255,3.5698,3.5795,3.5795,3.5834,3.5919,3.7409,3.8241,3.8534,4.0097,4.0918,4.1093,4.1093,4.1067,4.0994,4.0981,4.098,4.0984,4.0994,4.1,4.099,4.099,4.1458,4.2059,4.2059,4.2587,4.3384,4.4252,4.4562,4.4755,4.5548,4.5807,4.5807,4.5807,4.5807,4.5807,4.5807,4.5807,4.5807,4.5807,4.5807,4.5807,4.5807,4.5807,4.5807,4.5807,4.5807,4.5807,4.5807,4.5807,4.5807,4.5807,4.5773,4.5778,4.5778,4.5745,4.5737,4.5737,4.5752,4.5752,4.5737,4.5752,4.5752,4.5737,4.5737,4.5737,4.5737,4.5737,4.5737,4.5771,4.5696,4.5618,4.5513,4.5531,4.5559,4.554,4.5541,4.5522,0.0,0.0,0.0,0.0,0.0,0.0,2.0277,2.0306,2.0772,2.1515,2.1257,2.1665,2.4249,2.5476,2.6106,2.6108,2.7883,2.9325,2.9473,2.9041,2.8958,2.9647,3.0501,3.1318,3.2017,3.2669,3.3056,3.3056,3.2396,3.2066,3.224,3.2396,3.3118,3.4462,3.4653,3.51,3.5795,3.5795,3.5803,3.5823,3.6216,3.7094,3.8422,3.8824,3.9731,4.102,4.102,4.1012,4.0992,4.095,4.0931,4.0918,4.0972,4.0997,4.099,4.099,4.1073,4.1153,4.1153,4.1645,4.2421,4.3286,4.404,4.4755,4.5548,4.5807,4.5807,4.5807,4.5807,4.5807,4.5807,4.5807,4.5807,4.5807,4.5807,4.5807,4.5807,4.5807,4.5807,4.5807,4.5807,4.5807,4.5807,4.5807,4.5807,4.5807,4.5658,4.5569,4.5569,4.5418,4.5314,4.5314,4.5454,4.549,4.5323,4.5463,4.5481,4.5323,4.5314,4.5314,4.5314,4.5314,4.539,4.5566,4.5438,4.5243,4.4962,4.518,4.5292,4.5263,4.5063,4.5074,0.0,0.0,0.0,2.2043,0.0,0.0,0.0,2.1232,2.1331,2.2669,2.1596,2.1188,2.3725,2.4584,2.5026,2.5447,2.699,2.8149,2.8154,2.893,2.9664,3.0097,3.0915,3.1614,3.2053,3.2838,3.3308,3.3307,3.2906,3.2461,3.2031,3.2415,3.2827,3.3235,3.4051,3.4711,3.5158,3.5581,3.5795,3.5814,3.6269,3.693,3.7787,3.869,3.9557,4.0376,4.0779,4.0925,4.089,4.0852,4.0858,4.0848,4.0887,4.0897,4.0907,4.0907,4.0873,4.0846,4.0846,4.1097,4.1545,4.2376,4.3247,4.4117,4.4949,4.5471,4.5807,4.5807,4.5807,4.5807,4.5807,4.5807,4.5807,4.5807,4.5807,4.5807,4.5807,4.5807,4.5807,4.5807,4.5807,4.5807,4.5807,4.5807,4.5778,4.5677,4.5549,4.5463,4.5362,4.5254,4.5201,4.5201,4.5284,4.5304,4.5211,4.5284,4.5304,4.5211,4.5201,4.5201,4.5201,4.5201,4.5211,4.5243,4.514,4.5007,4.4788,4.48,4.4872,4.5007,4.4861,4.4861,0.0,0.0,0.0,0.0,0.0,2.3414,0.0,0.0,0.0,2.4145,2.2843,2.1875,2.3391,2.3691,2.4027,2.4984,2.5945,2.6612,2.6787,2.882,3.0308,3.0326,3.1228,3.1914,3.2082,3.2545,3.2885,3.3067,3.2898,3.2578,3.2032,3.2679,3.2807,3.226,3.3565,3.4346,3.4501,3.5352,3.5795,3.5814,3.6518,3.6946,3.7144,3.8565,3.938,3.9724,4.0369,4.0716,4.0796,4.0806,4.0802,4.0797,4.0802,4.0796,4.0797,4.0797,4.0797,4.0797,4.0797,4.0797,4.0932,4.1738,4.2705,4.3692,4.4381,4.5162,4.5807,4.5807,4.5807,4.5807,4.5807,4.5807,4.5807,4.5807,4.5807,4.5807,4.5807,4.5807,4.5807,4.5807,4.5807,4.5807,4.5807,4.5807,4.573,4.5524,4.5463,4.5362,4.515,4.5094,4.5071,4.5071,4.5105,4.5115,4.5071,4.5105,4.5115,4.5071,4.5071,4.5071,4.5071,4.5085,4.5019,4.4843,4.4825,4.4763,4.4656,4.443,4.4452,4.4714,4.4663,4.4663,0.0,0.0,0.0,0.0,2.4342,2.5105,0.0,0.0,2.3165,2.1218,0.0,0.0,2.1637,0.0,0.0,2.3987,2.5033,2.5926,2.6693,2.779,2.8522,2.8589,2.9982,3.1255,3.204,3.1484,3.1401,3.2182,3.1478,3.129,3.196,3.2081,3.2454,3.3138,3.3332,3.3779,3.4482,3.5352,3.5795,3.5795,3.5892,3.6347,3.7117,3.7311,3.8212,3.9612,3.9704,4.0149,4.08,4.08,4.0802,4.0797,4.0797,4.0797,4.0797,4.0797,4.0797,4.0797,4.0797,4.0797,4.0932,4.1738,4.3111,4.4458,4.4574,4.5162,4.5807,4.5807,4.5807,4.5807,4.5807,4.5807,4.5807,4.5807,4.5807,4.5807,4.5807,4.5807,4.5807,4.5807,4.5807,4.5807,4.5807,4.5807,4.573,4.5524,4.5343,4.514,4.4872,4.4681,4.4592,4.4592,4.4739,4.4758,4.4587,4.4739,4.4777,4.4587,4.4592,4.4592,4.4592,4.4688,4.461,4.43,4.4462,4.4402,4.4094,4.4064,4.4177,4.4438,4.4192,4.4221,0.0,0.0,0.0,0.0,0.0,0.0,2.2767,2.247,2.2531,2.2469,0.0,0.0,0.0,0.0,0.0,0.0,2.4833,0.0,2.4577,2.5712,2.6858,2.7424,2.815,2.9139,3.0528,3.0733,3.1366,3.275,3.2025,3.1888,3.2711,3.2752,3.2693,3.2544,3.3047,3.3468,3.3798,3.4633,3.5294,3.5795,3.5795,3.5989,3.6358,3.6867,3.7476,3.819,3.9185,3.9774,4.0078,4.0589,4.0803,4.0797,4.0797,4.0797,4.0797,4.0797,4.0797,4.0797,4.0797,4.0797,4.0932,4.1738,4.2492,4.3285,4.4284,4.4833,4.52,4.5671,4.5807,4.5807,4.5807,4.5807,4.5807,4.5807,4.5807,4.5807,4.5807,4.5807,4.5807,4.5807,4.5807,4.5807,4.5807,4.5688,4.5569,4.5352,4.511,4.4879,4.4674,4.4546,4.4487,4.4458,4.4532,4.4513,4.4383,4.4463,4.4486,4.444,4.444,4.4411,4.4387,4.4393,4.4335,4.4199,4.4199,4.4136,4.4005,4.4005,4.4064,4.4166,4.4048,4.4064,2.5254,2.509,2.4853,2.3873,2.3822,2.387,2.341,2.2723,2.2549,2.3803,2.2741,0.0,0.0,0.0,0.0,0.0,0.0,2.4681,0.0,2.4432,2.5324,2.5806,2.6328,2.7147,2.8401,2.885,2.9872,3.1854,3.1402,3.1604,3.2908,3.319,3.2892,3.2033,3.2859,3.3293,3.3293,3.4089,3.4944,3.5795,3.5795,3.5795,3.5814,3.6451,3.6865,3.7153,3.8592,3.932,3.9569,4.0435,4.0797,4.0797,4.0797,4.0797,4.0797,4.0797,4.0797,4.0797,4.0797,4.0797,4.0893,4.1487,4.1816,4.228,4.3788,4.44,4.4775,4.5568,4.5807,4.5807,4.5807,4.5807,4.5807,4.5807,4.5807,4.5807,4.5807,4.5807,4.5807,4.5807,4.5807,4.5807,4.5807,4.5673,4.5509,4.5243,4.5041,4.4795,4.451,4.4468,4.4458,4.4368,4.4368,4.434,4.43,4.43,4.4314,4.4368,4.4368,4.4344,4.4289,4.4229,4.4184,4.4153,4.4055,4.4005,4.4005,4.4005,4.4005,4.4005,4.4005,4.4005,2.5331,2.5281,2.4878,2.317,2.339,2.3577,2.1948,2.2791,2.3938,2.3995,2.4615,2.5149,0.0,0.0,0.0,0.0,0.0,0.0,0.0,0.0,0.0,0.0,2.4703,2.5765,2.5824,2.5081,2.5686,2.8265,2.8378,2.9447,3.1991,3.289,3.2894,3.2034,3.2846,3.3293,3.3293,3.4089,3.4944,3.5795,3.5795,3.5795,3.5795,3.5832,3.627,3.706,3.7882,3.8731,3.9559,4.0448,4.0797,4.0797,4.0797,4.0797,4.0797,4.0797,4.0797,4.0797,4.0797,4.0797,4.0797,4.0835,4.1371,4.2164,4.3073,4.3924,4.4775,4.5568,4.5807,4.5807,4.5807,4.5807,4.5807,4.5807,4.5807,4.5807,4.5807,4.5807,4.5807,4.5807,4.5807,4.5807,4.5807,4.578,4.565,4.5273,4.5201,4.5004,4.4463,4.4397,4.4368,4.4314,4.43,4.43,4.43,4.43,4.43,4.43,4.43,4.427,4.4199,4.4199,4.4135,4.4005,4.4005,4.4005,4.4005,4.4005,4.4005,4.4005,4.4005,4.4005,2.5441,2.5431,2.5145,2.3983,2.3481,2.3102,2.25,2.2352,2.2506,2.3087,2.3904,2.4509,0.0,0.0,0.0,0.0,0.0,0.0,0.0,0.0,0.0,0.0,0.0,0.0,2.4724,2.4546,2.5472,2.8108,2.7733,2.8789,3.1932,3.2861,3.3166,3.2872,3.3148,3.3293,3.3293,3.3565,3.4128,3.4944,3.5523,3.5806,3.5793,3.5803,3.5916,3.6182,3.7044,3.7873,3.8702,3.9578,4.0274,4.0797,4.0797,4.0797,4.0797,4.0797,4.0797,4.0797,4.0797,4.0797,4.0797,4.0797,4.099,4.1351,4.2183,4.3053,4.3924,4.4775,4.5394,4.5807,4.5807,4.5807,4.5807,4.5807,4.5807,4.5807,4.5807,4.5807,4.5807,4.5807,4.5805,4.581,4.581,4.5618,4.5399,4.5171,4.4969,4.4739,4.4368,4.4344,4.43,4.4244,4.4244,4.4195,4.4116,4.418,4.4195,4.4116,4.418,4.418,4.407,4.407,4.4055,4.4005,4.4005,4.4005,4.4005,4.4005,4.4005,4.4005,4.4005,4.4005,2.5539,2.5534,2.5327,2.4449,2.4035,2.3654,2.2987,2.2852,2.2967,2.3233,2.3955,2.4648,2.4996,0.0,0.0,0.0,0.0,0.0,0.0,2.1012,0.0,0.0,0.0,0.0,0.0,2.3709,2.474,2.676,2.6967,2.822,3.1028,3.2251,3.2857,3.2831,3.2849,3.2982,3.3293,3.3293,3.3701,3.4521,3.5383,3.5797,3.5799,3.5785,3.5737,3.5746,3.6607,3.7442,3.827,3.9133,4.0004,4.0797,4.0797,4.0797,4.0797,4.0797,4.0797,4.0797,4.0797,4.0797,4.0797,4.0797,4.0797,4.0951,4.1757,4.2396,4.3015,4.3885,4.4736,4.5374,4.5374,4.5587,4.5807,4.5807,4.5807,4.5807,4.5807,4.5807,4.5807,4.5807,4.5791,4.5807,4.5807,4.5518,4.5245,4.5096,4.4838,4.4573,4.43,4.4255,4.4226,4.4135,4.4135,4.4085,4.4005,4.407,4.4085,4.4005,4.407,4.4085,4.4005,4.4005,4.4005,4.4005,4.4005,4.4005,4.4005,4.4005,4.4005,4.4005,4.4005,4.4005]}]]